     2              OBSERVATION DATA    GPS                 RINEX VERSION / TYPE
teqc 2003Nov3 Frederique Rolandone20040804 23:48:49UTC      PGM / RUN BY / DATE
                                                            COMMENT
42-44 dBHz = 7, 45-48 dBHz = 8, >= 49 dBHz = 9              COMMENT
42-44 dBHz = 7, 45-48 dBHz = 8, >= 49 dBHz = 9              COMMENT
42-44 dBHz = 7, 45-48 dBHz = 8, >= 49 dBHz = 9              COMMENT
42-44 dBHz = 7, 45-48 dBHz = 8, >= 49 dBHz = 9              COMMENT
42-44 dBHz = 7, 45-48 dBHz = 8, >= 49 dBHz = 9              COMMENT
42-44 dBHz = 7, 45-48 dBHz = 8, >= 49 dBHz = 9              COMMENT
42-44 dBHz = 7, 45-48 dBHz = 8, >= 49 dBHz = 9              COMMENT
Original Marker Name: panc                                  COMMENT
Campaign Name: UC Berkeley Central Calif 2003-2004          COMMENT
4-Character Station Name: PANC                              COMMENT
6-Character Antenna Code: TRZEPH                            COMMENT
Vertical Measurement Point: MGP                             COMMENT
Vertical Offset to Rinex Ref. Point: 0.0443                 COMMENT
Radial Measurement Point: OGP                               COMMENT
Radial Offset to Rinex Ref. Point: 0.1698                   COMMENT
Antenna Height from Field Measurement: 0.8807 m             COMMENT
Original XYZ: 0.0000 0.0000 0.0000                          COMMENT
New XYZ position is based on association with SCEC monument COMMENT
E1F7B1R4+0011. Position of that monument is believed to be  COMMENT
valid to within 1 m horizontally; vertical accuracy         COMMENT
should be no worse than 3-times this value.                 COMMENT
                                                            COMMENT
Revised Rinex header created by UCSD GPS archive for        COMMENT
GSAC on 04-Feb-2005 (2005:035) 16:35:19 GMT                 COMMENT
For assistance contact dagnew@ucsd.edu                      COMMENT
or anderson@python.ucsd.edu                                 COMMENT
                                                            COMMENT
PANOCHE 1943                                                MARKER NAME
panc                                                        MARKER NUMBER
F. Rolandone UNIV CALIF BERKELEY                            OBSERVER / AGENCY
220273264 TRIMBLE 5700 NP 1.20 / SP 0.00                    REC # / TYPE / VERS
337640 TRM41249.00                                          ANT # / TYPE
 -2617299.0000 -4401129.0000  3790918.0000                  APPROX POSITION XYZ
        0.8199        0.0000        0.0000                  ANTENNA: DELTA H/E/N
     1     1     0                                          WAVELENGTH FACT L1/2
     4    L1    L2    C1    P2                              # / TYPES OF OBSERV
    30                                                      INTERVAL
  2004     7    29     0     0   30.000000                  TIME OF FIRST OBS
  2004     7    29    23    59   30.000000                  TIME OF LAST OBS
                                                            END OF HEADER
 04  7 29  0  0 30.0000000  0  9G20G 1G16G23G13G19G27G 3G 8
 -42556510.62556 -33141209.36552  24746932.3364   24746932.0704
 -54988282.16858 -42827481.99553  22751331.8674   22751330.3554
 -34142796.41456 -26583778.85252  24429450.1174   24429447.5234
 -56872511.47759 -44295995.68155  21584639.7734   21584634.5004
 -48667185.69559 -37903027.92757  20394328.4304   20394324.3714
  -9170443.88757  -7125273.69452  23872059.4614   23872055.3244
 -35390025.36759 -27556098.80056  21704081.6884   21704079.2304
 -18459602.04358 -14364705.01653  23131564.0164   23131562.0594
 -18255161.53958 -14203211.90553  23119688.8674   23119686.8134
 04  7 29  0  1  0.0000000  0  9G20G 1G16G23G13G19G27G 3G 8
 -42509602.48846 -33104657.73642  24755858.2664   24755859.2034
 -54977315.45748 -42818936.54843  22753418.8834   22753416.7114
 -34107180.62546 -26556026.30542  24436227.8834   24436225.2464
 -56872916.41849 -44296311.24745  21584562.6564   21584557.4924
 -48744760.12949 -37963475.53246  20379566.0164   20379562.5204
  -9309915.76247  -7233953.04842  23845518.5314   23845514.6254
 -35490289.75049 -27634226.89045  21685002.4064   21684999.6374
 -18545392.51248 -14431554.70743  23115238.5084   23115236.6954
 -18391389.24247 -14309363.32643  23093766.1094   23093763.7934
 04  7 29  0  1 30.0000000  0  9G20G 1G16G23G13G19G27G 3G 8
 -42462694.11346 -33068105.95342  24764784.7424   24764785.1254
 -54966040.58248 -42810150.98343  22755564.3364   22755562.6054
 -34071400.97346 -26528146.10942  24443036.9694   24443033.8054
 -56872932.85249 -44296324.06545  21584559.8754   21584553.9344
 -48821890.58249 -38023577.18946  20364888.7974   20364884.8914
  -9449162.00447  -7342456.58743  23819020.6644   23819016.7854
 -35590387.94549 -27712225.47145  21665954.1644   21665951.7424
 -18630640.16048 -14497981.42343  23099016.8594   23099014.5314
 -18527450.43747 -14415384.99543  23067874.7114   23067872.2894
 04  7 29  0  2  0.0000000  0  9G20G 1G16G23G13G19G27G 3G 8
 -42415785.53546 -33031553.94842  24773711.2504   24773712.0004
 -54954455.71948 -42801123.85743  22757768.7664   22757766.7974
 -34035457.13346 -26500137.99442  24449876.7974   24449873.6844
 -56872558.84049 -44296032.66145  21584630.6884   21584625.5514
 -48898572.94949 -38083329.68046  20350296.2424   20350292.7894
  -9588176.95747  -7450779.88243  23792566.0634   23792563.2624
 -35690317.73849 -27790092.83946  21646938.3364   21646936.0274
 -18715341.09848 -14563982.16942  23082898.7034   23082896.3244
 -18663342.19947 -14521274.63143  23042015.1954   23042012.4734
 04  7 29  0  2 30.0000000  0  9G20G 1G16G23G13G19G27G 3G 8
 -42368881.53146 -32995005.58541  24782636.4224   24782637.5514
 -54942563.39848 -42791857.14143  22760032.0864   22760030.4574
 -33999353.57446 -26472005.42142  24456747.4614   24456743.9924
 -56871796.73849 -44295438.83045  21584776.0234   21584770.3554
 -48974808.30949 -38142733.85546  20335789.1724   20335785.6844
  -9726959.55547  -7558922.12842  23766157.4384   23766153.5744
 -35790081.35249 -27867830.71045  21627953.7344   21627951.2774
 -18799495.86748 -14629557.28043  23066884.4224   23066882.5234
 -18799066.69547 -14627033.96943  23016187.4924   23016184.8874
 04  7 29  0  3  0.0000000  0  9G20G 1G16G23G13G19G27G 3G 8
 -42321984.65246 -32958462.78341  24791562.5004   24791562.1024
 -54930364.10248 -42782351.26243  22762353.5084   22762351.5944
 -33963092.39546 -26443750.02642  24463647.4144   24463644.1174
 -56870647.35249 -44294543.24245  21584994.7584   21584989.3484
 -49050595.12149 -38201788.51546  20321367.7974   20321363.6564
  -9865506.83647  -7666881.01942  23739792.7894   23739788.9024
 -35889678.90649 -27945439.19246  21609001.1644   21608998.3054
 -18883103.00048 -14694705.68243  23050974.6334   23050972.2464
 -18934623.61347 -14732662.69543  22990391.6414   22990389.6254
 04  7 29  0  3 30.0000000  0  9G20G 1G16G23G13G19G27G 3G 8
 -42275097.75846 -32921927.72241  24800485.5704   24800484.4184
 -54917858.91847 -42772606.96943  22764732.8284   22764731.3874
 -33926676.37946 -26415373.96442  24470577.2974   24470573.9694
 -56869111.37949 -44293346.40545  21585287.0864   21585281.6414
 -49125932.22349 -38260492.75847  20307031.4924   20307027.8404
 -10003815.78147  -7774654.18042  23713473.1094   23713469.7624
 -35989110.91449 -28022918.67746  21590079.7504   21590077.0434
 -18966161.31648 -14759426.42943  23035168.7114   23035167.1844
 -19070012.71547 -14838160.65043  22964628.1724   22964625.7274
 04  7 29  0  4  0.0000000  0  9G20G 1G16G23G13G19G27G 3G 8
 -42228226.01646 -32885404.32241  24809404.2034   24809403.3014
 -54905051.24648 -42762627.02143  22767170.4224   22767168.6174
 -33890110.78146 -26386881.31942  24477535.3754   24477532.3674
 -56867192.39849 -44291851.12445  21585652.0314   21585646.7704
 -49200820.78149 -38318847.47847  20292781.1484   20292777.1884
 -10141886.45347  -7882241.67043  23687199.3054   23687195.8444
 -36088380.37549 -28100271.49146  21571189.6884   21571186.7624
 -19048672.06248 -14823720.50142  23019467.4224   23019465.3444
 -19205237.50447 -14943530.57143  22938895.9064   22938893.3754
 04  7 29  0  4 30.0000000  0  8G 1G16G23G13G19G27G 3G 8
 -54891940.26248 -42752410.69543  22769665.6174   22769663.6994
 -33853396.35546 -26358272.72542  24484521.6884   24484519.3404
 -56864889.48049 -44290056.66145  21586090.5864   21586085.0394
 -49275258.77349 -38376851.11346  20278616.0234   20278611.9414
 -10279714.30147  -7989639.94542  23660971.1954   23660968.0084
 -36187486.02749 -28177496.67246  21552330.2584   21552327.7504
 -19130632.48048 -14887585.76142  23003870.8054   23003869.1294
 -19340295.78947 -15048770.77643  22913194.7194   22913192.9924
 04  7 29  0  5  0.0000000  0  8G 1G16G23G13G19G27G 3G 8
 -54878525.01248 -42741957.30443  22772218.0474   22772216.5824
 -33816533.71146 -26329548.68242  24491536.6644   24491533.8164
 -56862201.45749 -44287962.11445  21586602.1254   21586596.3794
 -49349242.57049 -38434500.82047  20264537.1484   20264533.2664
 -10417294.83247  -8096845.49443  23634790.6094   23634786.9574
 -36286426.46949 -28254593.11546  21533502.3914   21533499.6024
 -19212039.23448 -14951019.57543  22988380.1024   22988377.3834
 -19475186.48447 -15153880.36443  22887526.1884   22887523.8204
 04  7 29  0  5 30.0000000  0  8G 1G16G23G13G19G27G 3G 8
 -54864793.03147 -42731257.09243  22774830.9384   22774829.5704
 -33779512.17646 -26300700.81142  24498582.0704   24498578.8554
 -56859116.07849 -44285557.95945  21587189.0864   21587183.7934
 -49422757.84049 -38491785.45147  20250547.4924   20250543.6994
 -10554611.42247  -8203845.39442  23608660.0234   23608656.4964
 -36385188.64149 -28331550.63646  21514708.8054   21514706.0784
 -19292878.22348 -15014010.96942  22972996.6254   22972995.2584
 -19609895.61347 -15258848.46443  22861891.6174   22861889.2774
 04  7 29  0  6  0.0000000  0  8G 1G16G23G13G19G27G 3G 8
 -54850736.46547 -42720303.96743  22777506.2504   22777504.4104
 -33742325.35946 -26271724.12242  24505658.4774   24505655.3244
 -56855625.17249 -44282837.79345  21587853.7194   21587847.7154
 -49495794.60949 -38548697.21747  20236648.9774   20236645.4414
 -10691652.69147  -8310630.73343  23582581.8834   23582578.2384
 -36483764.04349 -28408362.63445  21495950.2894   21495947.4804
 -19373139.14548 -15076551.95043  22957723.5704   22957721.7544
 -19744414.52047 -15363668.36643  22836293.8204   22836291.2304
 04  7 29  0  6 30.0000000  0  8G 1G16G23G13G19G27G 3G 8
 -54836361.32847 -42709102.58243  22780242.1254   22780239.9224
 -33704980.94546 -26242624.67442  24512763.4064   24512762.1174
 -56851734.70349 -44279806.27745  21588593.9614   21588588.5514
 -49568357.12149 -38605239.43247  20222840.7504   20222837.1054
 -10828420.96147  -8417203.35742  23556555.3444   23556552.0354
 -36582158.28549 -28485033.46346  21477226.3914   21477223.9574
 -19452825.96948 -15138645.53543  22942559.7664   22942557.6884
 -19878748.96548 -15468344.50443  22810730.7894   22810728.4494
 04  7 29  0  7  0.0000000  0  8G 1G16G23G13G19G27G 3G 8
 -54821670.12147 -42697654.94443  22783037.1174   22783035.5004
 -33667483.12946 -26213405.66042  24519900.4924   24519897.2774
 -56847447.43449 -44276465.57745  21589409.7114   21589404.6644
 -49640445.71549 -38661412.35547  20209122.7424   20209119.0554
 -10964915.02747  -8523562.29243  23530582.3204   23530578.4104
 -36680373.29349 -28561564.64046  21458536.6644   21458534.5864
 -19531939.41048 -15200292.33943  22927505.2034   22927502.4534
 -20012900.36348 -15572878.03143  22785201.9304   22785200.0314
 04  7 29  0  7 30.0000000  0  8G 1G16G23G13G19G27G 3G 8
 -54806664.79747 -42685962.50043  22785893.7194   22785890.8594
 -33629835.20346 -26184069.67542  24527064.5704   24527062.0474
 -56842764.97749 -44272816.93845  21590300.6414   21590295.4304
 -49712060.38749 -38717215.99946  20195495.0784   20195491.2504
 -11101132.96947  -8629706.09842  23504661.1334   23504656.7304
 -36778410.41849 -28637957.19846  21439880.8524   21439878.1994
 -19610479.41048 -15261492.32143  22912559.3674   22912557.5594
 -20146869.86747 -15677269.78543  22759708.7194   22759706.5594
 04  7 29  0  8  0.0000000  0  8G 1G16G23G13G19G27G 3G 8
 -54791351.98047 -42674030.47643  22788806.6484   22788805.5204
 -33592045.43046 -26154623.13642  24534255.7664   24534252.7624
 -56837694.00849 -44268865.55245  21591265.6174   21591260.5864
 -49783205.86749 -38772654.02746  20181956.4614   20181952.5434
 -11237077.78547  -8735637.08442  23478791.7504   23478787.1764
 -36876275.85949 -28714215.96646  21421258.1484   21421255.3714
 -19688450.70748 -15322249.18343  22897722.2664   22897719.4224
 -20280663.22748 -15781524.34243  22734248.5004   22734246.2934
 04  7 29  0  8 30.0000000  0  8G 1G16G23G13G19G27G 3G 8
 -54775728.78948 -42661856.61043  22791780.0784   22791778.0314
 -33554112.57846 -26125065.09841  24541474.1334   24541471.1994
 -56832231.64549 -44264609.19045  21592305.2584   21592300.1024
 -49853877.43049 -38827722.77346  20168508.0554   20168504.3984
 -11372742.95347  -8841350.13042  23452974.0234   23452970.7814
 -36973966.21149 -28790338.31346  21402667.7974   21402665.4534
 -19765848.47348 -15382559.10443  22882993.5314   22882991.3444
 -20414276.69148 -15885638.67043  22708822.8054   22708820.4414
 04  7 29  0  9  0.0000000  0  8G 1G16G23G13G19G27G 3G 8
 -54759800.67648 -42649445.13543  22794810.8444   22794809.3984
 -33516043.59046 -26095401.06842  24548718.0314   24548715.4614
 -56826383.28949 -44260052.05645  21593417.9774   21593412.8674
 -49924078.12949 -38882424.61847  20155149.2814   20155145.5824
 -11508129.98447  -8946846.43442  23427211.3984   23427207.4964
 -37071486.18749 -28866327.89146  21384110.5864   21384108.1644
 -19842676.00848 -15442424.68943  22868373.6804   22868371.1884
 -20547714.97748 -15989616.52343  22683429.8674   22683428.1174
 04  7 29  0  9 30.0000000  0  8G 1G16G23G13G19G27G 3G 8
 -54743569.80948 -42636797.74443  22797900.1884   22797897.9774
 -33477842.03146 -26065633.64842  24555988.0554   24555984.8204
 -56820150.86348 -44255195.65345  21594604.2114   21594599.0944
 -49993808.45349 -38936759.92546  20141880.4224   20141876.2424
 -11643237.19946  -9052124.74643  23401501.4694   23401497.5084
 -37168837.20349 -28942185.81446  21365585.2814   21365582.9264
 -19918933.43448 -15501846.02443  22853862.2664   22853860.1564
 -20680979.24647 -16093458.76643  22658070.7274   22658068.9884
 04  7 29  0 10  0.0000000  0  8G 1G16G23G13G19G27G 3G 8
 -54727036.03548 -42623914.31343  22801046.0944   22801044.2384
 -33439509.19946 -26035763.95842  24563282.0864   24563279.5124
 -56813534.41449 -44250039.99645  21595863.2194   21595857.7974
 -50063066.01249 -38990726.85747  20128700.8594   20128697.0204
 -11778060.81247  -9157182.03443  23375845.8134   23375840.8914
 -37266018.58248 -29017911.56246  21347092.0944   21347089.6024
 -19994618.62148 -15560821.48443  22839460.0474   22839457.9964
 -20814068.57448 -16197164.69343  22632744.6804   22632742.6604
 04  7 29  0 10 30.0000000  0  8G 1G16G23G13G19G27G 3G 8
 -54710202.40247 -42610797.25043  22804248.9224   22804247.7544
 -33401049.80546 -26005795.65142  24570601.7344   24570598.9884
 -56806536.72749 -44244587.26645  21597194.8134   21597189.3594
 -50131851.98049 -39044326.31546  20115611.3134   20115607.4494
 -11912599.94947  -9262017.65243  23350243.8204   23350239.3484
 -37363032.85948 -29093507.08646  21328630.5704   21328628.2624
 -20069733.00847 -15619352.15143  22825165.9694   22825164.0554
 -20946985.18748 -16300736.05543  22607451.4454   22607449.3874
 04  7 29  0 11  0.0000000  0  8G 1G16G23G13G19G27G 3G 8
 -54693068.45347 -42597446.16843  22807510.2194   22807508.0204
 -33362464.78946 -25975729.39241  24577944.0704   24577941.2074
 -56799157.43749 -44238837.20745  21598598.9614   21598593.9844
 -50200164.15649 -39097556.58247  20102611.8984   20102608.0434
 -12046850.69546  -9366628.56943  23324695.7974   23324691.6604
 -37459878.82049 -29168971.46946  21310201.9384   21310199.1254
 -20144273.95747 -15677435.99043  22810982.0634   22810979.2734
 -21079727.33248 -16404171.46044  22582191.6884   22582189.3204
 04  7 29  0 11 30.0000000  0  8G 1G16G23G13G19G27G 3G 8
 -54675633.80147 -42583860.75343  22810828.0164   22810825.8594
 -33323755.15246 -25945566.12041  24585309.2664   24585306.4804
 -56791396.23849 -44232789.53845  21600075.7194   21600070.7114
 -50267999.76248 -39150415.48547  20089703.3914   20089699.5704
 -12180808.57847  -9471011.26743  23299204.7114   23299200.8674
 -37556555.34049 -29244303.79846  21291805.0554   21291802.1884
 -20218239.25047 -15735071.27543  22796906.2894   22796904.2074
 -21212294.18748 -16507470.25943  22556964.6644   22556962.9804
 04  7 29  0 11 59.9990000  0  8G 1G16G23G13G19G27G 3G 8
 -54657900.14847 -42570042.34943  22814201.5504   22814200.2844
 -33284924.58246 -25915308.55141  24592698.7764   24592696.2064
 -56783254.51649 -44226445.36044  21601625.1674   21601620.3554
 -50335355.75849 -39202900.68146  20076885.9874   20076882.0934
 -12314466.40247  -9575160.15143  23273770.5504   23273766.3704
 -37653059.71549 -29319502.00646  21273440.7304   21273438.1364
 -20291625.79747 -15792255.55542  22782941.4874   22782939.0624
 -21344681.02348 -16610628.79943  22531772.6444   22531770.9874
 04  7 29  0 12 29.9990000  0  8G 1G16G23G13G19G27G 3G 8
 -54639868.32447 -42555991.62543  22817633.4724   22817632.2494
 -33245973.85546 -25884957.40641  24600112.2224   24600108.3584
 -56774733.16849 -44219805.37945  21603246.7224   21603241.7024
 -50402236.74249 -39255015.73846  20064158.8704   20064154.7654
 -12447831.28547  -9679080.78943  23248392.0974   23248387.6674
 -37749399.52049 -29394571.97046  21255107.8234   21255105.3624
 -20364438.57848 -15848992.78143  22769085.3154   22769083.1594
 -21476897.99648 -16713654.96644  22506612.3394   22506610.2414
 04  7 29  0 12 59.9990000  0  8G 1G16G23G13G19G27G 3G 8
 -54621540.40647 -42541710.19343  22821121.3624   22821119.9254
 -33206907.40645 -25854516.17741  24607544.9254   24607543.0154
 -56765834.32049 -44212871.23844  21604940.1204   21604935.1324
 -50468640.11749 -39306758.62246  20051522.7534   20051518.6244
 -12580896.64847  -9782768.03243  23223070.2304   23223066.3394
 -37845572.48849 -29469511.93046  21236806.9564   21236804.3584
 -20436674.72748 -15905280.65843  22755339.1834   22755337.7144
 -21608941.42248 -16816545.91443  22481485.0034   22481483.2264
 04  7 29  0 13 29.9990000  0  7G 1G23G13G19G27G 3G 8
 -54602914.91047 -42527196.86343  22824665.6204   22824664.1984
 -56756556.37549 -44205641.70045  21606705.6204   21606700.2884
 -50534561.87549 -39358126.22546  20038977.9644   20038974.0544
 -12713657.06646  -9886217.63443  23197807.3624   23197802.5464
 -37941576.16449 -29544319.98346  21218537.6444   21218535.0224
 -20508330.91047 -15961116.64343  22741703.5424   22741701.0974
 -21740808.57847 -16919299.49643  22456391.8784   22456389.6634
 04  7 29  0 13 59.9990000  0  7G 1G23G13G19G27G 3G 8
 -54583991.27347 -42512451.21243  22828266.7764   22828265.4804
 -56746898.76249 -44198116.30945  21608543.9094   21608538.3234
 -50599999.89149 -39409116.88646  20026525.6984   20026522.2334
 -12846108.07847  -9989426.18143  23172602.3704   23172597.7884
 -38037409.39549 -29618995.21646  21200301.5734   21200299.0624
 -20579404.75448 -16016498.83643  22728178.3944   22728176.2654
 -21872498.02748 -17021914.63844  22431331.9804   22431329.8974
 04  7 29  0 14 29.9990000  0  7G 1G23G13G19G27G 3G 8
 -54564761.71947 -42497467.18043  22831926.2764   22831924.6284
 -56736853.76648 -44190289.07845  21610455.0974   21610449.9604
 -50664944.43048 -39459723.01447  20014167.3394   20014163.7764
 -12978238.37547 -10092384.78943  23147459.4014   23147454.6284
 -38133063.71548 -29693531.03946  21182099.0264   21182096.2334
 -20649886.69147 -16071419.80743  22714766.3314   22714764.1404
 -22004000.88748 -17124384.34944  22406307.9564   22406305.5504
 04  7 29  0 14 59.9990000  0  7G 1G23G13G19G27G 3G 8
 -54545219.21947 -42482239.30043  22835645.0264   22835643.8154
 -56726414.23049 -44182154.40044  21612441.6754   21612436.5504
 -50729386.44948 -39509937.57747  20001904.3704   20001900.6674
 -13110036.83248 -10195084.81343  23122378.0654   23122373.9444
 -38228531.27748 -29767921.33346  21163931.8084   21163929.2964
 -20719767.88347 -16125872.64442  22701468.2614   22701466.2264
 -22135308.93748 -17226702.27743  22381321.1364   22381319.1554
 04  7 29  0 15 29.9990000  0  7G 1G23G13G19G27G 3G 8
 -54525369.17647 -42466771.79343  22839422.9254   22839420.8474
 -56715585.54349 -44173716.48644  21614502.8394   21614497.2414
 -50793329.17649 -39559763.07647  19989736.3554   19989732.4724
 -13241505.23847 -10297527.68743  23097360.2534   23097356.4134
 -38323816.78949 -29842169.76646  21145799.8234   21145797.2494
 -20789051.86747 -16179860.15642  22688283.8394   22688281.9604
 -22266427.23848 -17328872.32643  22356369.6054   22356367.6874
 04  7 29  0 15 59.9990000  0  7G 1G23G13G19G27G 3G 8
 -54505213.14147 -42451065.84943  22843257.9334   22843256.4334
 -56704369.36749 -44164976.63944  21616637.2144   21616631.4404
 -50856772.30949 -39609199.28046  19977663.7064   19977659.8194
 -13372641.10547 -10399711.41043  23072405.9014   23072402.1754
 -38418920.77349 -29916276.75346  21127702.0424   21127699.4994
 -20857738.33647 -16233382.07143  22675213.6984   22675211.3194
 -22397356.08248 -17430894.76443  22331454.9804   22331452.3394
 04  7 29  0 16 29.9990000  0  7G 1G23G13G19G27G 3G 8
 -54484750.84047 -42435121.23643  22847151.6514   22847150.3824
 -56692765.11349 -44155934.38444  21618844.9954   21618839.8434
 -50919713.59848 -39658244.43446  19965686.0584   19965682.6474
 -13503440.43747 -10501632.92443  23047515.7764   23047511.9684
 -38513842.26648 -29990241.53446  21109639.2764   21109636.7454
 -20925825.47347 -16286436.97343  22662256.7064   22662254.9254
 -22528094.12148 -17532768.51644  22306576.2764   22306573.8744
 04  7 29  0 16 59.9990000  0  8G10G 1G23G13G19G27G 3G 8
   -214233.52755   -146944.18051  24353220.7924   24353219.1474
 -54463991.57447 -42418945.23143  22851102.2304   22851101.0974
 -56680782.31649 -44146597.16845  21621125.5114   21621120.1014
 -50982160.43049 -39706904.29747  19953802.9644   19953799.1674
 -13633908.67248 -10603296.43143  23022688.6204   23022684.3314
 -38608589.59849 -30064070.62046  21091609.3704   21091606.8744
 -20993320.80947 -16339030.71243  22649412.7534   22649410.5934
 -22658649.82448 -17634500.20044  22281732.5424   22281730.1554
 04  7 29  0 17 29.9990000  0  8G10G 1G23G13G19G27G 3G 8
   -354233.55946   -256035.08541  24326579.8944   24326578.3394
 -54442951.00847 -42402550.03443  22855105.3004   22855104.6514
 -56668436.60549 -44136977.17744  21623475.1204   21623469.4444
 -51044126.59849 -39755189.62547  19942011.0974   19942007.7454
 -13764057.64147 -10704711.17543  22997921.8314   22997917.6944
 -38703177.84049 -30137775.74346  21073610.0034   21073607.0424
 -21060238.37947 -16391174.25443  22636679.1594   22636676.5384
 -22789037.46148 -17736100.91944  22256920.0344   22256918.2064
 04  7 29  0 17 59.9990000  0  9G10G 1G28G23G13G19G27G 3G 8
   -493819.82445   -364803.56042  24300016.9954   24300016.0624
 -54421637.18047 -42385941.90042  22859162.0194   22859160.7024
   -254155.06555   -174450.32041  24418939.3004   24418938.5154
 -56655735.91049 -44127080.55144  21625892.0034   21625886.4914
 -51105618.24649 -39803105.18746  19930309.7614   19930306.2844
 -13893891.66047 -10805880.49643  22973215.0974   22973211.7614
 -38797614.14849 -30211362.46546  21055639.4334   21055636.2534
 -21126584.53547 -16442872.56643  22624053.8394   22624051.4994
 -22919264.19148 -17837576.26644  22232138.7614   22232136.8824
 04  7 29  0 18 29.9990000  0  9G10G 1G28G23G13G19G27G 3G 8
   -633002.58645   -473257.55142  24273531.3864   24273530.1444
 -54400063.66447 -42369131.40043  22863267.3554   22863265.9334
   -420648.03546   -304184.98141  24387257.1444   24387256.3274
 -56642693.91048 -44116917.98644  21628373.9174   21628368.6404
 -51166646.72749 -39850659.83646  19918696.3154   19918692.5224
 -14023420.36348 -10906811.91243  22948567.0194   22948562.9254
 -38891911.16849 -30284840.65446  21037695.0734   21037692.2144
 -21192371.05947 -16494134.76642  22611534.7304   22611532.8474
 -23049342.84448 -17938936.20344  22207385.4014   22207383.3044
 04  7 29  0 18 59.9990000  0  9G10G 1G28G23G13G19G27G 3G 8
   -771789.69946   -581403.34442  24247121.5034   24247119.8704
 -54378241.68447 -42352127.29643  22867420.2694   22867418.3784
   -587030.55146   -433833.53042  24355595.7764   24355594.3354
 -56629321.64848 -44106498.06145  21630918.0424   21630913.0074
 -51227221.45749 -39897860.92646  19907169.3784   19907165.5344
 -14152651.15647 -11007511.15543  22923975.3944   22923971.1874
 -38986079.18449 -30358218.31946  21019775.3624   21019772.7304
 -21257607.34047 -16544968.21242  22599120.9644   22599118.3784
 -23179283.13348 -18040188.33544  22182658.7534   22182656.7494
 04  7 29  0 19 29.9990000  0  9G10G 1G28G23G13G19G27G 3G 8
   -910168.12545   -689230.60842  24220788.2924   24220787.2654
 -54356161.38747 -42334921.93243  22871622.0894   22871620.2764
   -753289.80145   -563385.98641  24323956.6984   24323956.1514
 -56615609.19948 -44095813.07444  21633526.9954   21633522.2494
 -51287330.55149 -39944699.17747  19895731.0974   19895727.4444
 -14281570.13746 -11107967.48143  22899442.6834   22899438.6244
 -39080107.44549 -30431487.09446  21001882.4874   21001879.6244
 -21322281.91847 -16595363.95943  22586813.6204   22586811.3394
 -23309074.28947 -18141324.26644  22157960.2224   22157958.2574
 04  7 29  0 19 59.9990000  0  9G10G 1G28G23G13G19G27G 3G 8
  -1048139.81246   -796740.90442  24194533.0974   24194531.4294
 -54333827.87947 -42317519.24142  22875872.4404   22875870.5074
   -919428.52746   -692844.55941  24292341.3004   24292341.1444
 -56601561.94148 -44084867.17544  21636200.3864   21636195.5154
 -51346977.28949 -39991177.14647  19884380.5734   19884376.6714
 -14410178.81247 -11208181.97343  22874968.9954   22874964.8044
 -39174000.24649 -30504650.29946  20984015.3004   20984012.4054
 -21386398.68448 -16645325.07543  22574612.8314   22574610.5424
 -23438720.10248 -18242346.94644  22133289.5114   22133287.4054
 04  7 29  0 20 29.9990000  0  9G10G 1G28G23G13G19G27G 3G 8
  -1185690.80946   -903923.49242  24168357.8314   24168356.7844
 -54311230.66447 -42299911.07243  22880171.5504   22880169.9764
  -1085433.23846   -822198.67941  24260751.9804   24260751.1444
 -56587169.32848 -44073652.18144  21638939.4564   21638934.2764
 -51406149.30549 -40037285.19946  19873120.6204   19873116.8864
 -14538462.91447 -11308143.57543  22850557.7304   22850553.2454
 -39267746.19149 -30577699.07146  20966175.9954   20966173.3584
 -21449945.36347 -16694841.96943  22562519.8554   22562518.1634
 -23568209.30948 -18343247.61244  22108648.9254   22108646.3944
 04  7 29  0 20 59.9990000  0  9G10G 1G28G23G13G19G27G 3G 8
  -1322817.68446  -1010775.55041  24142263.9564   24142262.1444
 -54288369.59847 -42282097.29942  22884522.0974   22884520.7614
  -1251301.13745   -951446.19041  24229188.1674   24229187.4374
 -56572431.14848 -44062167.91044  21641744.5654   21641739.0224
 -51464844.42649 -40083021.65847  19861951.4564   19861947.4764
 -14666418.18448 -11407848.92943  22826208.2454   22826203.9804
 -39361344.04749 -30650632.46346  20948364.8154   20948361.8944
 -21512920.00447 -16743913.11043  22550536.3474   22550533.9174
 -23697540.91848 -18444025.45444  22084037.5114   22084035.2724
 04  7 29  0 21 29.9990000  0  9G10G 1G28G23G13G19G27G 3G 8
  -1459519.36346  -1117296.29542  24116250.7304   24116248.7024
 -54265246.78947 -42264079.56642  22888922.3474   22888920.7804
  -1417031.47746  -1080586.50541  24197651.1124   24197649.2654
 -56557349.40248 -44050415.92544  21644614.0814   21644608.9804
 -51523062.62949 -40128386.48946  19850872.5114   19850868.6514
 -14794043.12547 -11507296.89443  22801921.7144   22801918.1014
 -39454795.14549 -30723451.49146  20930581.7304   20930579.1944
 -21575323.18447 -16792538.92343  22538661.5814   22538659.4684
 -23826715.52048 -18544680.97044  22059456.6054   22059454.0774
 04  7 29  0 21 59.9990000  0  9G10G 1G28G23G13G19G27G 3G 8
  -1595787.83646  -1223479.45742  24090319.1674   24090317.9724
 -54241857.54347 -42245854.24742  22893373.3704   22893371.3624
  -1582616.85946  -1209613.85341  24166140.9254   24166139.2844
 -56541919.50448 -44038392.65544  21647550.2924   21647545.3004
 -51580797.66849 -40173374.82446  19839885.9094   19839882.3664
 -14921329.03947 -11606480.67343  22777700.3314   22777696.0544
 -39548093.62149 -30796151.58446  20912827.5194   20912824.9874
 -21637148.71947 -16840714.66343  22526896.3084   22526894.3584
 -23955727.28548 -18645209.60444  22034906.5504   22034904.1284
 04  7 29  0 22 29.9990000  0  9G10G 1G28G23G13G19G27G 3G 8
  -1731617.03946  -1329320.35942  24064472.4404   24064469.9604
 -54218199.19547 -42227419.22042  22897874.7764   22897873.9134
  -1748051.67246  -1338523.95641  24134658.4804   24134658.3124
 -56526138.78549 -44026096.01944  21650553.2764   21650548.1164
 -51638044.80149 -40217982.98946  19828992.3154   19828988.5504
 -15048269.17247 -11705395.03943  22753544.6204   22753540.2144
 -39641235.84449 -30868729.93246  20895103.3154   20895100.3704
 -21698392.05548 -16888436.72843  22515242.8704   22515239.7064
 -24084572.08648 -18745608.13244  22010387.9334   22010385.8944
 04  7 29  0 22 59.9990000  0  9G10G 1G28G23G13G19G27G 3G 8
  -1867007.74246  -1434819.55742  24038707.9564   24038706.1204
 -54194276.14547 -42208777.92642  22902427.4014   22902426.1324
  -1913337.69946  -1467318.05642  24103205.9094   24103204.8514
 -56510011.45748 -44013529.27944  21653622.5114   21653616.8944
 -51694806.41449 -40262212.81246  19818190.8554   19818187.3354
 -15174864.36347 -11804040.57043  22729454.5504   22729449.9374
 -39734225.27049 -30941189.21046  20877407.9014   20877405.0224
 -21759056.20748 -16935707.48043  22503698.3624   22503695.8944
 -24213253.91048 -18845879.66544  21985900.7694   21985898.0774
 04  7 29  0 23 29.9990000  0  9G10G 1G28G23G13G19G27G 3G 8
  -2001956.28546  -1539974.23041  24013028.9724   24013026.3664
 -54170087.36747 -42189929.53842  22907030.6054   22907029.5114
  -2078471.27746  -1595993.39642  24071782.1834   24071781.1404
 -56493536.72349 -44000691.85544  21656757.7764   21656752.1014
 -51751079.78949 -40306062.19946  19807482.4334   19807478.5854
 -15301109.67648 -11902413.50543  22705430.3234   22705425.9214
 -39827059.91449 -31013527.88546  20859742.0974   20859739.2264
 -21819138.56648 -16982524.92743  22492264.9874   22492262.7924
 -24341769.97348 -18946022.04244  21961445.0504   21961442.3944
 04  7 29  0 23 59.9990000  0  9G10G 1G28G23G13G19G27G 3G 8
  -2136462.48046  -1644784.19742  23987432.5504   23987430.6674
 -54145636.27347 -42170876.85042  22911684.0894   22911682.1834
  -2243453.02346  -1724550.39042  24040386.8784   24040385.5304
 -56476717.87948 -43987586.29944  21659958.1984   21659952.2884
 -51806866.32849 -40349532.23247  19796866.8394   19796863.0894
 -15427004.59448 -12000513.39943  22681472.9804   22681469.2024
 -39919742.25049 -31085747.87246  20842105.1984   20842102.5464
 -21878641.17248 -17028890.58143  22480941.9874   22480939.9014
 -24470123.10248 -19046037.43744  21937019.9174   21937017.6364
 04  7 29  0 24 29.9980000  0  9G10G 1G28G23G13G19G27G 3G 8
  -2270519.52746  -1749244.15642  23961922.4204   23961920.6474
 -54120924.56247 -42151621.00842  22916386.5844   22916384.4794
  -2408275.50046  -1852983.23042  24009022.1314   24009020.8424
 -56459556.59848 -43974213.89944  21663224.2404   21663218.3654
 -51862163.18749 -40392620.69246  19786343.8814   19786340.0924
 -15552542.20347 -12098334.87843  22657584.4434   22657579.8264
 -40012268.88349 -31157846.53446  20824498.2254   20824495.1784
 -21937561.39848 -17074802.44543  22469729.8974   22469727.8504
 -24598308.50448 -19145922.15144  21912626.9124   21912625.1354
 04  7 29  0 24 59.9980000  0  9G10G 1G28G23G13G19G27G 3G 8
  -2404129.88746  -1853356.09842  23936496.7954   23936495.0614
 -54095947.25847 -42132158.23142  22921139.2174   22921137.8894
  -2572943.67646  -1981296.02942  23977686.1784   23977685.5414
 -56442048.25448 -43960571.05244  21666555.2644   21666549.9824
 -51916968.81649 -40435326.37547  19775914.8654   19775910.9984
 -15677723.40247 -12195878.62843  22633763.3974   22633758.5454
 -40104641.71949 -31229825.35746  20806919.8574   20806917.6314
 -21995898.48848 -17120259.92543  22458628.4514   22458626.5454
 -24726330.09448 -19245679.20744  21888265.4284   21888263.3774
 04  7 29  0 25 29.9980000  0  9G10G 1G28G23G13G19G27G 3G 8
  -2537289.17646  -1957116.53842  23911157.9124   23911155.2644
 -54070708.62947 -42112491.82142  22925942.2954   22925940.5644
  -2737452.46946  -2109484.48142  23946381.2484   23946379.9824
 -56424196.71148 -43946660.77344  21669951.8344   21669947.4904
 -51971282.80149 -40477648.95847  19765579.1474   19765575.6934
 -15802543.68448 -12293141.13943  22610010.3574   22610006.1934
 -40196859.78549 -31301683.58646  20789371.4904   20789368.4284
 -22053652.04348 -17165262.68443  22447637.9364   22447636.1274
 -24854185.84848 -19345307.03644  21863935.2094   21863932.9044
 04  7 29  0 25 59.9980000  0  9G10G 1G28G23G13G19G27G 3G 8
  -2669994.28546  -2060523.11342  23885904.3264   23885902.5454
 -54045208.78947 -42092621.86842  22930794.4044   22930793.1044
  -2901799.52046  -2237546.95042  23915107.4674   23915105.8424
 -56406002.32848 -43932483.36044  21673414.7564   21673409.3544
 -52025103.54349 -40519587.20847  19755337.5064   19755333.7014
 -15926999.50448 -12390119.67043  22586327.5614   22586323.2684
 -40288922.31649 -31373420.61146  20771852.7254   20771849.7054
 -22110820.88348 -17209809.84443  22436759.8264   22436757.2404
 -24981874.81248 -19444804.90444  21839636.9434   21839634.8774
 04  7 29  0 26 29.9980000  0  9G10G 1G28G23G13G19G27G 3G 8
  -2802244.35546  -2163575.02042  23860738.0764   23860736.1704
 -54019450.14547 -42072550.26142  22935696.4754   22935694.7294
  -3065984.28946  -2365483.02542  23883864.1474   23883862.6114
 -56387467.68048 -43918040.81544  21676942.0064   21676936.0334
 -52078431.92249 -40561141.79146  19745189.3654   19745185.6624
 -16051089.14547 -12486812.83543  22562713.8184   22562709.5374
 -40380830.74249 -31445037.56346  20754363.0534   20754360.3654
 -22167406.20748 -17253902.29943  22425992.0224   22425989.3544
 -25109398.20748 -19544173.75944  21815370.2174   21815368.0254
 04  7 29  0 26 59.9980000  0  9G10G 1G28G23G13G19G27G 3G 8
  -2934036.45347  -2266270.13242  23835659.2174   23835657.2914
 -53993433.23847 -42052277.40542  22940647.4514   22940645.3424
  -3230004.50046  -2493290.76942  23852651.1934   23852650.6154
 -56368593.05548 -43903333.34044  21680533.4204   21680528.3464
 -52131265.96949 -40602311.17247  19735135.4824   19735131.7324
 -16174809.29347 -12583218.09643  22539170.1934   22539166.2914
 -40472584.28149 -31516533.81446  20736902.9364   20736900.0844
 -22223406.79748 -17297539.12343  22415335.6544   22415332.9004
 -25236755.07449 -19643412.84344  21791134.8034   21791132.5254
 04  7 29  0 27 29.9980000  0  9G10G 1G28G23G13G19G27G 3G 8
  -3065365.16046  -2368604.10142  23810667.4434   23810665.7684
 -53967155.85947 -42031801.57842  22945647.6314   22945646.7014
  -3393854.95346  -2620966.35242  23821471.1864   23821470.9514
 -56349376.06648 -43888359.08344  21684190.3264   21684185.3464
 -52183601.61349 -40643092.20247  19725176.0684   19725172.5614
 -16298153.85547 -12679330.69644  22515699.0844   22515694.6624
 -40564179.64149 -31587906.80746  20719473.0454   20719469.8384
 -22278819.30148 -17340717.69343  22404790.4904   22404788.1784
 -25363941.86748 -19742519.40344  21766931.8654   21766929.3304
 04  7 29  0 27 59.9980000  0  9G10G 1G28G23G13G19G27G 3G 8
  -3196226.66446  -2470574.09542  23785766.2724   23785763.7524
 -53940617.15647 -42011122.14842  22950698.0294   22950696.2644
  -3557532.26246  -2748506.90042  23790324.7874   23790324.0024
 -56329816.15649 -43873117.62144  21687913.0684   21687907.4394
 -52235436.27049 -40683482.83946  19715312.4984   19715308.6114
 -16421118.11747 -12775146.97043  22492299.7644   22492295.3344
 -40655614.77749 -31659154.96246  20702073.3974   20702070.7094
 -22333641.41448 -17383436.23343  22394358.6314   22394356.2954
 -25490956.43448 -19841491.75944  21742761.5454   21742759.8544
 04  7 29  0 28 29.9980000  0  9G10G 1G28G23G13G19G27G 3G 8
  -3326620.60946  -2572179.75342  23760952.4204   23760950.7324
 -53913820.09046 -41990241.40542  22955796.1394   22955795.7404
  -3721036.60547  -2875912.77842  23759211.0684   23759209.8344
 -56309916.24248 -43857611.22144  21691699.0064   21691694.3184
 -52286771.43449 -40723484.26647  19705543.7874   19705540.1934
 -16543701.22748 -12870666.24043  22468972.5064   22468968.2444
 -40746891.46549 -31730279.64446  20684703.8894   20684701.0644
 -22387874.79748 -17425696.00943  22384037.9754   22384035.9904
 -25617800.96148 -19940331.62344  21718623.8894   21718621.4244
 04  7 29  0 28 59.9980000  0  9G10G 1G28G23G13G19G27G 3G 8
  -3456540.84846  -2673416.27842  23736229.0764   23736227.6394
 -53886761.80147 -41969157.03542  22960946.4594   22960945.1274
  -3884362.06247  -3003179.19342  23728130.9984   23728129.8654
 -56289673.52748 -43841837.71144  21695551.7794   21695546.4164
 -52337602.18049 -40763092.64446  19695870.8734   19695867.1394
 -16665896.43047 -12965883.22543  22445719.7564   22445715.5294
 -40838005.85549 -31801277.86046  20667365.3974   20667362.3424
 -22441515.05548 -17467493.60443  22373830.4364   22373828.6194
 -25744471.17648 -20039035.65944  21694519.3424   21694516.9204
 04  7 29  0 29 29.9980000  0  9G10G 1G28G23G13G19G27G 3G 8
  -3585987.94947  -2774284.17142  23711596.4674   23711594.4944
 -53859446.24646 -41947872.24442  22966144.1314   22966143.3774
  -4047509.88747  -3130307.19342  23697085.1074   23697083.6934
 -56269091.79348 -43825800.01344  21699468.2644   21699462.6704
 -52387930.71549 -40802309.67347  19686293.7014   19686289.8814
 -16787703.91847 -13060798.09443  22422540.4594   22422535.9984
 -40928960.52349 -31872151.61946  20650057.3264   20650054.6434
 -22494564.86748 -17508831.11743  22363735.9824   22363733.8074
 -25870969.52749 -20137605.76244  21670447.5224   21670445.3144
 04  7 29  0 29 59.9980000  0  9G10G 1G28G23G13G19G27G 3G 8
  -3714965.97346  -2874786.40042  23687052.2954   23687051.4004
 -53831880.87946 -41926392.83242  22971391.0764   22971388.6824
  -4210484.81647  -3257300.46942  23666071.7014   23666070.0884
 -56248178.64548 -43809504.08944  21703447.7324   21703442.5494
 -52437762.32049 -40841139.50047  19676811.2324   19676807.4944
 -16909127.25847 -13155413.63843  22399434.0534   22399430.1044
 -41019761.81249 -31942905.85746  20632778.2174   20632775.6864
 -22547030.39848 -17549713.35443  22353751.9434   22353749.3264
 -25997302.08249 -20236046.67344  21646407.5764   21646405.2294
 04  7 29  0 30 29.9980000  0  9G10G 1G28G23G13G19G27G 3G 8
  -3843463.83246  -2974914.63042  23662600.1784   23662598.5534
 -53804057.75446 -41904712.51042  22976683.9124   22976683.1784
  -4373275.95347  -3384150.54242  23635093.1314   23635091.9824
 -56226926.13348 -43792943.71644  21707491.7874   21707487.1314
 -52487087.41449 -40879574.63847  19667425.2094   19667421.3304
 -17030154.57847 -13249720.61643  22376403.7484   22376398.9984
 -41110400.61749 -32013533.49546  20615530.2644   20615527.3424
 -22598902.39848 -17590133.09543  22343880.7954   22343877.9324
 -26123459.89548 -20334351.43744  21622400.1624   21622398.0104
 04  7 29  0 30 59.9980000  0  9G10G 1G28G23G13G19G27G 3G 8
  -3971483.67246  -3074670.28342  23638239.2014   23638237.2994
 -53775981.91047 -41882835.30742  22982027.2404   22982026.3774
  -4535885.40247  -3510859.01542  23604149.7174   23604148.6434
 -56205339.29748 -43776122.83344  21711600.3574   21711594.8774
 -52535909.10949 -40917617.51947  19658134.5534   19658130.9044
 -17150787.20748 -13343719.99443  22353448.1074   22353443.5614
 -41200880.73849 -32084037.47346  20598312.8264   20598309.8934
 -22650184.41848 -17630093.10443  22334122.1704   22334119.7794
 -26249446.54748 -20432522.81844  21598425.9594   21598423.5104
 04  7 29  0 31 29.9980000  0  9G10G 1G28G23G13G19G27G 3G 8
  -4099020.45746  -3174049.51642  23613969.3114   23613968.0454
 -53747651.57447 -41860759.81142  22987419.1314   22987417.3694
  -4698308.74647  -3637422.50042  23573241.5614   23573239.9754
 -56183416.41448 -43759040.09844  21715771.6004   21715766.5644
 -52584223.96549 -40955265.47047  19648940.4284   19648936.7754
 -17271019.44947 -13437407.43043  22330568.2954   22330563.9984
 -41291199.10249 -32154415.40446  20581125.6004   20581122.8144
 -22700873.70748 -17669591.25643  22324476.2014   22324473.8034
 -26375258.71948 -20530558.25744  21574484.6074   21574482.5224
 04  7 29  0 31 59.9980000  0  9G10G 1G28G23G13G19G27G 3G 8
  -4226073.46146  -3273051.83442  23589792.1704   23589789.8074
 -53719069.43446 -41838488.06142  22992856.6864   22992856.5374
  -4860545.96547  -3763840.94542  23542368.8034   23542366.7364
 -56161160.20348 -43741697.61844  21720006.9284   21720001.9754
 -52632032.84449 -40992519.12646  19639842.4824   19639839.0184
 -17390850.11347 -13530781.92143  22307765.4364   22307761.0454
 -41381357.02749 -32224668.32746  20563969.1624   20563966.3184
 -22750971.44547 -17708628.46943  22314942.8814   22314940.7054
 -26500898.33248 -20628459.21644  21550575.9824   21550573.5924
 04  7 29  0 32 29.9980000  0  9G10G 1G28G23G13G19G27G 3G 8
  -4352641.84046  -3371676.47542  23565707.5534   23565704.7294
 -53690237.56246 -41816021.72042  22998343.3574   22998343.2054
  -5022596.11747  -3890113.69142  23511531.4904   23511529.7724
 -56138572.59848 -43724096.92844  21724305.3264   21724300.0964
 -52679336.34449 -41029379.00547  19630841.4824   19630837.4084
 -17510277.44547 -13623842.13943  22285038.5614   22285034.6234
 -41471355.57449 -32294797.04846  20546843.0064   20546839.9364
 -22800478.79747 -17747205.60842  22305522.2324   22305520.0964
 -26626365.83248 -20726226.07844  21526700.2954   21526697.9794
 04  7 29  0 32 59.9980000  0  9G10G 1G28G23G13G19G27G 3G 8
  -4478719.67245  -3469918.93742  23541715.2564   23541712.9794
 -53661153.54346 -41793358.95742  23003878.6784   23003877.8264
  -5184453.88347  -4016236.40142  23480731.0144   23480729.5414
 -56115651.50048 -43706236.36344  21728666.7404   21728661.9124
 -52726129.75849 -41065841.40347  19621936.8034   19621933.2684
 -17629295.35947 -13716583.33643  22262390.6394   22262386.1934
 -41561190.98849 -32364798.66646  20529748.0454   20529744.9824
 -22849391.95748 -17785319.78743  22296214.3344   22296212.1114
 -26751657.17248 -20823855.66644  21502857.9824   21502855.9864
 04  7 29  0 33 29.9980000  0  9G10G 1G28G23G13G19G27G 3G 8
  -4604310.26645  -3567781.67642  23517815.9434   23517814.3034
 -53631823.87947 -41770504.70842  23009459.9754   23009459.0254
  -5346123.03547  -4142212.28142  23449966.3814   23449964.4434
 -56092403.49648 -43688121.07444  21733091.2954   21733086.1784
 -52772417.79349 -41101910.00247  19613128.4044   19613124.6504
 -17747906.37147 -13809007.45743  22239819.7874   22239814.9794
 -41650868.39149 -32434677.14746  20512682.7954   20512680.0574
 -22897716.12948 -17822974.96343  22287018.5294   22287016.3144
 -26876778.11748 -20921352.47944  21479048.5844   21479045.8774
 04  7 29  0 33 59.9980000  0  9G10G 1G28G23G13G19G27G 3G 8
  -4729405.41045  -3665258.36642  23494011.5294   23494009.3034
 -53602243.19146 -41747454.93742  23015089.2094   23015088.1394
  -5507595.66047  -4268034.93142  23419238.8264   23419237.5064
 -56068823.29748 -43669746.91644  21737578.1074   21737573.1864
 -52818193.93449 -41137579.73347  19604417.4984   19604413.6234
 -17866101.46147 -13901107.49843  22217328.5224   22217323.6474
 -41740381.33249 -32504427.47446  20495648.8734   20495646.1194
 -22945444.94148 -17860166.26443  22277935.8184   22277933.5884
 -27001721.51248 -21018710.95444  21455272.3344   21455269.9864
 04  7 29  0 34 29.9980000  0  9G10G 1G28G23G13G19G27G 3G 8
  -4854006.78145  -3762350.25742  23470299.8894   23470298.3854
 -53572416.69146 -41724213.52342  23020764.8034   23020763.4754
  -5668873.80147  -4393706.04542  23388548.9514   23388546.9044
 -56044915.78148 -43651117.74044  21742127.6004   21742122.4394
 -52863461.37149 -41172853.05947  19595803.4284   19595799.4044
 -17983881.83647 -13992884.35343  22194915.0224   22194910.6624
 -41829733.32049 -32574052.40046  20478645.7484   20478643.3074
 -22992582.13748 -17896896.53543  22268966.0144   22268964.0414
 -27126491.02348 -21115933.91744  21431529.9904   21431527.2564
 04  7 29  0 34 59.9980000  0  9G10G 1G28G23G13G19G27G 3G 8
  -4978114.12945  -3859057.28442  23446683.0144   23446681.3184
 -53542346.93746 -41700782.66042  23026486.4674   23026486.6354
  -5829957.27047  -4519225.49542  23357895.1154   23357893.6114
 -56020683.80948 -43632235.71344  21746738.4284   21746733.6504
 -52908220.67649 -41207730.44747  19587285.9594   19587282.1044
 -18101246.34448 -14084337.17944  22172581.4594   22172576.6894
 -41918926.06249 -32643553.23246  20461673.0224   20461669.9324
 -23039129.30947 -17933167.05843  22260108.3654   22260106.1274
 -27251088.29748 -21213022.67744  21407819.7794   21407816.9244
 04  7 29  0 35 29.9980000  0  9G10G 1G28G23G13G19G27G 3G 8
  -5101723.76246  -3955376.41942  23423160.9364   23423159.7444
 -53512033.21946 -41677161.67342  23032255.2644   23032254.2014
  -5990842.53147  -4644590.56242  23327280.1784   23327278.3034
 -55996126.75448 -43613100.39644  21751411.8184   21751407.0494
 -52952469.56649 -41242210.10946  19578865.9204   19578862.1744
 -18218190.56648 -14175462.52444  22150327.2484   22150323.3184
 -42007957.24649 -32712928.16746  20444730.9204   20444728.1504
 -23085084.64148 -17968976.43142  22251362.9044   22251361.1784
 -27375510.82048 -21309975.26644  21384142.5374   21384140.3344
 04  7 29  0 35 59.9980000  0  9G10G 1G28G23G13G19G27G 3G 8
  -5224831.95746  -4051304.83842  23399734.2094   23399733.1154
 -53481475.38346 -41653350.40242  23038070.6544   23038069.3974
  -6151526.47347  -4769798.65442  23296702.4364   23296700.4984
 -55971244.25448 -43593711.46744  21756146.9984   21756141.8574
 -52996206.08649 -41276290.51347  19570542.9594   19570539.2134
 -18334710.16448 -14266256.96844  22128154.0924   22128149.9434
 -42096825.32849 -32782176.02446  20427819.7874   20427816.7794
 -23130446.78948 -18004323.55243  22242731.4364   22242729.0104
 -27499757.23048 -21406790.63944  21360499.2094   21360496.6894
 04  7 29  0 36 29.9970000  0  9G10G 1G28G23G13G19G27G 3G 8
  -5347439.68746  -4146843.30742  23376402.7434   23376401.2904
 -53450682.82446 -41629356.29742  23043929.8454   23043929.3494
  -6312009.38347  -4894850.19542  23266163.8454   23266161.3174
 -55946045.60948 -43574076.19744  21760941.7204   21760936.6384
 -53039435.25049 -41309975.57846  19562316.6344   19562313.0134
 -18450805.88748 -14356721.12243  22106061.9234   22106057.9584
 -42185534.29349 -32851299.87446  20410939.3604   20410936.5954
 -23175221.50847 -18039212.91543  22234210.9544   22234208.5914
 -27623830.19548 -21503470.84144  21336889.2744   21336886.3964
 04  7 29  0 36 59.9970000  0  9G10G 1G28G23G13G19G27G 3G 8
  -5469547.20346  -4241992.00642  23353166.5794   23353165.3924
 -53419648.53145 -41605173.82542  23049835.4464   23049834.6574
  -6472294.07047  -5019747.24842  23235662.5404   23235660.2674
 -55920524.21148 -43554189.43244  21765798.5794   21765793.7084
 -53082153.53549 -41343262.55547  19554187.5174   19554183.8254
 -18566476.93048 -14446854.36244  22084050.7204   22084046.5524
 -42274083.78949 -32920299.48346  20394088.7124   20394085.6654
 -23219405.74247 -18073642.20543  22225803.1424   22225800.9274
 -27747731.50848 -21600017.29544  21313311.4384   21313309.2044
 04  7 29  0 37 29.9970000  0  9G10G 1G28G23G13G19G27G 3G 8
  -5591147.91846  -4336745.70742  23330026.7824   23330025.0714
 -53388373.91046 -41580804.04842  23055786.4784   23055786.2904
  -6632372.67646  -5144483.70742  23205199.5244   23205198.2674
 -55894681.51248 -43534052.28544  21770716.8764   21770711.0484
 -53124358.03949 -41376149.19047  19546156.4074   19546152.6304
 -18681716.02348 -14536651.03844  22062121.3684   22062116.7164
 -42362469.68449 -32989171.59246  20377269.4544   20377266.4384
 -23262997.27748 -18107609.64143  22217507.6574   22217505.6344
 -27871456.03548 -21696426.00044  21289767.2434   21289765.0014
 04  7 29  0 37 59.9970000  0  9G10G 1G28G23G13G19G27G 3G 8
  -5712241.05546  -4431103.92542  23306983.3214   23306981.9274
 -53356861.76245 -41556249.19742  23061783.1104   23061783.3564
  -6792245.25847  -5269059.65142  23174777.7284   23174775.1034
 -55868520.06648 -43513666.77744  21775694.4074   21775690.0284
 -53166049.89549 -41408636.35447  19538222.6814   19538219.1654
 -18796522.09448 -14626110.26644  22040274.6884   22040270.1694
 -42450693.38349 -33057917.32346  20360481.0634   20360478.3804
 -23305997.89548 -18141116.60343  22209325.2434   22209322.5054
 -27995005.24248 -21792698.09444  21266256.6734   21266254.4704
 04  7 29  0 38 29.9970000  0  9G10G 1G28G23G13G19G27G 3G 8
  -5832829.59446  -4525068.98842  23284035.9234   23284033.8884
 -53325117.69546 -41531513.64142  23067824.7984   23067823.3564
  -6951914.35946  -5393476.96442  23144393.3064   23144390.9464
 -55842045.61748 -43493037.39144  21780732.6814   21780727.6224
 -53207233.01249 -41440727.09146  19530385.9784   19530382.0174
 -18910896.88748 -14715233.45644  22018509.4934   22018505.1854
 -42538759.24249 -33126540.06646  20343722.6034   20343719.4384
 -23348412.37548 -18174166.83643  22201253.8994   22201251.3534
 -28118383.34049 -21888836.84144  21242778.4154   21242776.1034
 04  7 29  0 38 59.9970000  0  9G10G 1G28G23G13G19G27G 3G 8
  -5952907.94946  -4618636.54842  23261185.8534   23261184.4704
 -53293139.39846 -41506595.54442  23073909.8374   23073908.6034
  -7111374.83246  -5517731.78442  23114048.6264   23114047.1224
 -55815255.88748 -43472162.31144  21785830.7434   21785825.5284
 -53247903.34049 -41472418.26347  19522646.3844   19522642.7784
 -19024834.33648 -14804015.86144  21996828.1734   21996823.8564
 -42626663.35549 -33195036.78046  20326995.3374   20326992.1424
 -23390237.13348 -18206757.57343  22193294.7434   22193292.6304
 -28241585.73049 -21984838.67844  21219334.2744   21219331.6264
 04  7 29  0 39 29.9970000  0  9G10G 1G28G23G13G19G27G 3G 8
  -6072470.93046  -4711802.43042  23238433.7204   23238432.2634
 -53260924.86346 -41481493.41842  23080040.6034   23080038.9154
  -7270622.06646  -5641820.41642  23083744.7594   23083742.8604
 -55788149.04748 -43451040.12944  21790989.2434   21790983.7784
 -53288057.27049 -41503707.03747  19515005.5094   19515001.7124
 -19138328.67648 -14892452.96244  21975231.1494   21975226.2824
 -42714402.18049 -33263404.68846  20310299.2284   20310296.0174
 -23431469.14848 -18238886.44142  22185448.8844   22185446.3134
 -28364609.63749 -22080701.44144  21195923.5244   21195920.8494
 04  7 29  0 39 59.9970000  0  9G10G 1G28G23G13G19G27G 3G 8
  -6191520.82846  -4804568.58042  23215778.9074   23215777.8644
 -53228479.34046 -41456211.30142  23086213.6264   23086213.8564
  -7429658.28946  -5765744.57642  23053481.0484   23053478.9424
 -55760730.42648 -43429674.99544  21796206.2904   21796201.7784
 -53327698.39149 -41534596.22946  19507462.0324   19507458.2744
 -19251381.46948 -14980546.02744  21953717.5794   21953712.8254
 -42801979.84849 -33331647.02446  20293633.5244   20293630.6264
 -23472112.73448 -18270556.76743  22177714.7594   22177711.9354
 -28487458.54349 -22176427.84544  21172545.9544   21172543.7244
 04  7 29  0 40 29.9970000  0  9G10G 1G28G23G13G19G27G 3G 8
  -6310055.06646  -4896932.81242  23193223.0404   23193221.0754
 -53195803.51245 -41430749.63842  23092431.1494   23092431.7394
  -7588481.06646  -5889502.49742  23023258.2124   23023256.5094
 -55733000.65648 -43408067.42743  21801483.7984   21801478.0364
 -53366825.61349 -41565084.98246  19500016.4854   19500012.7434
 -19363989.62148 -15068292.59144  21932289.4384   21932284.0484
 -42889395.12149 -33399762.81046  20276998.8994   20276996.2004
 -23512167.62148 -18301768.37642  22170092.0634   22170090.4424
 -28610131.68748 -22272017.27344  21149201.7514   21149199.5674
 04  7 29  0 40 59.9970000  0  9G10G 1G28G23G13G19G27G 3G 8
  -6428068.98446  -4988891.73442  23170765.3064   23170764.0214
 -53162895.64846 -41405107.25742  23098694.4074   23098694.0284
  -7747086.10946  -6013090.71842  22993076.8534   22993074.8374
 -55704957.94148 -43386216.02444  21806819.9234   21806814.3844
 -53405435.71549 -41595170.78146  19492668.7594   19492665.3334
 -19476147.50048 -15155688.31944  21910946.3604   21910941.2084
 -42976644.93049 -33467749.67646  20260395.7674   20260393.1964
 -23551631.05548 -18332519.09942  22162582.5954   22162580.2714
 -28732625.89548 -22367467.28244  21125892.0324   21125889.6924
 04  7 29  0 41 29.9970000  0  9G10G 1G28G23G13G19G27G 3G 8
  -6545564.35946  -5080446.49342  23148407.2514   23148405.3334
 -53129760.73446 -41379287.96642  23104999.9624   23104999.2474
  -7905475.49246  -6136510.88342  22962935.9544   22962933.9744
 -55676607.44148 -43364124.75244  21812214.9314   21812209.2984
 -53443531.62549 -41624855.91346  19485419.8604   19485416.1424
 -19587856.31648 -15242734.13144  21889688.1734   21889683.6344
 -43063732.71549 -33535610.27546  20243823.7284   20243820.7044
 -23590507.07848 -18362812.10842  22155185.2204   22155182.8134
 -28854944.69948 -22462780.60944  21102615.2744   21102613.3844
 04  7 29  0 41 59.9970000  0  9G10G 1G28G23G13G19G27G 3G 8
  -6662533.03545  -5171590.88942  23126148.3294   23126146.5634
 -53096393.47346 -41353287.54242  23111349.3994   23111349.2314
  -8063640.98846  -6259756.62042  22932837.9154   22932836.2984
 -55647943.93748 -43341789.60243  21817669.5174   21817664.3104
 -53481106.78949 -41654135.27746  19478269.1734   19478265.6654
 -19699107.17648 -15329423.06944  21868518.3684   21868513.6464
 -43150651.68749 -33603339.33446  20227283.3294   20227280.7164
 -23628789.51248 -18392642.55543  22147900.1264   22147897.5604
 -28977081.01648 -22557951.73744  21079373.7594   21079371.1344
 04  7 29  0 42 29.9970000  0  9G10G 1G28G23G13G19G27G 3G 8
  -6778973.35546  -5262323.60342  23103991.2204   23103988.8804
 -53062795.33245 -41327107.24342  23117742.8374   23117742.3764
  -8221581.13746  -6382826.74842  22902783.0244   22902781.0834
 -55618968.81248 -43319211.63043  21823183.4624   21823178.0324
 -53518161.14549 -41683008.79746  19471218.2124   19471214.2354
 -19809897.71548 -15415753.33944  21847435.3844   21847431.0564
 -43237401.77349 -33670936.80346  20210775.2354   20210772.4504
 -23666479.02748 -18422011.00643  22140727.4624   22140725.8494
 -29099034.84448 -22652980.67344  21056166.6814   21056164.2044
 04  7 29  0 42 59.9970000  0  9G10G 1G28G23G13G19G27G 3G 8
  -6894888.95746  -5352647.39342  23081933.0714   23081930.9424
 -53028972.88746 -41300752.11842  23124179.9154   23124178.9114
  -8379299.59847  -6505724.14142  22872769.8064   22872768.1734
 -55589688.67648 -43296395.95343  21828755.3064   21828749.6734
 -53554699.48449 -41711480.24647  19464265.3764   19464261.4154
 -19920230.82848 -15501727.16844  21826439.4074   21826435.1494
 -43323988.10949 -33738406.65746  20194298.5404   20194295.8134
 -23703581.22348 -18450921.82643  22133667.3374   22133665.1924
 -29220811.48048 -22747871.53044  21032993.2514   21032990.9704
 04  7 29  0 43 29.9970000  0  9G10G 1G28G23G13G19G27G 3G 8
  -7010277.28146  -5442560.38942  23059974.7674   23059973.4584
 -52994926.75045 -41274222.80142  23130657.8374   23130657.5754
  -8536794.44146  -6628447.24542  22842800.0954   22842797.5014
 -55560104.30547 -43273343.24943  21834384.7204   21834379.7044
 -53590720.74649 -41739548.76346  19457410.3924   19457407.0754
 -20030103.46548 -15587342.17944  21805531.8214   21805526.9354
 -43410409.52349 -33805748.01346  20177853.1654   20177849.8844
 -23740095.70348 -18479374.66943  22126719.0244   22126716.4744
 -29342409.29748 -22842623.04744  21009853.8374   21009851.2904
 04  7 29  0 43 59.9970000  0  9G10G 1G28G23G13G19G27G 3G 8
  -7125134.34046  -5532059.33342  23038118.2514   23038116.7354
 -52960655.71546 -41247518.11942  23137181.2354   23137178.9974
  -8694061.20347  -6750992.70042  22812873.0174   22812870.3564
 -55530214.64848 -43250052.63843  21840072.9314   21840067.9274
 -53626222.05949 -41767212.13546  19450654.6814   19450651.1104
 -20139510.52748 -15672594.42144  21784712.3534   21784707.5404
 -43496663.18449 -33872958.64346  20161439.6424   20161436.7394
 -23776020.26248 -18507367.86142  22119882.5094   22119880.5834
 -29463825.77048 -22937233.26644  20986749.2354   20986746.8764
 04  7 29  0 44 29.9970000  0  9G10G 1G28G23G13G19G27G 3G 8
  -7239461.21946  -5621145.22142  23016362.8604   23016360.9424
 -52926163.87145 -41220641.47942  23143743.9314   23143742.9034
  -8851101.26647  -6873361.46042  22782989.0484   22782986.9974
 -55500023.76647 -43226527.33343  21845817.6734   21845812.9074
 -53661206.16849 -41794472.48746  19443997.8134   19443994.0214
 -20248452.48848 -15757484.22444  21763980.5794   21763976.6774
 -43582751.76249 -33940040.63146  20145057.3604   20145054.7084
 -23811358.45348 -18534904.09843  22113158.0404   22113155.6304
 -29585063.46948 -23031704.18144  20963678.1814   20963675.7864
 04  7 29  0 44 59.9970000  0  9G10G 1G28G23G13G19G27G 3G 8
  -7353253.35247  -5709814.37742  22994708.8604   22994706.7084
 -52891449.78546 -41193591.59742  23150349.9704   23150348.9624
  -9007910.37547  -6995550.22542  22753149.5874   22753146.4504
 -55469530.18747 -43202766.15443  21851620.5874   21851615.2864
 -53695670.11349 -41821327.51847  19437439.4544   19437435.5674
 -20356924.22748 -15842007.64044  21743339.5794   21743335.0284
 -43668672.02049 -34006991.47146  20128707.0634   20128704.3804
 -23846107.85248 -18561981.53142  22106545.7124   22106543.4194
 -29706119.62148 -23126033.63344  20940641.8454   20940639.8724
 04  7 29  0 45 29.9970000  0  9G10G 1G28G23G13G19G27G 3G 8
  -7466509.56247  -5798065.93242  22973157.0324   22973155.2944
 -52856515.02746 -41166369.84442  23156997.6264   23156996.5174
  -9164487.22747  -7117558.08842  22723353.6344   22723351.6814
 -55438735.76648 -43178770.53543  21857480.3764   21857475.2164
 -53729613.80149 -41847777.15446  19430980.0324   19430976.2864
 -20464923.52748 -15926162.89844  21722788.0324   21722783.4544
 -43754424.18049 -34073811.32946  20112389.2674   20112386.4744
 -23880269.60948 -18588601.07642  22100044.7514   22100042.7474
 -29826994.29748 -23220221.66044  20917640.5014   20917637.9464
 04  7 29  0 45 59.9970000  0  9G10G 1G28G23G13G19G27G 3G 8
  -7579228.46947  -5885898.84442  22951707.6964   22951705.4744
 -52821361.25846 -41138977.36242  23163687.7514   23163686.1104
  -9320830.87947  -7239384.17642  22693601.7904   22693599.5214
 -55407642.28147 -43154541.91243  21863397.2594   21863392.6264
 -53763037.22749 -41873821.38346  19424619.6734   19424616.1464
 -20572448.70348 -16009948.73844  21702326.7514   21702321.7514
 -43840008.23449 -34140500.20646  20096102.9854   20096100.2984
 -23913844.42247 -18614763.30742  22093655.3064   22093653.6384
 -29947687.01248 -23314267.91845  20894673.3454   20894670.7244
 04  7 29  0 46 29.9970000  0  9G10G 1G28G23G13G19G27G 3G 8
  -7691412.67247  -5973315.07442  22930359.3924   22930357.4464
 -52785994.19146 -41111418.68642  23170416.2434   23170416.6464
  -9476943.68447  -7361030.43042  22663894.8454   22663892.7204
 -55376255.12548 -43130084.41143  21869370.0714   21869365.2394
 -53795944.67249 -41899463.55746  19418357.7124   19418353.9114
 -20679501.68448 -16093366.61744  21681955.0714   21681950.4194
 -43925428.19949 -34207061.19646  20079848.3924   20079845.2744
 -23946837.05547 -18640471.82943  22087377.6734   22087375.0094
 -30068201.72748 -23408175.47345  20871740.0954   20871737.5674
 04  7 29  0 46 59.9970000  0  9G10G 1G28G23G13G19G27G 3G 8
  -7803060.14847  -6060313.08142  22909113.5564   22909111.5874
 -52750414.52046 -41083694.32642  23177188.5954   23177187.6654
  -9632823.70747  -7482495.24842  22634231.5564   22634229.5604
 -55344575.30948 -43105398.91143  21875399.1814   21875393.9744
 -53828335.91049 -41924703.49746  19412194.2044   19412190.1694
 -20786079.33248 -16176414.10444  21661674.2904   21661669.4384
 -44010682.98049 -34273493.49546  20063624.8454   20063621.9274
 -23979247.60547 -18665726.79042  22081209.9704   22081207.5674
 -30188538.07848 -23501944.04345  20848840.9704   20848838.4034
 04  7 29  0 47 29.9970000  0  9G10G 1G28G23G13G19G27G 3G 8
  -7914167.22347  -6146890.00142  22887970.4784   22887968.4784
 -52714621.63346 -41055803.81542  23183999.6654   23183998.7714
  -9788467.43447  -7603775.97342  22604612.8994   22604611.3024
 -55312602.23448 -43080484.86843  21881483.3684   21881478.0914
 -53860207.87549 -41949538.79146  19406129.1034   19406125.1614
 -20892177.47348 -16259087.94944  21641484.2904   21641479.4894
 -44095770.58649 -34339795.51446  20047433.2594   20047430.3964
 -24011074.77747 -18690527.21743  22075153.2514   22075151.1884
 -30308693.19148 -23595571.37345  20825976.2824   20825973.7084
 04  7 29  0 47 59.9970000  0  9G10G 1G28G23G13G19G27G 3G 8
  -8024731.62947  -6233044.05042  22866931.1814   22866928.9314
 -52678616.31646 -41027747.80142  23190850.3294   23190849.5404
  -9943872.79747  -7724871.01242  22575040.6814   22575038.5794
 -55280336.73848 -43055342.97443  21887622.7824   21887618.3214
 -53891559.98049 -41973969.01146  19400162.7744   19400159.1224
 -20997793.25448 -16341385.94544  21621386.1964   21621381.4784
 -44180689.70749 -34405966.26446  20031273.7904   20031270.8724
 -24042318.56647 -18714873.01642  22069207.9704   22069205.7284
 -30428666.27048 -23689056.86945  20803146.2204   20803143.5244
 04  7 29  0 48 29.9970000  0  9G10G 1G28G23G13G19G27G 3G 8
  -8134750.20747  -6318772.77942  22845995.0874   22845992.8254
 -52642398.06246 -40999525.94642  23197743.1344   23197741.8924
 -10099036.38348  -7845777.54342  22545514.2284   22545511.6924
 -55247778.38347 -43029972.89143  21893818.5174   21893813.6344
 -53922390.24649 -41997992.60046  19394296.1884   19394292.4074
 -21102922.48048 -16423304.79344  21601380.9784   21601376.0444
 -44265438.35549 -34472004.17346  20015146.3844   20015143.4544
 -24072977.53947 -18738763.13143  22063373.5954   22063371.3724
 -30548455.38348 -23782399.01044  20780351.1104   20780348.1774
 04  7 29  0 48 59.9970000  0  9G10G 1G28G23G13G19G27G 3G 8
  -8244226.98047  -6404079.35242  22825161.9934   22825160.0214
 -52605973.82445 -40971143.48342  23204673.9784   23204673.7674
 -10253962.09847  -7966498.81542  22516032.3214   22516030.4354
 -55214934.26248 -43004380.13243  21900068.7124   21900063.9544
 -53952704.37549 -42021614.00646  19388527.4234   19388523.7904
 -21207568.48448 -16504847.09144  21581467.1264   21581462.2514
 -44350021.73049 -34537913.29646  19999050.7674   19999047.9934
 -24103058.12947 -18762202.60442  22057649.2594   22057646.9234
 -30668065.46948 -23875601.65445  20757589.7044   20757587.4504
 04  7 29  0 49 29.9960000  0  9G10G 1G28G23G13G19G27G 3G 8
  -8353153.84847  -6488957.39242  22804434.0274   22804432.1414
 -52569343.19145 -40942600.24942  23211646.0664   23211644.4184
 -10408640.55548  -8087027.37842  22486598.5744   22486595.5594
 -55181804.06648 -42978564.42443  21906373.5354   21906368.4184
 -53982498.34449 -42044830.09246  19382857.7154   19382853.8164
 -21311722.60548 -16586006.13344  21561647.7074   21561642.8054
 -44434433.78949 -34603688.92346  19982987.7774   19982984.7774
 -24132557.15247 -18785188.87642  22052036.0124   22052033.3834
 -30787489.23049 -23968659.10545  20734864.4024   20734862.0044
 04  7 29  0 49 59.9960000  0  9G10G 1G28G23G13G19G27G 3G 8
  -8461535.16047  -6573410.36342  22783809.3324   22783807.9654
 -52532503.75845 -40913894.27042  23218654.7774   23218654.9454
 -10563079.18448  -8207369.05842  22457208.9964   22457206.9964
 -55148385.10948 -42952523.74243  21912733.0984   21912727.9344
 -54011772.46949 -42067641.09846  19377287.2234   19377283.2664
 -21415388.18048 -16666784.46644  21541920.9734   21541915.8164
 -44518678.10949 -34669333.83646  19966956.4814   19966953.5904
 -24161475.68747 -18807722.80242  22046532.7384   22046531.0044
 -30906733.67248 -24061576.83745  20712172.8634   20712170.3404
 04  7 29  0 50 29.9960000  0  9G10G 1G28G23G13G19G27G 3G 8
  -8569365.93747  -6657434.31742  22763290.4024   22763287.8634
 -52495458.06246 -40885027.60642  23225704.3014   23225704.4064
 -10717271.23047  -8327518.60642  22427867.1844   22427865.1844
 -55114680.49247 -42926260.45843  21919146.4814   21919141.7154
 -54040525.68449 -42090046.20846  19371815.4414   19371811.8444
 -21518559.45348 -16747177.64944  21522287.6214   21522282.8204
 -44602751.68749 -34734845.70946  19950957.8634   19950954.9344
 -24189813.69947 -18829804.35343  22041140.8094   22041138.5354
 -31025793.69548 -24154350.85945  20689516.3714   20689513.7664
 04  7 29  0 50 59.9960000  0  9G10G 1G28G23G13G19G27G 3G 8
  -8676646.93447  -6741029.84842  22742875.4734   22742873.3524
 -52458209.85945 -40856003.14442  23232794.0594   23232793.2774
 -10871217.47348  -8447476.64043  22398572.1374   22398569.7274
 -55080693.60247 -42899777.20543  21925613.3634   21925609.3444
 -54068760.26649 -42112047.19446  19366442.6064   19366439.3014
 -21621236.43448 -16827185.63944  21502748.8164   21502744.0634
 -44686656.41849 -34800226.01746  19934991.0664   19934988.2854
 -24217574.05947 -18851435.81642  22035858.0274   22035855.6914
 -31144671.71548 -24246983.05545  20666894.8564   20666892.2274
 04  7 29  0 51 29.9960000  0  9G10G 1G28G23G13G19G27G 3G 8
  -8783376.41847  -6824195.67142  22722565.4024   22722563.4454
 -52420760.51645 -40826821.87142  23239918.9104   23239919.2034
 -11024916.35948  -8567241.92442  22369324.6134   22369322.0784
 -55046425.97347 -42873075.23143  21932135.0904   21932130.0004
 -54096476.18049 -42133644.01546  19361168.5904   19361165.0274
 -21723417.12948 -16906806.93444  21483303.9264   21483299.3014
 -44770391.75049 -34865474.32646  19919057.1294   19919053.8714
 -24244757.50047 -18872617.73742  22030685.0044   22030682.8134
 -31263366.77748 -24339472.69645  20644307.8014   20644305.1024
 04  7 29  0 51 59.9960000  0  9G10G 1G28G23G13G19G27G 3G 8
  -8889551.44547  -6906929.46442  22702361.0354   22702358.8874
 -52383109.48045 -40797483.57842  23247084.4344   23247084.2624
 -11178364.84048  -8686812.06943  22340124.0274   22340121.7154
 -55011877.41047 -42846154.30943  21938709.5204   21938704.5864
 -54123671.59049 -42154835.25946  19355993.5354   19355989.5234
 -21825097.44948 -16986038.32444  21463955.5514   21463950.5634
 -44853955.52749 -34930588.95046  19903155.3564   19903152.3014
 -24271363.10547 -18893349.38942  22025621.7624   22025619.8834
 -31381876.87548 -24431818.19345  20621755.9814   20621753.5474
 04  7 29  0 52 29.9960000  0  9G10G 1G28G23G13G19G27G 3G 8
  -8995172.77747  -6989231.78242  22682262.6294   22682260.3284
 -52345260.29745 -40767990.77942  23254287.9024   23254286.3754
 -11331563.37948  -8806187.47542  22310971.3634   22310969.1724
 -54977051.52047 -42819017.29843  21945335.6134   21945332.0864
 -54150348.38749 -42175622.37546  19350917.1064   19350913.5744
 -21926277.42248 -17064879.82944  21444701.2704   21444696.3564
 -44937349.70749 -34995571.41146  19887286.0204   19887283.1414
 -24297393.82447 -18913633.09442  22020669.0434   22020666.7624
 -31500204.07848 -24524021.19545  20599238.9964   20599236.6564
 04  7 29  0 52 59.9960000  0  9G10G 1G28G23G13G19G27G 3G 8
  -9100237.43447  -7071100.30642  22662269.0044   22662266.4344
 -52307212.63345 -40738343.36542  23261526.7854   23261526.5434
 -11484508.67648  -8925365.54043  22281866.5744   22281864.2624
 -54941947.75847 -42791663.79943  21952017.3324   21952011.9924
 -54176504.95749 -42196004.12946  19345939.2854   19345936.0824
 -22026952.97348 -17143328.28544  21425543.2544   21425538.7774
 -45020571.85249 -35060419.82546  19871449.3164   19871446.4574
 -24322848.61347 -18933467.99442  22015824.5204   22015822.4614
 -31618345.82049 -24616079.68045  20576757.2854   20576754.6254
 04  7 29  0 53 29.9960000  0  9G10G 1G28G23G13G19G27G 3G 8
  -9204743.15647  -7152533.30342  22642382.0204   22642379.6914
 -52268966.98845 -40708541.65542  23268804.6844   23268805.2624
 -11637198.55148  -9044344.56942  22252811.2464   22252808.2814
 -54906566.93047 -42764094.35743  21958749.3094   21958744.8914
 -54202140.54349 -42215979.91646  19341061.6214   19341058.0744
 -22127121.16448 -17221381.39044  21406481.8244   21406477.2504
 -45103620.67249 -35125133.18346  19855645.5274   19855642.8794
 -24347727.56647 -18952854.21242  22011090.5594   22011088.1454
 -31736301.12948 -24707992.87645  20554311.4344   20554308.7734
 04  7 29  0 53 59.9960000  0  9G10G 1G28G23G13G19G27G 3G 8
  -9308691.48047  -7233532.01542  22622600.8164   22622599.1954
 -52230527.63345 -40678589.00142  23276120.5824   23276119.3874
 -11789634.14548  -9163125.47042  22223803.0594   22223800.6994
 -54870913.35547 -42736312.41843  21965534.4734   21965529.6064
 -54227258.05149 -42235552.01146  19336281.7624   19336277.9774
 -22226782.82448 -17299039.80144  21387516.8404   21387512.3594
 -45186498.70749 -35189713.45246  19839874.5664   19839871.3014
 -24372034.39547 -18971794.61142  22006464.8874   22006462.9024
 -31854072.05149 -24799762.41345  20531900.3244   20531897.8204
 04  7 29  0 54 29.9960000  0  9G10G 1G28G23G13G19G27G 3G 8
  -9412080.28547  -7314094.68742  22602926.7544   22602924.6094
 -52191895.40645 -40648486.09341  23283471.8634   23283471.3874
 -11941813.65647  -9281706.83742  22194844.0514   22194841.3834
 -54834987.87546 -42708318.61643  21972370.1294   21972365.7194
 -54251856.66449 -42254719.78246  19331600.8564   19331597.0204
 -22325935.17648 -17376301.36544  21368648.7544   21368644.3564
 -45269204.72748 -35254159.69546  19824135.6844   19824133.3324
 -24395769.42247 -18990289.46842  22001948.2314   22001946.7974
 -31971658.11749 -24891387.89945  20509524.1214   20509521.7464
 04  7 29  0 54 59.9960000  0  9G10G 1G28G23G13G19G27G 3G 8
  -9514905.48447  -7394218.21142  22583359.7624   22583357.9454
 -52153068.81646 -40618231.73841  23290860.4884   23290858.9534
 -12093732.77347  -9400085.26942  22165934.7074   22165933.0824
 -54798788.93447 -42680111.68643  21979259.1914   21979254.2704
 -54275933.54348 -42273480.98546  19327019.0204   19327015.4734
 -22424573.43448 -17453162.31444  21349878.8244   21349874.3754
 -45351735.46548 -35318469.35546  19808430.9024   19808428.1134
 -24418930.65247 -19008337.20042  21997541.2854   21997538.7194
 -32089055.73049 -24982866.54045  20487184.2544   20487181.1954
 04  7 29  0 55 29.9960000  0  9G10G 1G28G23G13G19G27G 3G 8
  -9617168.77347  -7473903.84842  22563900.0124   22563897.4454
 -52114052.54345 -40587829.54642  23298284.6684   23298284.8244
 -12245393.27347  -9518262.22243  22137075.2234   22137072.4614
 -54762321.66446 -42651695.69943  21986197.8794   21986193.7384
 -54299492.26648 -42291838.43646  19322536.0274   19322532.2624
 -22522698.68448 -17529623.53344  21331205.4884   21331201.2774
 -45434093.82448 -35382644.68646  19792758.5824   19792755.6414
 -24441522.26647 -19025941.02342  21993241.9814   21993239.9884
 -32206267.80149 -25074200.61344  20464879.5274   20464876.7704
 04  7 29  0 55 59.9960000  0  9G10G 1G28G23G13G19G27G 3G 8
  -9718872.00447  -7553153.10842  22544545.9264   22544544.4844
 -52074850.96945 -40557282.95041  23305745.0594   23305744.7154
 -12396796.64148  -9636238.77842  22108263.6064   22108261.3404
 -54725590.27347 -42623073.93043  21993188.6134   21993183.6484
 -54322535.77049 -42309794.42646  19318150.8954   19318147.3954
 -22620311.81248 -17605685.69044  21312631.1214   21312626.2344
 -45516282.09448 -35446687.49146  19777118.8094   19777115.9064
 -24463548.07846 -19043104.04942  21989051.2074   21989048.4614
 -32323296.74249 -25165391.98545  20442609.5664   20442607.0234
 04  7 29  0 56 29.9960000  0  8G10G28G23G13G19G27G 3G 8
  -9820007.83647  -7631960.21342  22525300.5904   22525298.1604
 -12547935.27748  -9754009.07442  22079503.2934   22079500.7344
 -54688590.05546 -42594242.63443  22000229.9734   22000225.0004
 -54345058.15249 -42327344.35246  19313864.9814   19313861.6764
 -22717404.43448 -17681342.26644  21294154.4024   21294150.0554
 -45598293.83249 -35510592.73246  19761512.5904   19761509.2854
 -24485003.07047 -19059822.22042  21984968.1294   21984965.9264
 -32440136.15649 -25256435.66745  20420375.4264   20420373.3444
 04  7 29  0 56 59.9960000  0  8G10G28G23G13G19G27G 3G 8
  -9920579.28547  -7710327.57242  22506162.6454   22506160.6724
 -12698812.06648  -9871575.32142  22050792.1524   22050789.5044
 -54651327.07446 -42565206.58943  22007320.1684   22007315.2274
 -54367063.60249 -42344491.45446  19309677.1604   19309673.6604
 -22813979.13348 -17756595.24644  21275777.3014   21275772.7624
 -45680132.71549 -35574363.27646  19745938.9494   19745936.1454
 -24505892.55947 -19076099.76343  21980992.8324   21980990.7814
 -32556789.90649 -25347334.67245  20398177.3484   20398174.6024
 04  7 29  0 57 29.9960000  0  8G10G28G23G13G19G27G 3G 8
 -10020565.92647  -7788239.23642  22487135.8404   22487133.4304
 -12849406.46148  -9988921.53242  22022134.6454   22022132.1094
 -54613783.62147 -42535952.02143  22014465.1294   22014460.1174
 -54388533.23049 -42361221.04946  19305591.8094   19305588.4964
 -22910014.79748 -17831428.21044  21257501.9344   21257497.6994
 -45761779.16449 -35637983.88546  19730402.0204   19730399.1454
 -24526198.30547 -19091922.42942  21977128.6454   21977126.8484
 -32673238.12149 -25438073.52345  20376018.0514   20376015.4614
 04  7 29  0 57 59.9960000  0  8G10G28G23G13G19G27G 3G 8
 -10119961.86347  -7865690.56842  22468221.9024   22468219.2074
 -12999712.19947 -10106042.81942  21993532.4024   21993529.8674
 -54575956.28546 -42506476.24042  22021663.4654   22021658.2774
 -54409462.31248 -42377529.42946  19301609.1844   19301605.5634
 -23005504.56248 -17905835.80944  21239330.8954   21239326.3524
 -45843227.79348 -35701450.34446  19714903.0204   19714899.8564
 -24545916.57046 -19107287.32342  21973376.4814   21973374.5474
 -32789475.71949 -25528648.26145  20353898.8564   20353896.0044
 04  7 29  0 58 29.9960000  0  8G10G28G23G13G19G27G 3G 8
 -10218767.57047  -7942682.02742  22449419.0664   22449417.1564
 -13149729.40248 -10222939.27543  21964984.6294   21964982.5084
 -54537848.32847 -42476781.77743  22028914.2704   22028910.0704
 -54429852.51648 -42393417.91246  19297729.1914   19297725.7504
 -23100447.86348 -17979817.58144  21221263.6604   21221259.1374
 -45924479.72748 -35764763.53546  19699441.1294   19699438.1174
 -24565049.71547 -19122196.28842  21969735.6604   21969733.6994
 -32905503.66849 -25619059.63145  20331819.2074   20331816.2544
 04  7 29  0 58 59.9960000  0  8G10G28G23G13G19G27G 3G 8
 -10316989.39847  -8019218.48342  22430728.2074   22430726.1414
 -13299464.45347 -10339615.85042  21936491.3954   21936488.9224
 -54499468.69947 -42446875.65642  22036218.0824   22036213.2034
 -54449711.73849 -42408892.64446  19293950.1214   19293946.2424
 -23194850.49648 -18053378.05344  21203299.5514   21203294.7384
 -46005541.94949 -35827928.90346  19684015.9104   19684012.7464
 -24583606.40247 -19136656.06843  21966204.1684   21966202.4924
 -33021329.34049 -25709313.38545  20309778.4184   20309775.8754
 04  7 29  0 59 29.9960000  0  8G10G28G23G13G19G27G 3G 8
 -10414624.27747  -8095297.61342  22412148.8484   22412147.0824
 -13448913.60548 -10456069.67642  21908052.1374   21908049.4494
 -54460816.89147 -42416757.41742  22043572.9574   22043568.6604
 -54469038.17649 -42423952.21246  19290272.3324   19290268.6764
 -23288708.40248 -18126514.07344  21185439.1454   21185434.4614
 -46086411.85548 -35890944.40846  19668626.5664   19668623.9494
 -24601585.93447 -19150666.08842  21962782.7464   21962781.2854
 -33136950.07049 -25799407.44745  20287776.4264   20287773.5514
 04  7 29  0 59 59.9960000  0  8G10G28G23G13G19G27G 3G 8
 -10511673.87947  -8170920.67042  22393680.8014   22393678.7114
 -13598078.32048 -10572301.85943  21879667.1454   21879664.5514
 -54421897.32846 -42386430.53842  22050979.5594   22050974.9574
 -54487834.68449 -42438598.85846  19286695.6454   19286691.6524
 -23382022.61748 -18199226.43444  21167681.8954   21167676.9454
 -46167091.81249 -35953811.90846  19653273.6684   19653270.6524
 -24618992.34447 -19164229.56143  21959470.6764   21959468.9104
 -33252368.26649 -25889343.68345  20265812.9964   20265810.5904
 04  7 29  1  0 29.9960000  0  8G10G28G23G13G19G27G 3G 8
 -10608143.30947  -8246091.61142  22375323.3324   22375321.7464
 -13746963.67248 -10688316.33942  21851335.3634   21851332.4734
 -54382717.73847 -42355901.07143  22058435.1374   22058430.4494
 -54506107.89549 -42452837.73446  19283218.2234   19283214.6374
 -23474797.36348 -18271518.42744  21150027.4414   21150022.7274
 -46247587.36749 -36016535.71146  19637956.0824   19637952.9384
 -24635832.97746 -19177352.15742  21956266.1604   21956263.9104
 -33367589.62149 -25979126.53445  20243887.0664   20243884.6684
 04  7 29  1  0 59.9960000  0  8G10G28G23G13G19G27G 3G 8
 -10704031.35247  -8320809.58642  22357076.5984   22357074.7424
 -13895568.22747 -10804112.04243  21823056.3404   21823054.0474
 -54343279.69547 -42325170.18842  22065940.3244   22065935.1764
 -54523858.10949 -42466669.08446  19279840.6844   19279837.0474
 -23567030.77048 -18343388.59944  21132475.9264   21132470.9734
 -46327898.09049 -36079115.50146  19622673.2934   19622670.4344
 -24652108.83647 -19190034.62843  21953168.9184   21953167.0164
 -33482613.97349 -26068755.88745  20221998.7154   20221996.1064
 04  7 29  1  1 29.9960000  0  8G10G28G23G13G19G27G 3G 8
 -10799336.84047  -8395073.55442  22338940.7704   22338937.8674
 -14043890.30948 -10919687.63343  21794831.6524   21794828.7154
 -54303584.52747 -42294238.96142  22073494.5354   22073489.5394
 -54541085.40649 -42480092.97846  19276562.4344   19276558.9184
 -23658720.85948 -18414835.42244  21115027.9734   21115023.2584
 -46408023.20349 -36141550.65146  19607425.8714   19607423.1564
 -24667820.89147 -19202277.82543  21950178.9654   21950177.0234
 -33597440.51249 -26158231.10245  20200148.0664   20200145.3754
 04  7 29  1  1 59.9950000  0  8G10G28G23G13G19G27G 3G 8
 -10894056.89847  -8468881.36742  22320915.7654   22320913.4294
 -14191924.91048 -11035039.20943  21766661.7264   21766659.2614
 -54263636.42247 -42263110.63942  22081096.0154   22081091.2064
 -54557790.51649 -42493109.95146  19273383.5774   19273379.8124
 -23749864.05948 -18485856.08344  21097684.2654   21097679.2454
 -46487960.64149 -36203839.56346  19592214.5234   19592211.3664
 -24682970.86748 -19214083.00143  21947296.2334   21947293.8554
 -33712065.96549 -26247549.62545  20178335.4834   20178332.9994
 04  7 29  1  2 29.9950000  0  8G10G28G23G13G19G27G 3G 8
 -10988194.81247  -8542235.56042  22303001.9444   22302999.2144
 -14339678.33248 -11150171.68943  21738545.3124   21738542.7104
 -54223432.18047 -42231782.72142  22088746.2104   22088742.1204
 -54573972.82849 -42505719.56646  19270303.8354   19270300.6284
 -23840462.33648 -18556452.12544  21080443.7024   21080439.1324
 -46567713.10249 -36265984.33946  19577038.1404   19577035.2264
 -24697559.18048 -19225450.53742  21944519.9214   21944518.4174
 -33826495.03149 -26336715.11945  20156560.1324   20156557.6904
 04  7 29  1  2 59.9950000  0  8G10G28G23G13G19G27G 3G 8
 -11081746.84047  -8615133.25842  22285199.2964   22285197.3154
 -14487144.89148 -11265080.63943  21710483.1244   21710480.3274
 -54182975.18047 -42200257.86442  22096445.3514   22096440.7534
 -54589632.68049 -42517922.05746  19267324.4524   19267320.4404
 -23930511.41448 -18626620.22744  21063307.9524   21063303.2144
 -46647277.71549 -36327982.73446  19561897.2654   19561894.3154
 -24711587.01647 -19236381.35742  21941851.2104   21941848.7494
 -33940724.11349 -26425724.77045  20134823.3904   20134821.0234
 04  7 29  1  3 29.9950000  0  8G10G28G23G13G19G27G 3G 8
 -11174714.25447  -8687575.36042  22267508.3664   22267506.3474
 -14634325.53948 -11379766.79243  21682475.4684   21682472.8704
 -54142268.97347 -42168538.82043  22104191.5234   22104186.8704
 -54604772.57049 -42529719.38646  19264443.0234   19264439.7454
 -24020011.73848 -18696360.73244  21046276.8044   21046271.9444
 -46726656.23049 -36389836.12446  19546792.1944   19546789.3864
 -24725057.76646 -19246878.04842  21939287.3434   21939285.5544
 -34054755.16849 -26514580.12145  20113124.0304   20113121.1984
 04  7 29  1  3 59.9950000  0  8G10G28G23G13G19G27G 3G 8
 -11267096.63747  -8759561.62742  22249928.7964   22249926.1554
 -14781219.35548 -11494229.45343  21654522.4294   21654519.6364
 -54101316.00846 -42136627.48142  22111983.9994   22111979.9994
 -54619393.40249 -42541112.26346  19261660.9604   19261657.6364
 -24108962.22748 -18765672.77544  21029349.9214   21029345.0974
 -46805848.51249 -36451544.38746  19531722.3984   19531719.6284
 -24737973.02046 -19256941.89543  21936829.8744   21936827.6484
 -34168588.24649 -26603281.22145  20091462.2024   20091459.6244
 04  7 29  1  4 29.9950000  0  8G10G28G23G13G19G27G 3G 8
 -11358888.51647  -8831087.77142  22232460.8434   22232458.9724
 -14927820.41448 -11608463.97043  21626625.2574   21626622.2804
 -54060113.26246 -42104521.52742  22119825.4684   22119820.9644
 -54633490.80149 -42552097.27546  19258978.3744   19258974.8704
 -24197356.48448 -18834551.40644  21012529.5154   21012524.4994
 -46884849.53149 -36513103.61946  19516689.0234   19516685.9094
 -24750329.65647 -19266570.45043  21934478.2884   21934476.3664
 -34282217.82449 -26691823.72545  20069839.3124   20069836.5934
 04  7 29  1  4 59.9950000  0  8G10G28G23G13G19G27G 3G 8
 -11450097.63347  -8902159.79942  22215104.4994   22215102.5034
 -15074136.18048 -11722476.19243  21598782.3584   21598779.9564
 -54018670.83647 -42072228.80442  22127711.8124   22127707.0074
 -54647073.72349 -42562681.37146  19256393.4444   19256390.0264
 -24285201.37148 -18903001.94944  20995812.4684   20995808.1674
 -46963666.97349 -36574519.81046  19501690.5464   19501687.6014
 -24762137.62148 -19275771.49943  21932231.4294   21932229.6514
 -34395652.22749 -26780214.16745  20048253.4834   20048250.8744
 04  7 29  1  5 29.9950000  0  8G10G28G23G13G19G27G 3G 8
 -11540717.45747  -8972772.59442  22197860.4444   22197857.9764
 -15220159.44148 -11836260.48743  21570994.7964   21570992.2024
 -53976984.49647 -42039746.02042  22135644.8434   22135639.8904
 -54660137.12949 -42572860.66746  19253907.4444   19253904.3194
 -24372489.50048 -18971018.64944  20979201.7654   20979197.4804
 -47042294.65649 -36635788.13546  19486728.1324   19486725.0264
 -24773392.37948 -19284541.44842  21930089.7104   21930087.2334
 -34508885.32049 -26868447.72045  20026705.8124   20026703.0384
 04  7 29  1  5 59.9950000  0  8G10G28G23G13G19G27G 3G 8
 -11630752.80947  -9042930.03642  22180726.6404   22180725.0114
 -15365894.56647 -11949820.27543  21543262.0934   21543259.6204
 -53935061.74246 -42007079.02842  22143622.2414   22143617.8984
 -54672687.11349 -42582639.90646  19251519.4764   19251515.8624
 -24459224.82048 -19038604.60644  20962697.0694   20962692.6204
 -47120737.69149 -36696912.56846  19471801.0774   19471797.9874
 -24784100.91847 -19292885.79442  21928051.6014   21928049.8354
 -34621921.77349 -26956528.07045  20005195.4834   20005192.9134
 04  7 29  1  6 29.9950000  0  8G10G28G23G13G19G27G 3G 8
 -11720202.91847  -9112631.39542  22163705.9374   22163703.2224
 -15511340.50048 -12063154.67843  21515584.9134   21515582.2334
 -53892904.19147 -41974229.04942  22151644.6244   22151640.2494
 -54684724.29349 -42592019.52746  19249228.8744   19249225.1904
 -24545405.92248 -19105758.69244  20946297.4994   20946292.5504
 -47198995.55949 -36757892.73246  19456908.9524   19456906.1324
 -24794264.74247 -19300805.65042  21926117.8044   21926115.5194
 -34734761.73449 -27044455.30745  19983722.8744   19983720.0264
 04  7 29  1  6 59.9950000  0  8G10G28G23G13G19G27G 3G 8
 -11809064.50447  -9181874.17542  22146795.3514   22146793.1714
 -15656493.43048 -12176260.83343  21487963.4054   21487960.1944
 -53850510.93447 -41941195.43842  22159711.2804   22159707.1404
 -54696246.39149 -42600997.81046  19247036.2264   19247032.6834
 -24631028.44948 -19172477.54144  20930004.0384   20929998.9404
 -47277064.86749 -36818725.95746  19442052.9444   19442050.2224
 -24803882.50848 -19308300.03343  21924287.7884   21924285.7224
 -34847401.53949 -27132226.56745  19962288.2414   19962285.5344
 04  7 29  1  7 29.9950000  0  8G10G28G23G13G19G27G 3G 8
 -11897334.56647  -9250656.05142  22129998.2334   22129996.2884
 -15801349.82448 -12289135.86843  21460397.9294   21460394.8864
 -53807881.41047 -41907977.70243  22167823.7184   22167819.9334
 -54707251.48849 -42609573.23446  19244941.9994   19244938.8744
 -24716088.89148 -19238758.38044  20913817.1714   20913812.6944
 -47354942.99649 -36879410.21646  19427233.1014   19427230.3234
 -24812953.61348 -19315368.44743  21922561.1554   21922559.2024
 -34959838.88749 -27219840.08045  19940892.5854   19940889.4804
 04  7 29  1  7 59.9950000  0  8G10G28G23G13G19G27G 3G 8
 -11985018.39147  -9318981.10242  22113312.8744   22113310.5384
 -15945914.53948 -12401783.62543  21432888.0694   21432885.2534
 -53765023.45347 -41874581.95842  22175979.8274   22175974.9564
 -54717746.60549 -42617751.26446  19242945.0694   19242941.5034
 -24800591.53148 -19304604.58144  20897736.8824   20897732.7264
 -47432635.27349 -36939949.64546  19412448.3824   19412445.8084
 -24821485.66047 -19322016.82342  21920937.8044   21920935.7764
 -35072078.96549 -27307299.87045  19919533.6244   19919530.3824
 04  7 29  1  8 29.9950000  0  8G10G28G23G13G19G27G 3G 8
 -12072117.94947  -9386850.88442  22096737.7804   22096736.1834
 -16090189.15648 -12514205.34143  21405433.3434   21405430.5894
 -53721941.35547 -41841011.57442  22184177.2334   22184173.5264
 -54727734.44949 -42625534.02246  19241044.3354   19241040.9484
 -24884537.44948 -19370016.97844  20881762.7104   20881758.3234
 -47510143.78149 -37000345.89046  19397699.4054   19397696.4764
 -24829482.65648 -19328248.25843  21919416.3354   21919413.7694
 -35184124.31649 -27394607.93545  19898212.0304   19898209.2454
 04  7 29  1  8 59.9950000  0  8G10G28G23G13G19G27G 3G 8
 -12158626.24647  -9454259.91442  22080276.1794   22080273.5814
 -16234165.87548 -12626394.94243  21378035.4214   21378032.6634
 -53678630.24246 -41807262.74342  22192419.6484   22192415.3744
 -54737209.59449 -42632917.26446  19239241.2414   19239237.9094
 -24967919.10248 -19434989.67944  20865895.2804   20865890.5934
 -47587461.59049 -37060593.52946  19382986.2184   19382983.3084
 -24836939.75447 -19334059.00843  21917996.9764   21917995.1324
 -35295967.95749 -27481758.80445  19876928.8514   19876926.0114
 04  7 29  1  9 29.9950000  0  8G10G28G23G13G19G27G 3G 8
 -12244547.42247  -9521211.48342  22063925.3984   22063923.1364
 -16377848.28547 -12738355.19143  21350693.3354   21350690.8274
 -53635096.56246 -41773340.45842  22200703.4294   22200699.8234
 -54746177.37149 -42639905.17046  19237534.7574   19237531.3864
 -25050739.57048 -19499525.10944  20850135.6714   20850130.5034
 -47664592.75849 -37120695.72946  19368308.4684   19368305.7534
 -24843863.34447 -19339454.01642  21916679.7024   21916677.7264
 -35407614.09849 -27568755.78445  19855683.4134   19855680.4954
 04  7 29  1  9 59.9950000  0  8G10G28G23G13G19G27G 3G 8
 -12329876.87146  -9587701.95442  22047688.1634   22047686.1554
 -16521231.14547 -12850082.01343  21323408.4684   21323405.8624
 -53591338.04746 -41739243.00742  22209031.0854   22209026.5734
 -54754634.03149 -42646494.78746  19235925.3744   19235922.0854
 -25132993.41847 -19563619.00144  20834483.2884   20834478.5854
 -47741532.50849 -37180648.79246  19353667.7574   19353665.1084
 -24850250.44547 -19344430.99142  21915464.2104   21915462.2614
 -35519057.82849 -27655595.05045  19834476.2494   19834473.3624
 04  7 29  1 10 29.9950000  0  8G10G28G23G13G19G27G 3G 8
 -12414614.68746  -9653731.42042  22031563.1634   22031561.2224
 -16664314.13747 -12961575.23143  21296180.9604   21296177.7334
 -53547357.27046 -41704972.34542  22217399.4994   22217396.2104
 -54762581.24249 -42652687.43446  19234413.2494   19234409.8784
 -25214679.96548 -19627270.85244  20818939.0854   20818933.8434
 -47818281.11349 -37240452.89446  19339062.9684   19339059.9294
 -24856103.50846 -19348991.85142  21914350.0624   21914347.9094
 -35630299.45749 -27742276.82945  19813308.0694   19813305.1634
 04  7 29  1 10 59.9950000  0  8G10G28G23G13G19G27G 3G 8
 -12498761.63747  -9719300.46842  22015550.3124   22015548.0694
 -16807097.34447 -13072834.79543  21269010.4604   21269007.1484
 -53503157.08646 -41670530.72242  22225811.4764   22225806.8514
 -54770021.07449 -42658484.71746  19232997.3044   19232994.2924
 -25295798.75048 -19690480.28144  20803502.2884   20803497.4374
 -47894838.97349 -37300108.37146  19324494.4374   19324491.8554
 -24861425.67648 -19353138.99542  21913337.5384   21913335.6674
 -35741339.82849 -27828801.77545  19792177.5384   19792174.7184
 04  7 29  1 11 29.9950000  0  8G10G28G23G13G19G27G 3G 8
 -12582318.17247  -9784409.45842  21999650.3514   21999648.4994
 -16949580.66448 -13183860.68543  21241896.6714   21241893.5264
 -53458740.10547 -41635920.17942  22234263.9374   22234259.1674
 -54776954.89549 -42663887.71746  19231678.1794   19231674.6284
 -25376349.60548 -19753247.17444  20788173.5624   20788169.2104
 -47971206.76649 -37359615.73046  19309962.0544   19309959.3044
 -24866219.55148 -19356874.50842  21912425.1244   21912423.4564
 -35852179.55149 -27915170.38946  19771085.3744   19771082.4484
 04  7 29  1 11 59.9950000  0  8G10G28G23G13G19G27G 3G 8
 -12665288.53547  -9849061.70142  21983861.4294   21983859.6364
 -17091767.69948 -13294655.73743  21214839.0384   21214836.3194
 -53414113.10946 -41601145.95142  22242755.6634   22242751.5114
 -54783388.34049 -42668900.81046  19230453.6554   19230450.4254
 -25456336.10248 -19815574.30844  20772952.8274   20772947.8554
 -48047388.49249 -37418978.11946  19295465.1634   19295462.4444
 -24870491.51647 -19360203.33842  21911612.5074   21911610.3704
 -35962822.60248 -28001385.74645  19750030.6324   19750027.8394
 04  7 29  1 12 29.9950000  0  8G10G28G23G13G19G27G 3G 8
 -12747668.25847  -9913253.67742  21968185.0074   21968183.0344
 -17233653.19148 -13405215.79143  21187839.2184   21187836.0504
 -53369273.54746 -41566206.14542  22251288.5934   22251284.5114
 -54789317.93449 -42673521.28746  19229325.6164   19229322.1714
 -25535752.76248 -19877457.41044  20757840.5624   20757835.9604
 -48123379.42649 -37478191.83946  19281004.6874   19281001.4724
 -24874238.93447 -19363123.43143  21910899.2804   21910897.3664
 -36073264.25849 -28087444.16445  19729014.3044   19729011.5424
 04  7 29  1 12 59.9950000  0  8G10G28G23G13G19G27G 3G 8
 -12829456.10247  -9976984.44242  21952621.4834   21952619.2264
 -17375235.48047 -13515539.60543  21160896.7104   21160894.0424
 -53324222.63747 -41531101.61242  22259862.5624   22259857.6124
 -54794743.64549 -42677749.13146  19228293.3434   19228289.8554
 -25614597.84048 -19938895.13144  20742836.6324   20742832.0194
 -48199178.22749 -37537255.83246  19266580.2964   19266577.4054
 -24877462.77047 -19365635.53342  21910286.2184   21910283.8554
 -36183503.71549 -28173345.02645  19708036.1554   19708033.4604
 04  7 29  1 13 29.9950000  0  8G10G28G23G13G19G27G 3G 8
 -12910654.69546 -10040256.05442  21937169.8194   21937167.5194
 -17516516.46948 -13625628.62343  21134011.7964   21134008.7224
 -53278964.84446 -41495835.89342  22268473.9914   22268469.9174
 -54799669.58649 -42681587.55646  19227355.7804   19227352.1634
 -25692872.96947 -19999888.72344  20727941.5934   20727936.7844
 -48274787.42649 -37596172.08746  19252192.6084   19252189.6444
 -24880167.88346 -19367743.43142  21909770.9604   21909769.3084
 -36293543.23049 -28259090.08445  19687096.6324   19687093.8904
 04  7 29  1 13 59.9950000  0  8G10G28G23G13G19G27G 3G 8
 -12991262.87146 -10103067.62842  21921830.2494   21921828.2064
 -17657494.19948 -13735481.34843  21107184.5154   21107182.0074
 -53233501.30546 -41460409.89042  22277125.5934   22277120.9484
 -54804095.63749 -42685036.44946  19226513.4214   19226510.0974
 -25770575.75448 -20060436.33244  20713155.4684   20713150.5654
 -48350205.20349 -37654939.19046  19237841.0304   19237838.0154
 -24882354.80146 -19369447.53142  21909354.9834   21909353.0234
 -36403381.12149 -28344678.03545  19666194.9134   19666192.1794
 04  7 29  1 14 29.9950000  0  8G10G28G23G13G19G27G 3G 8
 -13071282.77347 -10165420.80042  21906603.2184   21906601.2734
 -17798170.27048 -13845099.03043  21080414.6874   21080411.7264
 -53187836.48446 -41424826.98742  22285815.9684   22285811.3944
 -54808024.45749 -42688097.88246  19225765.8984   19225762.3784
 -25847707.87548 -20120539.26544  20698477.4054   20698472.7804
 -48425433.74649 -37713558.83146  19223525.6944   19223522.7334
 -24884028.12947 -19370751.44742  21909036.6014   21909034.6984
 -36513019.68749 -28430110.67246  19645331.3514   19645328.5544
 04  7 29  1 14 59.9940000  0  8G10G28G23G13G19G27G 3G 8
 -13150709.74246 -10227311.91542  21891488.8154   21891486.7254
 -17938537.07848 -13954475.69943  21053704.2294   21053701.1474
 -53141971.85946 -41389088.41742  22294543.0334   22294538.9754
 -54811455.99649 -42690771.82846  19225113.0804   19225109.6074
 -25924263.78148 -20180193.21644  20683909.2294   20683904.5684
 -48500468.04349 -37772027.11946  19209247.2214   19209244.1784
 -24885187.68047 -19371655.00742  21908815.6824   21908813.8074
 -36622453.20749 -28515383.53046  19624507.0184   19624504.3034
 04  7 29  1 15 29.9940000  0  8G10G28G23G13G19G27G 3G 8
 -13229553.83246 -10288748.85642  21876485.2834   21876483.2254
 -18078607.99648 -14063621.82043  21027049.5804   21027046.1394
 -53095911.09045 -41353196.94742  22303308.0184   22303303.7994
 -54814395.62149 -42693062.47346  19224553.3544   19224550.1074
 -26000252.45748 -20239405.17244  20669449.5574   20669444.6584
 -48575317.59849 -37830351.45046  19195003.6194   19195000.4434
 -24885840.42247 -19372163.63842  21908691.7754   21908689.6114
 -36731693.12549 -28600505.52545  19603719.2444   19603716.3934
 04  7 29  1 15 59.9940000  0  8G10G28G23G13G19G27G 3G 8
 -13307807.98446 -10349726.14442  21861594.2914   21861592.2174
 -18218373.25848 -14172529.75144  21000452.9164   21000450.0844
 -53049653.59045 -41317152.27442  22312110.8304   22312106.3774
 -54816840.84849 -42694967.85546  19224088.3224   19224085.0374
 -26075666.16848 -20298169.08444  20655097.9474   20655093.6044
 -48649975.12949 -37888526.14046  19180796.7914   19180793.9364
 -24885984.05147 -19372275.61942  21908664.1744   21908662.6044
 -36840731.48449 -28685470.46846  19582970.0964   19582967.2914
 04  7 29  1 16 29.9940000  0  8G10G28G23G13G19G27G 3G 8
 -13385471.57846 -10410243.21742  21846815.4794   21846812.9824
 -18357831.46148 -14281198.44243  20973914.6584   20973911.9084
 -53003200.61746 -41280955.19242  22320950.7994   22320946.4794
 -54818791.18449 -42696487.62546  19223717.2214   19223713.7094
 -26150503.35548 -20356483.78444  20640857.2054   20640852.2914
 -48724439.34849 -37946550.20346  19166626.7754   19166623.6864
 -24885619.67647 -19371991.69842  21908733.5574   21908731.7954
 -36949567.02749 -28770277.37045  19562258.9634   19562256.4634
 04  7 29  1 16 59.9940000  0  8G10G28G23G13G19G27G 3G 8
 -13462545.90247 -10470301.11342  21832148.0184   21832146.0184
 -18496983.11748 -14389628.24943  20947435.0104   20947432.0534
 -52956555.62946 -41244608.57242  22329827.1434   22329822.7954
 -54820249.43049 -42697623.94046  19223439.5104   19223436.0924
 -26224764.66048 -20414349.72244  20626725.7294   20626721.0614
 -48798711.37549 -38004424.51046  19152493.6354   19152490.0534
 -24884750.92247 -19371314.79242  21908899.4944   21908897.3034
 -37058200.90649 -28854927.12346  19541586.9864   19541584.4164
 04  7 29  1 17 29.9940000  0  8G10G28G23G13G19G27G 3G 8
 -13539038.35547 -10529905.60242  21817592.5334   21817590.2914
 -18635834.79348 -14497824.31344  20921012.4084   20921009.4204
 -52909727.80946 -41208119.42642  22338738.1114   22338734.1784
 -54821224.35949 -42698383.65146  19223253.9634   19223250.6824
 -26298456.40248 -20471771.83544  20612703.2444   20612698.0334
 -48872798.06249 -38062154.40346  19138394.8934   19138392.0614
 -24883387.09847 -19370252.12142  21909158.7134   21909156.7254
 -37166640.04749 -28939425.14245  19520951.4324   19520948.7684
 04  7 29  1 17 59.9940000  0  8G10G28G23G13G19G27G 3G 8
 -13614941.39847 -10589050.88442  21803148.7294   21803146.3224
 -18774378.20748 -14605780.17044  20894648.4474   20894645.4204
 -52862711.85946 -41171483.73942  22347684.6584   22347681.2874
 -54821709.44949 -42698761.67146  19223161.7604   19223158.1274
 -26371570.09448 -20528743.53444  20598789.1584   20598785.0254
 -48946691.28149 -38119733.53546  19124333.6504   19124330.5144
 -24881522.57047 -19368799.25542  21909513.6584   21909512.0924
 -37274876.44949 -29023765.17745  19500354.9324   19500352.1114
 04  7 29  1 18 29.9940000  0  8G10G28G23G13G19G27G 3G 8
 -13690255.14847 -10647736.90942  21788816.7604   21788814.6974
 -18912612.69548 -14713495.30543  20868343.1504   20868340.0024
 -52815509.78946 -41134702.99042  22356667.3774   22356663.0844
 -54821705.61749 -42698758.70846  19223162.5804   19223159.0534
 -26444105.17648 -20585264.37444  20584986.9944   20584982.0254
 -49020390.83649 -38177161.76446  19110308.9324   19110306.1474
 -24879159.50447 -19366957.94142  21909963.0414   21909961.8224
 -37382909.91449 -29107947.08345  19479796.9404   19479794.0654
 04  7 29  1 18 59.9940000  0  8G10G28G23G13G19G27G 3G 8
 -13764983.65647 -10705966.90242  21774596.3154   21774594.5254
 -19050541.19548 -14820972.00543  20842096.1824   20842093.4124
 -52768127.53146 -41097781.88442  22365683.6194   22365680.3074
 -54821218.15249 -42698378.88946  19223255.2684   19223252.0804
 -26516064.82048 -20641336.80944  20571293.3774   20571288.4204
 -49093899.88749 -38234441.54246  19096320.5574   19096317.4674
 -24876304.25447 -19364733.12242  21910506.8154   21910505.0184
 -37490744.03549 -29191973.65446  19459276.7444   19459273.8464
 04  7 29  1 19 29.9940000  0  8G10G28G23G13G19G27G 3G 8
 -13839128.27747 -10763741.90442  21760487.2604   21760485.1704
 -19188164.44548 -14928210.86944  20815907.8544   20815904.3654
 -52720568.43046 -41060722.93142  22374733.6504   22374729.6234
 -54820249.43049 -42697624.06846  19223439.6904   19223436.5724
 -26587449.50848 -20696961.23744  20557708.9164   20557704.3614
 -49167219.39549 -38291573.62246  19082368.4164   19082365.6934
 -24872960.09047 -19362127.30042  21911142.5804   21911141.4554
 -37598380.21949 -29275845.99846  19438794.1194   19438791.3224
 04  7 29  1 19 59.9940000  0  8G10G28G23G13G19G27G 3G 8
 -13912686.60947 -10821060.07242  21746489.4714   21746487.4164
 -19325479.00048 -15035209.17244  20789777.6114   20789774.2254
 -52672831.88345 -41023525.70942  22383817.8224   22383813.5804
 -54818797.94949 -42696493.06346  19223715.7994   19223712.6434
 -26658255.80548 -20752134.97944  20544235.5254   20544230.6274
 -49240346.22349 -38348555.56246  19068452.8154   19068449.9864
 -24869126.29347 -19359139.92842  21911872.1904   21911870.4324
 -37705814.58649 -29359561.07445  19418350.4554   19418346.9004
 04  7 29  1 20 29.9940000  0  8G10G28G23G13G19G27G 3G 8
 -13985655.09047 -10877918.65542  21732603.8224   21732601.6434
 -19462480.37948 -15141963.44644  20763706.5334   20763703.8154
 -52624916.28946 -40986188.97242  22392936.1354   22392932.3034
 -54816861.43049 -42694984.10145  19224084.3934   19224081.2874
 -26728479.44948 -20806854.69844  20530872.1354   20530867.6114
 -49313276.11749 -38405384.05446  19054574.8544   19054572.0684
 -24864801.14847 -19355769.71942  21912695.5654   21912693.4364
 -37813043.17649 -29443115.82145  19397945.2914   19397942.2834
 04  7 29  1 20 59.9940000  0  8G10G28G23G13G19G27G 3G 8
 -14058033.62547 -10934317.51942  21718830.9474   21718828.8074
 -19599167.72348 -15248473.03444  20737695.9084   20737693.0614
 -52576823.26246 -40948714.00242  22402088.4864   22402084.4434
 -54814441.04749 -42693098.11646  19224544.7364   19224541.9084
 -26798119.36748 -20861119.54444  20517620.3074   20517615.5454
 -49386008.52049 -38462058.65646  19040734.1664   19040731.3934
 -24859986.75446 -19352018.28242  21913612.1114   21913610.2754
 -37920065.91449 -29526510.15645  19377579.4004   19377576.3894
 04  7 29  1 21 29.9940000  0  8G10G28G23G13G19G27G 3G 8
 -14129824.18747 -10990258.19642  21705169.5884   21705167.6194
 -19735542.49248 -15354739.04744  20711744.8384   20711741.5574
 -52528556.95346 -40911103.97242  22411273.2834   22411268.9794
 -54811539.80549 -42690837.42546  19225096.9164   19225093.7294
 -26867176.94548 -20914930.63644  20504478.7684   20504473.9204
 -49458544.79749 -38518580.42546  19026930.9554   19026928.3854
 -24854687.31647 -19347888.89642  21914620.6274   21914618.5924
 -38026883.89549 -29609744.92846  19357252.5024   19357249.6074
 04  7 29  1 21 59.9940000  0  8G10G28G23G13G19G27G 3G 8
 -14201028.55947 -11045742.14042  21691619.2364   21691617.7174
 -19871604.87148 -15460761.63144  20685852.8384   20685849.8814
 -52480120.83246 -40873361.65742  22420490.8074   22420487.0764
 -54808160.12149 -42688203.93646  19225740.3614   19225736.9794
 -26935652.99248 -20968288.60444  20491448.3694   20491443.5804
 -49530885.66449 -38574949.92746  19013165.2364   19013161.9594
 -24848906.16447 -19343384.13742  21915720.1354   21915718.2444
 -38133497.98449 -29692820.84046  19336964.6114   19336961.5534
 04  7 29  1 22 29.9940000  0  8G10G28G23G13G19G27G 3G 8
 -14271646.37947 -11100769.02642  21678181.3464   21678179.6394
 -20007353.85548 -15566540.02144  20660020.8074   20660017.6044
 -52431516.23846 -40835487.98242  22429739.6974   22429735.3694
 -54804303.04749 -42685198.45246  19226474.3074   19226470.9794
 -27003546.21148 -21021192.40544  20478528.2134   20478524.0064
 -49603029.88749 -38631166.21246  18999436.4554   18999433.3544
 -24842644.92647 -19338505.27942  21916912.1974   21916910.0294
 -38239907.45749 -29775737.30246  19316715.3464   19316712.5334
 04  7 29  1 22 59.9940000  0  8G10G28G23G13G19G27G 3G 8
 -14341678.89847 -11155339.80342  21664854.8544   21664852.9204
 -20142789.62548 -15672074.35544  20634248.3614   20634245.1074
 -52382746.37946 -40797485.65742  22439020.4714   22439016.9164
 -54799970.44949 -42681822.41846  19227298.6274   19227295.4284
 -27070856.85248 -21073642.24544  20465719.7914   20465715.2214
 -49674978.22349 -38687229.85046  18985745.1194   18985742.1704
 -24835906.75446 -19333254.81042  21918193.5884   21918192.4944
 -38346112.63349 -29858494.57346  19296505.5494   19296502.7444
 04  7 29  1 23 29.9940000  0  8G10G28G23G13G19G27G 3G 8
 -14411125.11347 -11209453.75542  21651640.0724   21651637.4984
 -20277910.07048 -15777362.97044  20608535.3074   20608532.6704
 -52333811.85946 -40759354.91142  22448332.0804   22448327.8464
 -54795162.43449 -42678075.94246  19228213.7054   19228210.6974
 -27137583.21548 -21125636.81244  20453022.2914   20453017.4474
 -49746728.62949 -38743139.26046  18972091.3774   18972088.3734
 -24828692.51246 -19327633.34942  21919566.7364   21919565.4124
 -38452111.76249 -29941091.29346  19276334.2914   19276331.5494
 04  7 29  1 23 59.9940000  0  8G10G28G23G13G19G27G 3G 8
 -14479988.03147 -11263113.16342  21638535.5804   21638533.7214
 -20412717.41448 -15882407.61844  20582882.2684   20582879.7644
 -52284717.48846 -40721099.66542  22457674.5184   22457670.9674
 -54789883.60949 -42673962.59746  19229218.3074   19229214.8774
 -27203727.45748 -21177177.76444  20440435.1744   20440430.3974
 -49818283.32449 -38798896.16246  18958474.9714   18958472.3774
 -24821007.14546 -19321644.74942  21921029.3774   21921027.6784
 -38557907.33649 -30023529.40046  19256202.1664   19256199.1394
 04  7 29  1 24 29.9940000  0  8G10G28G23G13G19G27G 3G 8
 -14548263.38347 -11316314.76242  21625543.2524   21625541.4124
 -20547206.27348 -15987204.08944  20557290.1274   20557287.1114
 -52235460.59046 -40682717.76442  22467047.7914   22467043.9004
 -54784130.12149 -42669479.37745  19230313.4324   19230310.0614
 -27269284.34848 -21228261.05744  20427960.1584   20427955.6784
 -49889636.99249 -38854496.42546  18944897.0104   18944894.1074
 -24812848.23447 -19315287.21942  21922582.9164   21922580.4404
 -38663494.24649 -30105804.90546  19236109.6504   19236106.9004
 04  7 29  1 24 59.9940000  0  8G10G28G23G13G19G27G 3G 8
 -14615957.02747 -11369063.04242  21612661.9324   21612659.9124
 -20681381.53548 -16091756.19844  20531756.8304   20531753.7954
 -52186048.89546 -40644215.22242  22476450.6194   22476447.4324
 -54777908.50849 -42664631.40146  19231497.1904   19231493.6154
 -27334258.82048 -21278890.52144  20415595.9404   20415591.3074
 -49960794.55549 -38909943.87746  18931356.2444   18931353.1394
 -24804223.30146 -19308566.52842  21924223.6664   21924221.7604
 -38768877.49249 -30187921.71446  19216055.6044   19216053.0184
 04  7 29  1 25 29.9940000  0  8G10G28G23G13G19G27G 3G 8
 -14683063.97347 -11421354.16142  21599891.5494   21599889.5144
 -20815237.06648 -16196059.16644  20506285.4164   20506282.3774
 -52136478.80546 -40605589.33242  22485883.2834   22485880.5454
 -54771215.14549 -42659415.81946  19232770.8694   19232767.4124
 -27398644.95748 -21329061.53744  20403343.8304   20403339.3224
 -50031750.12549 -38965233.93946  18917853.8544   18917850.6114
 -24795129.29346 -19301480.31942  21925953.7524   21925951.6044
 -38874051.09849 -30269875.17546  19196041.8074   19196039.2604
 04  7 29  1 25 59.9940000  0  8G10G28G23G13G19G27G 3G 8
 -14749585.50847 -11473189.12942  21587232.7914   21587231.0414
 -20948773.02747 -16300113.12844  20480874.1044   20480871.3384
 -52086753.27046 -40566842.29542  22495346.0804   22495342.3774
 -54764052.21949 -42653834.35246  19234133.7524   19234130.4554
 -27462443.16448 -21378774.41944  20391203.5804   20391198.5534
 -50102503.94949 -39020366.78646  18904389.8544   18904386.8654
 -24785569.54746 -19294031.18842  21927773.1744   21927770.9284
 -38979015.37148 -30351665.50846  19176068.1434   19176065.0614
 04  7 29  1 26 29.9940000  0  8G10G28G23G13G19G27G 3G 8
 -14815524.71147 -11524570.35942  21574685.2684   21574683.2754
 -21081991.97348 -16403920.07244  20455523.5724   20455520.5294
 -52036877.42645 -40527978.07342  22504837.5494   22504834.8694
 -54756424.03149 -42647890.33046  19235585.6194   19235582.3184
 -27525656.05148 -21428031.22444  20379174.5414   20379169.6624
 -50173058.40649 -39075344.29946  18890963.7444   18890960.8154
 -24775549.02346 -19286223.02442  21929679.9474   21929678.5764
 -39083772.88749 -30433294.73646  19156133.3544   19156130.8074
 04  7 29  1 26 59.9940000  0  8G10G28G23G13G19G27G 3G 8
 -14880881.37947 -11575497.63342  21562248.1194   21562246.3154
 -21214892.21548 -16507478.67344  20430233.2994   20430230.2794
 -51986852.39146 -40488997.66342  22514357.7914   22514352.6434
 -54748331.25849 -42641584.31446  19237125.6504   19237122.0574
 -27588282.34848 -21476830.93744  20367256.8854   20367252.3934
 -50243411.88749 -39130165.18646  18877575.8774   18877573.0144
 -24765069.32447 -19278057.05042  21931673.9634   21931672.4364
 -39188322.34049 -30514761.83546  19136238.2134   19136235.2254
 04  7 29  1 27 29.9940000  0  8G10G28G23G13G19G27G 3G 8
 -14945658.51247 -11625973.34442  21549921.3614   21549919.7954
 -21347475.64848 -16610790.41344  20405003.7524   20405000.4324
 -51936682.79345 -40449904.60442  22523903.7134   22523900.1394
 -54739777.72749 -42634919.25346  19238753.2364   19238750.0144
 -27650324.26248 -21525175.29044  20355450.8304   20355445.8974
 -50313566.59849 -39184831.19846  18864226.0964   18864223.0454
 -24754135.09447 -19269536.91242  21933754.9084   21933753.3184
 -39292665.45749 -30596068.16046  19116382.4004   19116379.5374
 04  7 29  1 27 59.9930000  0  8G10G28G23G13G19G27G 3G 8
 -15009850.93047 -11675993.41742  21537706.2474   21537703.6734
 -21479733.89848 -16713848.75244  20379835.6144   20379832.4704
 -51886368.99245 -40410699.11842  22533477.9894   22533474.8214
 -54730761.50449 -42627893.64546  19240468.7864   19240465.6654
 -27711775.55948 -21573059.41244  20343757.1464   20343752.2864
 -50383515.95349 -39239337.19946  18850914.7634   18850911.7474
 -24742745.51647 -19260661.96642  21935922.8494   21935920.5604
 -39396795.35549 -30677208.32146  19096567.2004   19096564.2674
 04  7 29  1 28 29.9930000  0  8G10G28G23G13G19G27G 3G 8
 -15073464.14147 -11725562.14642  21525601.2944   21525598.6924
 -21611675.32848 -16816660.20744  20354728.5754   20354725.3254
 -51835910.20746 -40371380.70942  22543081.4424   22543077.0714
 -54721283.87949 -42620508.52145  19242272.4824   19242269.2944
 -27772640.56648 -21620486.70744  20332175.1304   20332170.0754
 -50453264.44549 -39293686.66846  18837642.1924   18837639.2044
 -24730902.39847 -19251433.57542  21938176.1774   21938173.8804
 -39500718.48049 -30758187.37146  19076791.1774   19076788.2394
 04  7 29  1 28 59.9930000  0  9G10G31G28G23G13G19G27G 3G 8
 -15136498.26247 -11774679.63742  21513606.0284   21513603.9394
   -267284.50056   -183496.23651  22630944.0754   22630944.2354
 -21743297.24648 -16919222.71844  20329681.4194   20329678.1104
 -51785311.75045 -40331953.46742  22552709.6854   22552705.2354
 -54711348.93749 -42612767.02845  19244163.0834   19244159.8884
 -27832919.07048 -21667456.96444  20320704.2864   20320699.1614
 -50522811.11749 -39347878.87446  18824408.1144   18824405.0564
 -24718610.76247 -19241855.73542  21940514.9034   21940513.3724
 -39604432.91449 -30839003.80646  19057054.9034   19057052.1694
 04  7 29  1 29 29.9930000  0  9G10G31G28G23G13G19G27G 3G 8
 -15198962.59847 -11823353.15642  21501719.3174   21501717.5244
   -442584.87946   -320093.71541  22597585.0834   22597585.8644
 -21874607.78948 -17021542.57944  20304693.6854   20304690.3414
 -51734584.74245 -40292426.08642  22562361.9034   22562358.8144
 -54700966.96949 -42604677.21045  19246138.6614   19246135.4544
 -27892619.49648 -21713976.79944  20309343.4504   20309338.8644
 -50592164.27749 -39401920.30146  18811210.5674   18811207.6854
 -24705881.72347 -19231936.99542  21942936.9664   21942935.2004
 -39707947.03949 -30919664.14946  19037356.8104   19037354.2204
 04  7 29  1 29 59.9930000  0  9G10G31G28G23G13G19G27G 3G 8
 -15260866.54347 -11871589.99142  21489939.2324   21489937.7594
   -617933.85946   -456728.97141  22564217.0914   22564217.5324
 -22005615.08648 -17123626.15644  20279763.7004   20279760.3374
 -51683740.30545 -40252807.05742  22572038.1384   22572034.1464
 -54690148.02749 -42596246.89345  19248197.7714   19248194.5284
 -27951750.44948 -21760052.85944  20298091.1924   20298086.4464
 -50661331.81649 -39455817.08546  18798048.2004   18798045.2714
 -24692726.41847 -19221686.16542  21945441.0054   21945438.7164
 -39811269.14549 -31000174.87246  19017695.2004   19017692.4034
 04  7 29  1 30 29.9930000  0  9G10G31G28G23G13G19G27G 3G 8
 -15322209.03147 -11919389.36042  21478266.7324   21478264.3684
   -793326.93446   -593398.69142  22530841.3334   22530841.3844
 -22136316.60948 -17225471.45644  20254891.9504   20254888.7244
 -51632778.12945 -40213096.42741  22581736.3644   22581731.6614
 -54678891.53949 -42587475.64145  19250339.4894   19250336.3494
 -28010309.66048 -21805683.41544  20286947.8644   20286943.2324
 -50730311.28549 -39509567.32246  18784921.9194   18784919.0564
 -24679145.08647 -19211103.33942  21948024.8174   21948022.9584
 -39914396.47349 -31080533.81846  18998070.7554   18998068.0604
 04  7 29  1 30 59.9930000  0  9G10G31G28G23G13G19G27G 3G 8
 -15382988.43047 -11966749.92542  21466699.8174   21466698.5214
   -968759.55146   -730099.20541  22497456.8414   22497457.6894
 -22266709.89848 -17327076.58344  20230079.0444   20230075.6694
 -51581698.55945 -40173294.25042  22591455.0834   22591451.8924
 -54667197.39549 -42578363.35445  19252565.0524   19252561.5754
 -28068294.78148 -21850866.63244  20275913.8494   20275908.9154
 -50799100.03549 -39563168.94746  18771831.6534   18771829.0134
 -24665138.03547 -19200188.79942  21950690.7244   21950688.4664
 -40017326.70349 -31160739.18446  18978483.9744   18978480.9664
 04  7 29  1 31 29.9930000  0  9G10G31G28G23G13G19G27G 3G 8
 -15443207.03547 -12013673.53842  21455241.3334   21455239.4624
  -1144230.66446   -866829.76141  22464066.0754   22464065.8374
 -22396795.78148 -17428442.17444  20205323.7864   20205321.0794
 -51530505.00446 -40133403.28742  22601198.7084   22601194.2594
 -54655068.21149 -42568912.06545  19254873.2944   19254869.8024
 -28125706.99649 -21895603.42145  20264988.5524   20264983.6894
 -50867698.87949 -39616622.59646  18758777.9034   18758775.0244
 -24650709.17647 -19188945.58142  21953436.1614   21953435.1924
 -40120060.57849 -31240791.54646  18958934.1224   18958931.4894
 04  7 29  1 31 59.9930000  0  8G10G31G28G13G19G27G 3G 8
 -15502856.31647 -12060153.49442  21443890.3414   21443888.5214
  -1319728.45746  -1003581.01141  22430669.4034   22430669.4934
 -22526564.25848 -17529560.43344  20180630.7324   20180626.9894
 -54642496.37549 -42559115.86545  19257265.3334   19257262.3684
 -28182536.97748 -21939886.53244  20254174.1464   20254169.3884
 -50936097.80549 -39669920.45946  18745762.1534   18745758.7904
 -24635851.78547 -19177368.43042  21956263.3884   21956262.2674
 -40222588.25049 -31320683.22546  18939423.9424   18939421.0604
 04  7 29  1 32 29.9930000  0  8G10G31G28G13G19G27G 3G 8
 -15561937.25047 -12106190.58442  21432648.0914   21432645.5404
  -1495250.98446  -1140351.62342  22397268.8334   22397268.3804
 -22656015.55148 -17630431.53544  20155996.3414   20155993.2674
 -54629484.10949 -42548976.46645  19259741.6694   19259738.5604
 -28238785.06648 -21983716.22045  20243470.5054   20243465.7004
 -51004296.63349 -39723062.40046  18732784.3574   18732781.3294
 -24620568.65247 -19165459.52242  21959171.9584   21959170.5604
 -40324909.81649 -31400414.31446  18919952.8174   18919949.8334
 04  7 29  1 32 59.9930000  0  8G10G31G28G13G19G27G 3G 8
 -15620440.82047 -12151777.76642  21421514.4744   21421512.7634
  -1670785.81646  -1277131.69642  22363865.7864   22363865.3924
 -22785139.18048 -17731047.33044  20131425.1464   20131422.0444
 -54616022.67649 -42538487.07345  19262303.2244   19262300.3724
 -28294441.30948 -22027084.73145  20232879.3024   20232874.5284
 -51072285.01249 -39776040.36346  18719846.4504   18719843.6384
 -24604852.05147 -19153212.85942  21962162.9034   21962160.8924
 -40427014.71549 -31479976.55046  18900522.8254   18900519.9544
 04  7 29  1 33 29.9930000  0  8G10G31G28G13G19G27G 3G 8
 -15678359.97347 -12196909.59242  21410492.7634   21410490.9934
  -1846322.53946  -1413913.44542  22330461.0214   22330461.1574
 -22913926.54748 -17831401.07744  20106917.6694   20106914.4854
 -54602106.24249 -42527643.13245  19264951.8494   19264948.6614
 -28349497.43448 -22069985.60944  20222402.5914   20222398.0674
 -51140054.10549 -39828847.45546  18706950.3964   18706947.4394
 -24588696.58646 -19140624.23242  21965237.1384   21965235.9784
 -40528894.73849 -31559363.56946  18881135.6534   18881132.9974
 04  7 29  1 33 59.9930000  0  8G10G31G28G13G19G27G 3G 8
 -15735693.18047 -12241584.78742  21399582.9114   21399581.0484
  -2021856.37545  -1550692.86841  22297058.8574   22297058.2824
 -23042375.02748 -17931490.76544  20082474.8724   20082471.6654
 -54587734.03949 -42516444.04645  19267686.6774   19267683.4824
 -28403951.42648 -22112417.30144  20212040.6074   20212035.8254
 -51207601.33249 -39881481.65746  18694096.7784   18694093.8064
 -24572102.45746 -19127693.72042  21968395.1384   21968393.7474
 -40630546.82449 -31638572.98546  18861791.8174   18861789.1104
 04  7 29  1 34 29.9930000  0  8G10G31G28G13G19G27G 3G 8
 -15792445.84047 -12285807.66442  21388782.9424   21388781.3574
  -2197389.46146  -1687471.65641  22263655.2244   22263654.8024
 -23170488.90648 -18031319.73044  20058095.3644   20058092.3494
 -54572912.06249 -42504894.48845  19270507.0674   19270504.1224
 -28457807.80548 -22154383.32244  20201791.7244   20201786.8844
 -51274930.37949 -39933945.85246  18681284.1924   18681281.4274
 -24555076.59446 -19114426.93242  21971635.7394   21971633.3804
 -40731975.41449 -31717608.24146  18842490.5284   18842487.7514
 04  7 29  1 34 59.9930000  0  8G10G31G28G13G19G27G 3G 8
 -15848619.29347 -12329579.20642  21378093.8724   21378092.0174
  -2372919.82446  -1824248.46041  22230253.5444   22230252.3144
 -23298268.38348 -18130888.13244  20033779.7944   20033776.6304
 -54557642.95349 -42492996.51645  19273412.7864   19273409.5284
 -28511067.26248 -22195884.21244  20191656.9034   20191652.1964
 -51342041.36749 -39986240.13146  18668513.7394   18668510.6734
 -24537622.21546 -19100826.12642  21974956.1304   21974955.0834
 -40833180.16849 -31796469.07746  18823232.1534   18823229.1854
 04  7 29  1 35 29.9930000  0  8G10G31G28G13G19G27G 3G 8
 -15904213.10547 -12372899.05242  21367514.7634   21367512.9824
  -2548443.35246  -1961019.84441  22196852.1144   22196851.7714
 -23425711.32848 -18230194.29644  20009528.3884   20009525.0674
 -54541926.84449 -42480750.23245  19276403.4424   19276400.6264
 -28563728.14848 -22236918.67344  20181636.0914   20181631.1464
 -51408932.05149 -40038362.74946  18655784.6774   18655781.9394
 -24519740.44145 -19086892.28942  21978358.7944   21978357.4854
 -40934158.90649 -31875153.79846  18804016.4114   18804013.5444
 04  7 29  1 35 59.9930000  0  8G10G31G28G13G19G27G 3G 8
 -15959229.96547 -12415769.32542  21357045.2714   21357043.5644
  -2723959.32046  -2097785.37442  22163452.3964   22163451.8924
 -23552819.13748 -18329239.30444  19985340.4274   19985337.1924
 -54525766.88349 -42468158.08345  19279478.3964   19279475.3964
 -28615792.26648 -22277488.12145  20171728.5214   20171723.6384
 -51475603.40249 -40090314.44346  18643097.6464   18643094.4424
 -24501435.18046 -19072628.51642  21981842.7004   21981840.6074
 -41034913.18449 -31953663.62246  18784843.5524   18784840.6734
 04  7 29  1 36 29.9930000  0  8G10G31G28G13G19G27G 3G 8
 -16013677.41447 -12458195.93542  21346684.0674   21346682.5324
  -2899471.63746  -2234548.05142  22130053.1074   22130052.6034
 -23679598.04748 -18428028.02644  19961214.9354   19961211.6104
 -54509171.37549 -42455226.54745  19282636.8174   19282633.3024
 -28667266.16448 -22317597.66244  20161933.3574   20161928.3644
 -51542061.36749 -40142099.87346  18630451.1304   18630448.0834
 -24482715.67246 -19058041.90842  21985404.9274   21985403.3064
 -41135448.84449 -32032003.08546  18765712.1144   18765709.1384
 04  7 29  1 36 59.9930000  0  8G10G31G28G13G19G27G 3G 8
 -16067551.98447 -12500176.11842  21336432.3804   21336430.3884
  -3074973.59446  -2371302.60442  22096655.8964   22096655.7824
 -23806042.97348 -18526556.52344  19937153.7474   19937150.2984
 -54492137.82049 -42441953.67145  19285878.0754   19285874.7554
 -28718145.80948 -22357244.14044  20152251.1534   20152246.1344
 -51608300.98849 -40193715.16846  18617846.3574   18617843.1104
 -24463580.02746 -19043131.03542  21989046.5134   21989044.3574
 -41235760.77349 -32110168.22546  18746623.3884   18746620.7124
 04  7 29  1 37 29.9930000  0  8G10G31G28G13G19G27G 3G 8
 -16120855.23447 -12541711.15542  21326289.0524   21326287.0524
  -3250462.87946  -2508047.29842  22063261.7714   22063261.3964
 -23932154.18048 -18624824.96844  19913154.8964   19913151.9624
 -54474668.33649 -42428341.13445  19289202.4744   19289199.4114
 -28768431.55948 -22396427.85544  20142682.3174   20142677.5994
 -51674321.94949 -40245160.07346  18605282.8964   18605280.0444
 -24444031.32445 -19027898.34042  21992765.7944   21992764.4034
 -41335848.70749 -32188158.81846  18727577.4974   18727574.6694
 04  7 29  1 37 59.9930000  0  8G10G31G28G13G19G27G 3G 8
 -16173586.82847 -12582800.69342  21316254.7944   21316252.8174
  -3425935.77346  -2644779.27242  22029869.8024   22029869.6424
 -24057930.00049 -18722832.07344  19889220.7554   19889217.3994
 -54456763.35549 -42414389.22345  19292609.4424   19292606.2594
 -28818122.35548 -22435147.95745  20133226.2084   20133221.4934
 -51740122.35549 -40296433.12546  18592761.3574   18592758.3684
 -24424070.45346 -19012344.45242  21996564.8494   21996563.1184
 -41435711.20349 -32265973.75446  18708574.1774   18708571.2744
 04  7 29  1 38 29.9930000  0  8G10G31G28G13G19G27G 3G 8
 -16225747.82447 -12623445.66442  21306328.4424   21306326.6534
  -3601389.84447  -2781496.59142  21996482.4504   21996480.8294
 -24183370.20748 -18820577.66044  19865350.1144   19865346.9074
 -54438424.99249 -42400099.62245  19296099.0834   19296096.0994
 -28867218.67648 -22473404.84144  20123884.0914   20123879.0714
 -51805701.92249 -40347534.08246  18580281.9664   18580279.1894
 -24403700.50445 -18996471.78742  22000441.0994   22000439.4154
 -41535347.77049 -32343612.63046  18689613.7944   18689611.1304
 04  7 29  1 38 59.9930000  0  8G10G31G28G13G19G27G 3G 8
 -16277340.89547 -12663648.05942  21296510.8574   21296508.8064
  -3776824.09047  -2918198.43242  21963098.5054   21963096.8294
 -24308476.16049 -18918062.79444  19841543.4424   19841540.1074
 -54419656.23849 -42385474.65145  19299671.0994   19299668.0244
 -28915722.09048 -22511199.72044  20114653.7084   20114649.1924
 -51871061.22749 -40398463.41746  18567844.2784   18567841.5834
 -24382925.62146 -18980283.59942  22004395.0364   22004393.5794
 -41634759.18749 -32421076.07546  18670696.5054   18670693.6424
 04  7 29  1 39 29.9930000  0  8G10G31G28G13G19G27G 3G 8
 -16328367.50447 -12703409.07442  21286801.0134   21286799.0014
  -3952236.39146  -3054883.14842  21929717.7944   21929717.9034
 -24433247.69548 -19015287.33044  19817800.1614   19817797.0244
 -54400459.75048 -42370516.37845  19303323.7394   19303320.6104
 -28963633.49248 -22548533.28045  20105536.2554   20105531.9234
 -51936200.16849 -40449221.04046  18555448.9354   18555446.1774
 -24361748.57046 -18963782.02142  22008424.1464   22008423.4114
 -41733945.59049 -32498364.16546  18651822.2004   18651819.3604
 04  7 29  1 39 59.9930000  0  8G10G31G28G13G19G27G 3G 8
 -16378828.81647 -12742729.60142  21277198.3964   21277196.8454
  -4127624.06647  -3191548.74842  21896343.2944   21896341.4744
 -24557684.47748 -19112251.03944  19794120.4744   19794117.3334
 -54380837.25048 -42355226.14745  19307058.1464   19307055.1814
 -29010952.91848 -22585405.56644  20096531.8024   20096527.3174
 -52001117.96549 -40499806.34046  18543095.5604   18543092.6694
 -24340171.67646 -18946968.88542  22012529.6924   22012528.4894
 -41832906.00848 -32575476.18546  18632990.4824   18632987.3924
 04  7 29  1 40 29.9930000  0  8G10G31G28G13G19G27G 3G 8
 -16428726.14847 -12781610.64842  21267702.7554   21267701.3494
  -4302984.73847  -3328193.30942  21862972.7474   21862971.4624
 -24681786.30949 -19208953.72344  19770504.9274   19770501.5754
 -54360790.56648 -42339605.38945  19310872.6074   19310869.7674
 -29057680.93748 -22621817.00944  20087639.7714   20087635.1734
 -52065813.94949 -40550218.81046  18530784.2944   18530781.5874
 -24318197.78945 -18929846.41742  22016711.5054   22016709.4114
 -41931640.18749 -32652411.90746  18614201.8884   18614198.9314
 04  7 29  1 40 59.9930000  0  8G10G31G28G13G19G27G 3G 8
 -16478062.25847 -12820054.39742  21258314.7164   21258312.9664
  -4478317.21547  -3464815.84442  21829607.9274   21829607.0404
 -24805554.30948 -19305396.29044  19746952.6224   19746948.9824
 -54340322.86748 -42323656.55345  19314767.7004   19314764.5244
 -29103819.21948 -22657768.92544  20078859.8414   20078855.0834
 -52130288.96549 -40600459.08846  18518515.1694   18518512.1964
 -24295830.94945 -18912417.75242  22020968.7244   22020966.4624
 -42030148.79349 -32729171.85646  18595456.4424   18595453.6894
 04  7 29  1 41 29.9920000  0  8G10G31G28G13G19G27G 3G 8
 -16526834.49647 -12858058.75942  21249033.5554   21249032.2154
  -4653610.85947  -3601408.14342  21796250.3594   21796249.6374
 -24928981.91048 -19401573.62444  19723464.9534   19723461.7664
 -54319434.55548 -42307379.97945  19318742.5474   19318739.2624
 -29149364.40648 -22693258.68844  20070192.7034   20070188.3834
 -52194538.22748 -40650523.44546  18506288.6414   18506285.8634
 -24273072.54346 -18894683.95742  22025298.7974   22025297.1174
 -42128426.34849 -32805751.75546  18576754.6334   18576752.0314
 04  7 29  1 41 59.9920000  0  8G10G31G28G13G19G27G 3G 8
 -16575045.08247 -12895625.44442  21239859.5554   21239857.6374
  -4828872.71147  -3737975.66342  21762899.4614   21762898.7464
 -25052075.11748 -19497490.37545  19700040.7744   19700037.6064
 -54298123.96948 -42290774.36045  19322797.8524   19322794.9924
 -29194317.77748 -22728287.30744  20061638.8134   20061634.0044
 -52258562.90648 -40700412.81546  18494105.3594   18494102.8634
 -24249921.43046 -18876644.19142  22029705.1564   22029702.6684
 -42226476.19149 -32882154.24246  18558096.6644   18558093.6684
 04  7 29  1 42 29.9920000  0  8G10G31G28G13G19G27G 3G 8
 -16622691.78947 -12932752.77242  21230792.9384   21230791.0434
  -5004092.47747  -3874510.44842  21729555.9774   21729554.6884
 -25174827.43048 -19593141.50444  19676682.2114   19676678.8634
 -54276392.04749 -42273840.42345  19326932.8914   19326930.6024
 -29238676.29748 -22762852.39444  20053197.5164   20053192.9534
 -52322358.44949 -40750123.63146  18481965.3994   18481962.6294
 -24226379.09845 -18858299.51642  22034183.9694   22034182.7624
 -42324292.30149 -32958374.58246  18539482.6024   18539479.9414
 04  7 29  1 42 59.9920000  0  8G10G31G28G13G19G27G 3G 8
 -16669781.50447 -12969446.07642  21221832.2194   21221830.0944
  -5179273.45347  -4011014.93342  21696219.5394   21696219.0704
 -25297244.55948 -19688531.44444  19653386.9224   19653383.6214
 -54254246.55949 -42256584.22545  19331147.5004   19331144.6844
 -29282446.23448 -22796958.84444  20044868.4224   20044864.1024
 -52385930.02049 -40799659.93546  18469868.1174   18469865.4654
 -24202454.13345 -18839656.72942  22038736.9144   22038736.4064
 -42421879.93049 -33034416.88046  18520912.3594   18520909.6724
 04  7 29  1 43 29.9920000  0  8G10G31G28G13G19G27G 3G 8
 -16716313.73047 -13005704.96342  21212977.3134   21212974.9224
  -5354410.89147  -4147485.56542  21662892.4534   21662890.6214
 -25419324.20748 -19783658.41145  19630155.6024   19630152.4924
 -54231687.04749 -42239005.42345  19335440.7114   19335437.5204
 -29325626.02748 -22830605.43745  20036651.8594   20036647.1644
 -52449274.93749 -40849019.62446  18457814.1724   18457811.0004
 -24178147.12545 -18820716.25642  22043363.6024   22043361.0594
 -42519237.25049 -33110279.72846  18502385.8054   18502383.0594
 04  7 29  1 43 59.9920000  0  8G10G31G28G13G19G27G 3G 8
 -16762291.37947 -13041531.73742  21204228.0554   21204225.7504
  -5529503.69947  -4283921.40442  21629574.1254   21629572.4844
 -25541067.56648 -19878523.34945  19606988.9694   19606985.3994
 -54208717.42649 -42221107.05544  19339811.8054   19339808.4184
 -29368217.75448 -22863793.80944  20028546.7344   20028541.9344
 -52512393.84849 -40898203.20346  18445802.8594   18445800.1994
 -24153462.08246 -18801481.11542  22048060.8754   22048058.7034
 -42616364.31249 -33185963.15846  18483903.2744   18483900.7384
 04  7 29  1 44 29.9920000  0  8G10G31G28G13G19G27G 3G 8
 -16807715.17247 -13076926.94242  21195584.2894   21195582.3874
  -5704548.84847  -4420320.08542  21596262.9064   21596261.9384
 -25662473.98448 -19973125.72445  19583886.0704   19583882.3594
 -54185338.96949 -42202890.10545  19344260.4144   19344256.8994
 -29410221.37148 -22896523.91144  20020553.6334   20020548.7074
 -52575285.66449 -40947209.81646  18433835.2664   18433832.1524
 -24128401.22744 -18781953.20742  22052829.0784   22052828.0514
 -42713260.31249 -33261466.52546  18465464.6174   18465461.7034
 04  7 29  1 44 59.9920000  0  8G10G31G28G13G19G27G 3G 8
 -16852583.35547 -13111889.15242  21187046.3364   21187044.5554
  -5879540.55547  -4556677.14642  21562962.7974   21562962.4494
 -25783540.04749 -20067462.89445  19560847.8754   19560844.6134
 -54161550.42648 -42184353.60145  19348787.0634   19348784.3484
 -29451634.15248 -22928793.62044  20012672.6954   20012668.4414
 -52637946.63749 -40996036.55646  18421910.9064   18421908.4264
 -24102963.91845 -18762132.06442  22057669.0634   22057668.4024
 -42809921.62549 -33336787.02546  18447070.4614   18447068.1494
 04  7 29  1 45 29.9920000  0  8G10G31G28G13G19G27G 3G 8
 -16896900.24647 -13146421.81542  21178613.2744   21178611.1604
  -6054478.93747  -4692992.63642  21529674.0164   21529672.5904
 -25904268.46948 -20161536.97245  19537873.9144   19537870.7584
 -54137356.62148 -42165501.32945  19353391.2504   19353387.9384
 -29492459.53948 -22960605.60444  20004904.1414   20004899.6764
 -52700378.71549 -41044684.92646  18410030.4064   18410027.7344
 -24077155.85545 -18742021.86742  22062580.2584   22062579.5204
 -42906350.16049 -33411926.14446  18428720.6564   18428717.7274
 04  7 29  1 45 59.9920000  0  8G10G31G28G13G19G27G 3G 8
 -16940663.73447 -13180523.25342  21170284.8444   21170283.0984
  -6229358.13347  -4829262.01842  21496395.1884   21496393.3834
 -26024655.71148 -20255345.18645  19514964.7744   19514961.6724
 -54112755.95348 -42146332.01544  19358072.2894   19358069.4964
 -29532694.69948 -22991957.70045  19997247.9144   19997243.4184
 -52762577.94949 -41093151.87846  18398194.7274   18398191.6174
 -24050976.26646 -18721622.23542  22067562.5474   22067561.2894
 -43002541.96549 -33486880.78646  18410416.0864   18410413.2344
 04  7 29  1 46 29.9920000  0  8G10G31G28G13G19G27G 3G 8
 -16983880.13747 -13214198.40342  21162060.6724   21162059.2384
  -6404180.11347  -4965486.86642  21463127.0394   21463125.8994
 -26144706.20748 -20348891.00245  19492120.0784   19492116.5904
 -54087755.10948 -42126850.88345  19362829.9614   19362827.0394
 -29572345.01648 -23022854.04844  19989702.5944   19989698.3134
 -52824548.27049 -41141440.44046  18386402.1884   18386399.1564
 -24024432.56245 -18700938.85742  22072614.0634   22072612.5744
 -43098501.37949 -33561654.34946  18392155.7894   18392153.2314
 04  7 29  1 46 59.9920000  0  8G10G31G28G13G19G27G 3G 8
 -17026544.10547 -13247443.07342  21153942.2424   21153940.6374
  -6578935.53547  -5101659.82142  21429872.0944   21429870.8754
 -26264412.98048 -20442168.98545  19469340.3754   19469336.7894
 -54062349.87948 -42107054.62044  19367664.3054   19367661.1844
 -29611404.40248 -23053289.93644  19982269.4774   19982265.2504
 -52886282.20349 -41189544.81346  18374654.3594   18374651.7664
 -23997520.72744 -18679968.57642  22077733.7974   22077733.6094
 -43194220.56249 -33636240.72146  18373941.0474   18373938.1454
 04  7 29  1 47 29.9920000  0  8G10G31G28G13G19G27G 3G 8
 -17068660.38347 -13280260.98442  21145927.7894   21145926.3594
  -6753624.89547  -5237781.28942  21396629.8444   21396629.1064
 -26383778.98048 -20535181.43045  19446626.1254   19446622.9304
 -54036545.14848 -42086947.08245  19372574.7504   19372572.2664
 -29649876.51248 -23083268.23044  19974948.7744   19974944.3634
 -52947782.27349 -41237466.94346  18362951.2744   18362948.4184
 -23970246.45744 -18658715.97142  22082924.6724   22082923.7894
 -43289702.46949 -33710642.20146  18355771.5554   18355768.3954
 04  7 29  1 47 59.9920000  0  8G10G31G28G13G19G27G 3G 8
 -17110232.37547 -13312654.75442  21138017.4144   21138015.1494
  -6928247.54747  -5373850.79542  21363399.1884   21363399.2814
 -26502806.25848 -20627929.94545  19423975.6884   19423971.9924
 -54010344.89148 -42066531.33945  19377560.6644   19377557.3094
 -29687763.97348 -23112790.93644  19967739.1254   19967734.5044
 -53009049.75449 -41285207.84546  18351292.6174   18351289.6524
 -23942614.58245 -18637184.62942  22088183.4224   22088181.7194
 -43384948.24249 -33784859.69046  18337646.7034   18337644.2194
 04  7 29  1 48 29.9920000  0  8G10G31G28G13G19G27G 3G 8
 -17151258.68747 -13344623.33642  21130210.2744   21130208.2544
  -7102798.03547  -5509864.06642  21330184.8134   21330183.0164
 -26621491.71149 -20720412.09845  19401390.9144   19401387.2154
 -53983748.28148 -42045806.73944  19382621.7424   19382619.0204
 -29725064.94548 -23141856.63344  19960640.7894   19960636.0274
 -53070080.96549 -41332764.63846  18339678.5554   18339675.7854
 -23914624.64846 -18615374.34842  22093509.1024   22093508.3164
 -43479954.13349 -33858890.25246  18319567.6094   18319564.8164
 04  7 29  1 48 59.9920000  0  8G10G31G28G13G19G27G 3G 8
 -17191740.76647 -13376167.83042  21122506.8524   21122504.8364
  -7277273.38747  -5645818.79342  21296983.0164   21296981.1414
 -26739835.03549 -20812627.64744  19378870.9224   19378867.3134
 -53956757.19548 -42024774.77344  19387757.7974   19387755.0244
 -29761779.67648 -23170465.51644  19953654.2664   19953649.7774
 -53130875.19549 -41380136.77046  18328110.0634   18328106.8914
 -23886279.35245 -18593287.17342  22098903.5784   22098902.0984
 -43574719.87949 -33932733.67946  18301534.4774   18301531.2624
 04  7 29  1 49 29.9920000  0  9G10G31G28G29G13G19G27G 3G 8
 -17231683.23047 -13407291.84142  21114905.9614   21114904.2314
  -7451673.85947  -5781715.13942  21263795.5314   21263793.7584
 -26857838.82849 -20904578.62345  19356415.1174   19356411.8524
   -242892.57855   -166644.85351  22334098.3834   22334096.0514
 -53929376.60548 -42003439.27744  19392968.6254   19392965.7854
 -29797911.66047 -23198620.31044  19946778.7894   19946774.1214
 -53191434.25448 -41427325.64746  18316586.0864   18316583.3594
 -23857584.39546 -18570927.46242  22104364.1174   22104362.5864
 -43669247.01249 -34006391.19046  18283546.4924   18283543.7974
 04  7 29  1 49 59.9920000  0  9G10G31G28G29G13G19G27G 3G 8
 -17271097.57847 -13438004.32542  21107405.5554   21107403.8794
  -7626006.88347  -5917558.96542  21230620.4144   21230619.8054
 -26975513.22349 -20996272.96145  19334022.5474   19334019.2344
   -402074.02045   -290682.16841  22303807.0004   22303804.6804
 -53901618.62948 -41981809.73044  19398250.8674   19398247.9924
 -29833472.01248 -23226329.68644  19940011.8284   19940007.2114
 -53251767.82049 -41474338.82446  18305104.8444   18305102.2664
 -23828552.46946 -18548305.16142  22109888.5394   22109886.6064
 -43763545.15249 -34079870.26146  18265602.0084   18265599.2464
 04  7 29  1 50 29.9920000  0  9G10G31G28G29G13G19G27G 3G 8
 -17309991.09847 -13468311.02342  21100004.1094   21100002.6524
  -7800275.67647  -6053352.72842  21197458.4454   21197457.6094
 -27092863.97349 -21087715.07145  19311691.3754   19311687.7234
   -561150.69545   -414637.96341  22273534.8594   22273533.0204
 -53873491.26648 -41959892.34044  19403603.3594   19403600.2154
 -29868467.15648 -23253598.62544  19933352.7344   19933347.7074
 -53311880.76249 -41521180.07846  18293665.7344   18293662.6454
 -23799192.19146 -18525427.05542  22115475.0864   22115474.2544
 -43857619.55949 -34153174.98646  18247700.2194   18247697.4344
 04  7 29  1 50 59.9920000  0  9G10G31G28G29G13G19G27G 3G 8
 -17348362.68047 -13498210.94342  21092702.3134   21092701.0984
  -7974474.64547  -6189092.05242  21164309.7114   21164308.4104
 -27209888.09849 -21178902.68945  19289422.5244   19289419.0244
   -720117.41845   -538508.06241  22243284.8364   22243283.4814
 -53844993.90648 -41937686.65644  19409026.1804   19409023.3284
 -29902895.19147 -23280425.68244  19926801.0634   19926796.5314
 -53371769.71549 -41567846.80746  18282269.4774   18282266.5744
 -23769503.35245 -18502292.95242  22121124.9924   22121123.9844
 -43951466.80549 -34226302.71746  18229841.8524   18229839.1604
 04  7 29  1 51 29.9920000  0  9G10G31G28G29G13G19G27G 3G 8
 -17386217.99647 -13527708.63042  21085499.3054   21085497.4814
  -8148605.17647  -6324778.08742  21131173.5864   21131172.1724
 -27326589.46549 -21269838.79245  19267215.5004   19267211.7154
   -878976.09446   -662293.97942  22213055.3994   22213052.7774
 -53816132.38748 -41915197.19844  19414518.1254   19414515.3594
 -29936760.95748 -23306814.60644  19920356.7974   19920351.8364
 -53431437.86349 -41614341.47246  18270914.5394   18270911.6804
 -23739492.70746 -18478908.05941  22126835.9774   22126834.6334
 -44045090.23449 -34299256.04046  18212025.5634   18212022.7234
 04  7 29  1 51 59.9920000  0  9G10G31G28G29G13G19G27G 3G 8
 -17423552.98847 -13556800.84942  21078394.8994   21078393.2774
  -8322658.67647  -6460404.05742  21098052.2744   21098051.0434
 -27442962.08649 -21360518.74745  19245069.9304   19245066.4224
  -1037718.79746   -785989.54342  22182847.2814   22182845.9574
 -53786903.25848 -41892421.29144  19420080.5554   19420077.3524
 -29970059.50848 -23332761.53644  19914020.0084   19914015.8564
 -53490878.64149 -41660658.95846  18259603.4534   18259600.7384
 -23709157.07046 -18455269.95642  22132609.4924   22132607.4884
 -44138483.08249 -34372029.68546  18194253.7034   18194251.0084
 04  7 29  1 52 29.9920000  0  8G10G31G28G29G13G19G27G 8
 -17460364.98047 -13585485.55042  21071389.3914   21071387.4734
  -8496628.10947  -6595964.58942  21064946.6174   21064945.8794
 -27559001.75849 -21450939.25245  19222988.4534   19222984.7974
  -1196338.98846   -909589.59042  22152662.8834   22152660.9264
 -53757304.07048 -41869357.04044  19425712.8994   19425710.1564
 -30002787.26648 -23358263.69344  19907792.1804   19907787.7934
 -53550086.94548 -41706795.31046  18248336.6644   18248333.7974
 -44231640.45349 -34444619.85446  18176526.2584   18176523.5474
 04  7 29  1 52 59.9920000  0  8G10G31G28G29G13G19G27G 8
 -17496653.67247 -13613762.46942  21064484.0944   21064481.9414
  -8670508.52347  -6731455.72742  21031858.3594   21031857.5984
 -27674705.86749 -21541098.27645  19200970.8204   19200967.3874
  -1354832.42246  -1033090.93342  22122502.8594   22122500.7034
 -53727334.81248 -41846004.41344  19431416.3054   19431412.8244
 -30034942.85547 -23383319.99544  19901673.2814   19901668.9104
 -53609059.64549 -41752748.06846  18237114.4694   18237111.7194
 -44324559.08249 -34517023.97346  18158844.7814   18158841.7384
 04  7 29  1 53 29.9920000  0  8G10G31G28G29G13G19G27G 8
 -17532412.40647 -13641626.48742  21057679.2664   21057677.3954
  -8844289.34847  -6866869.23542  20998789.0864   20998787.6804
 -27790066.64149 -21630989.77545  19179018.4534   19179014.8164
  -1513188.85546  -1156485.50342  22092368.3444   22092366.4184
 -53696989.70748 -41822358.92444  19437190.7424   19437187.6604
 -30066519.18447 -23407924.93644  19895664.6174   19895659.9924
 -53667788.25049 -41798510.62446  18225938.8994   18225935.6494
 -44417230.17649 -34589235.22446  18141209.9454   18141207.2664
 04  7 29  1 53 59.9920000  0  8G10G31G28G29G13G19G27G 8
 -17567630.94947 -13669069.45842  21050977.2584   21050975.3404
  -9017955.69546  -7002193.56942  20965740.6414   20965739.6374
 -27905071.85249 -21720604.20345  19157133.5004   19157129.8094
  -1671394.28946  -1279762.36842  22062262.6024   22062260.6134
 -53666258.33248 -41798412.43644  19443038.5004   19443035.4814
 -30097505.25047 -23432069.94344  19889768.2894   19889763.3714
 -53726259.70749 -41844072.80746  18214812.2114   18214809.1994
 -44509641.58649 -34661244.11346  18123624.7344   18123621.9534
 04  7 29  1 54 29.9920000  0  8G10G31G28G29G13G19G27G 8
 -17602309.96147 -13696092.10742  21044378.3674   21044376.4264
  -9191503.70747  -7137425.67342  20932715.6804   20932714.6604
 -28019720.39149 -21809940.70545  19135316.6564   19135313.1804
  -1829445.34847  -1402919.05842  22032186.9384   22032184.6414
 -53635142.50048 -41774166.37644  19448959.3914   19448956.6214
 -30127900.83647 -23455754.81144  19883983.9774   19883979.2774
 -53784472.22749 -41889433.21346  18203734.6174   18203731.7344
 -44601791.21149 -34733049.01446  18106089.2894   18106086.3054
 04  7 29  1 54 59.9910000  0  8G10G31G28G29G13G19G27G 8
 -17636455.32847 -13722698.89442  21037880.7614   21037878.6874
  -9364930.00847  -7272562.96142  20899714.0584   20899712.8984
 -28134013.50049 -21899000.24245  19113567.1834   19113563.6754
  -1987339.52047  -1525953.38842  22002140.4334   22002137.9684
 -53603650.43448 -41749627.14844  19454952.5504   19454949.5304
 -30157711.15248 -23478983.65544  19878310.9414   19878306.5504
 -53842428.18449 -41934593.69646  18192706.0974   18192703.2574
 -44693679.98849 -34804650.65546  18088603.5034   18088600.4604
 04  7 29  1 55 29.9910000  0  8G10G31G28G29G13G19G27G 8
 -17670070.23447 -13748892.35442  21031483.8554   21031481.9684
  -9538242.54347  -7407611.56442  20866733.3234   20866732.7224
 -28247957.85249 -21987788.03345  19091884.5584   19091881.4524
  -2145084.58247  -1648871.64541  21972122.1054   21972120.6054
 -53571780.87948 -41724793.76944  19461016.9334   19461013.8784
 -30186938.09847 -23501757.90744  19872749.7694   19872744.8124
 -53900129.91449 -41979556.08946  18181725.8314   18181723.1754
 -44785312.90249 -34876052.92646  18071166.1444   18071163.0344
 04  7 29  1 55 59.9910000  0  8G10G31G28G29G13G19G27G 8
 -17703158.93447 -13774675.79042  21025187.1444   21025185.2304
  -9711436.32847  -7542567.66842  20833775.4564   20833774.6484
 -28361553.32849 -22076303.97845  19070268.2924   19070264.5774
  -2302676.55547  -1771670.54342  21942134.0344   21942131.8004
 -53539540.98848 -41699671.82544  19467152.0974   19467149.3904
 -30215585.28547 -23524080.40344  19867298.1754   19867293.4214
 -53957578.09849 -42024320.92046  18170793.6054   18170790.9604
 -44876689.41449 -34947255.39946  18053777.6914   18053774.8124
 04  7 29  1 56 29.9910000  0  8G10G31G28G29G13G19G27G 8
 -17735723.76246 -13800051.02142  21018990.3704   21018988.9684
  -9884509.19147  -7677429.53642  20800841.1124   20800839.7334
 -28474800.07049 -22164548.18545  19048717.6984   19048714.4604
  -2460113.68047  -1894348.74142  21912174.2534   21912172.4684
 -53506933.28948 -41674263.27144  19473357.2144   19473354.7184
 -30243654.29347 -23545952.37944  19861956.8004   19861952.3904
 -54014772.57849 -42068888.05646  18159909.6284   18159907.0854
 -44967809.63749 -35018258.17346  18036438.2924   18036435.5854
 04  7 29  1 56 59.9910000  0  8G10G31G28G29G13G19G27G 8
 -17767769.01647 -13825021.36642  21012892.5664   21012890.6984
 -10057460.66847  -7812196.85142  20767929.7614   20767927.7844
 -28587700.78149 -22252522.74745  19027233.3474   19027229.7534
  -2617396.26647  -2016906.61542  21882244.4564   21882242.1944
 -53473962.44948 -41648571.77144  19479631.2144   19479628.4804
 -30271148.61748 -23567376.53444  19856725.3624   19856720.2374
 -54071714.96949 -42113258.76547  18149074.3784   18149071.6944
 -45058674.80549 -35089062.19446  18019147.0424   18019144.2574
 04  7 29  1 57 29.9910000  0  8G10G31G28G29G13G19G27G 8
 -17799295.51646 -13849587.47642  21006892.9014   21006891.5934
 -10230286.95747  -7946866.58642  20735041.8394   20735040.2844
 -28700254.35249 -22340226.81845  19005814.9804   19005811.8864
  -2774520.72747  -2139341.19542  21852344.4094   21852342.5504
 -53440629.48448 -41622598.08644  19485974.6914   19485971.8314
 -30298068.06648 -23588352.75044  19851602.0504   19851597.7534
 -54128403.39149 -42157431.55346  18138286.6914   18138283.8824
 -45149282.91849 -35159665.92746  18001904.8624   18001902.0694
 04  7 29  1 57 59.9910000  0  8G10G31G28G29G13G19G27G 8
 -17830305.43747 -13873751.07942  21000991.8004   21000990.5344
 -10402985.75046  -8081436.96142  20702178.4334   20702176.5694
 -28812461.30549 -22427660.78045  18984463.0814   18984460.0854
  -2931485.73047  -2261651.56442  21822475.6514   21822473.1324
 -53406937.28548 -41596344.46844  19492385.9484   19492383.6594
 -30324414.44548 -23608882.38244  19846588.9644   19846583.7844
 -54184837.47749 -42201406.17846  18127547.8084   18127544.9214
 -45239633.85549 -35230069.24846  17984711.6444   17984709.0694
 04  7 29  1 58 29.9910000  0  8G10G31G28G29G13G19G27G 8
 -17860802.64846 -13897515.18142  20995188.6914   20995187.1674
 -10575556.16446  -8215907.33442  20669338.4334   20669337.6204
 -28924323.23049 -22514825.90645  18963176.3004   18963172.9094
  -3088290.66447  -2383837.19542  21792636.6284   21792633.6054
 -53372889.82448 -41569814.02344  19498865.5894   19498862.5234
 -30350190.53148 -23628967.66744  19841683.8554   19841679.0114
 -54241018.12949 -42245183.32146  18116856.7614   18116854.1364
 -45329728.71949 -35300273.03046  17967567.2844   17967564.4954
 04  7 29  1 58 59.9910000  0  8G10G31G28G29G13G19G27G 8
 -17890780.68746 -13920874.73542  20989483.7454   20989482.9214
 -10747986.84047  -8350268.83542  20636526.5194   20636524.6874
 -29035831.84849 -22601715.71945  18941957.0264   18941953.4374
  -3244924.96147  -2505889.82042  21762829.1364   21762827.5664
 -53338480.87148 -41543001.92144  19505413.1054   19505410.2534
 -30375389.18447 -23648602.99444  19836888.6594   19836883.9054
 -54296936.43448 -42288756.04146  18106215.6984   18106213.3584
 -45419558.68749 -35370270.40746  17950473.1444   17950470.2224
 04  7 29  1 59 29.9910000  0  8G10G31G28G29G13G19G27G 8
 -17920253.15246 -13943840.33842  20983875.3554   20983873.6634
 -10920286.52747  -8484528.26242  20603739.3704   20603737.4014
 -29146998.71949 -22688339.23645  18920802.6834   18920798.9414
  -3401397.64547  -2627816.54642  21733053.9254   21733051.4994
 -53303724.11748 -41515918.78644  19512026.8474   19512024.1244
 -30400023.02047 -23667798.19644  19832200.9414   19832196.0464
 -54352602.72749 -42332132.37646  18095623.1674   18095620.3084
 -45509133.97749 -35440069.32547  17933427.5424   17933424.9054
 04  7 29  1 59 59.9910000  0  8G10G31G28G29G13G19G27G 8
 -17949217.06246 -13966409.63642  20978364.4644   20978362.5934
 -11092447.80147  -8618679.82042  20570977.5894   20570976.3824
 -29257819.06249 -22774692.73945  18899714.0504   18899710.9524
  -3557701.99247  -2749612.04842  21703309.7064   21703307.9834
 -53268617.00848 -41488562.63644  19518707.5344   19518704.7764
 -30424088.44147 -23686550.48844  19827621.6834   19827617.1084
 -54408011.64849 -42375308.17546  18085079.2304   18085076.2534
 -45598448.71549 -35509665.23346  17916431.6284   17916428.8194
 04  7 29  2  0 29.9910000  0  8G10G31G28G29G13G19G27G 8
 -17977676.44546 -13988585.81742  20972948.5114   20972946.9644
 -11264469.71947  -8752722.81242  20538242.2534   20538240.8514
 -29368294.97749 -22860777.85445  18878691.0264   18878687.7104
  -3713837.66847  -2871276.21842  21673598.7144   21673596.4604
 -53233163.71948 -41460936.76244  19525454.2454   19525451.3584
 -30447588.53148 -23704862.25344  19823149.3624   19823144.6984
 -54463164.25049 -42418284.22046  18074583.8084   18074580.8744
 -45687504.36349 -35579059.23346  17899484.9174   17899481.8274
 04  7 29  2  0 59.9910000  0  8G10G31G28G29G13G19G27G 8
 -18005632.31647 -14010369.64842  20967629.0194   20967627.1594
 -11436348.54346  -8886654.24642  20505535.7534   20505533.8234
 -29478425.64149 -22946593.92945  18857734.3164   18857730.4524
  -3869801.41046  -2992806.36942  21643919.4484   21643917.2804
 -53197365.57848 -41433042.15744  19532266.6364   19532263.9014
 -30470523.59048 -23722733.72844  19818785.0664   19818780.6944
 -54518058.78149 -42461059.20046  18064137.6984   18064135.0504
 -45776298.94949 -35648249.82446  17882587.6514   17882585.1284
 04  7 29  2  1 29.9910000  0  8G10G31G28G29G13G19G27G 8
 -18033087.26646 -14031763.15742  20962404.2764   20962402.5074
 -11608082.21946  -9020472.62642  20472854.8004   20472853.7024
 -29588211.58249 -23032141.40545  18836842.3314   18836839.0624
  -4025591.69946  -3114201.30942  21614273.3624   21614270.7454
 -53161225.62148 -41404881.21644  19539143.8004   19539141.0304
 -30492895.44548 -23740166.34744  19814527.9804   19814523.2764
 -54572695.18749 -42503633.03246  18053740.8624   18053738.0154
 -45864832.92249 -35717237.32946  17865740.1984   17865737.6634
 04  7 29  2  1 59.9910000  0  8G10G31G28G29G13G19G27G 8
 -18060041.52047 -14052766.51142  20957275.0194   20957273.9414
 -11779665.86747  -9154174.11142  20440204.0504   20440202.6124
 -29697650.99649 -23117418.85645  18816016.8314   18816013.3664
  -4181204.17646  -3235457.76742  21584661.0424   21584659.2924
 -53124744.17648 -41376454.18344  19546085.8624   19546083.1014
 -30514703.33648 -23757159.52144  19810377.7224   19810373.6834
 -54627070.64149 -42546003.52446  18043393.4804   18043390.7414
 -45953103.07049 -35786019.26146  17848942.9414   17848940.0424
 04  7 29  2  2 29.9910000  0  8G10G31G28G29G13G19G27G 8
 -18086499.70346 -14073383.29142  20952240.2374   20952238.6404
 -11951099.40647  -9287758.57642  20407581.1914   20407580.1444
 -29806746.59849 -23202428.39945  18795256.4174   18795253.1914
  -4336639.24246  -3356575.96442  21555082.3314   21555080.5584
 -53087926.14148 -41347764.85044  19553092.2694   19553088.9564
 -30535951.39148 -23773716.45544  19806334.7764   19806330.3124
 -54681187.02749 -42588172.14346  18033095.7614   18033092.8274
 -46041111.18749 -35854597.01946  17832195.6594   17832193.0584
 04  7 29  2  2 59.9910000  0  8G10G31G28G29G13G19G27G 8
 -18112461.03547 -14093612.95342  20947300.1444   20947298.4214
 -12122377.00847  -9421221.60942  20374987.7064   20374986.4444
 -29915495.55149 -23287167.82645  18774562.2454   18774558.9214
  -4491891.68447  -3477551.77842  21525539.1984   21525537.2964
 -53050770.81248 -41318812.69744  19560162.4644   19560160.1834
 -30556637.80148 -23789835.74244  19802398.3474   19802393.4054
 -54735040.41449 -42630135.82846  18022847.5894   18022845.0234
 -46128852.98449 -35922967.24646  17815498.8944   17815495.9254
 04  7 29  2  3 29.9910000  0  8G10G31G28G29G13G19G27G 8
 -18137927.12947 -14113456.66442  20942453.8554   20942452.5074
 -12293495.73047  -9554560.79842  20342425.5114   20342423.4684
 -30023897.75849 -23371637.06345  18753934.0424   18753930.3584
  -4646959.27346  -3598383.61642  21496030.6054   21496028.9484
 -53013280.36748 -41289599.41944  19567296.8084   19567294.3554
 -30576763.71547 -23805518.27344  19798568.5734   19798563.8274
 -54788629.85549 -42671893.84546  18012650.1594   18012647.1754
 -46216328.25049 -35991129.79046  17798852.6284   17798850.1834
 04  7 29  2  3 59.9910000  0  8G10G31G28G29G13G19G27G 8
 -18162901.57047 -14132917.31942  20937701.5194   20937699.7614
 -12464453.92246  -9687774.89142  20309892.4644   20309891.1204
 -30131954.51249 -23455837.12845  18733371.5344   18733367.8984
  -4801840.61746  -3719070.30342  21466557.7144   21466555.8584
 -52975458.23448 -41260127.68444  19574494.4094   19574491.4014
 -30596331.84047 -23820766.17344  19794844.6594   19794839.9334
 -54841955.75049 -42713446.50546  18002502.3004   18002499.4374
 -46303537.30149 -36059084.89046  17782257.3554   17782254.7494
 04  7 29  2  4 29.9910000  0  8G10G31G28G29G13G19G27G 8
 -18187384.38347 -14151994.88642  20933042.8164   20933041.0504
 -12635246.52747  -9820859.95742  20277391.8084   20277390.5034
 -30239663.66849 -23539766.31845  18712875.1124   18712871.6554
  -4956531.28946  -3839608.43342  21437120.8704   21437119.2694
 -52937304.70748 -41230397.71844  19581754.5894   19581751.7734
 -30615341.14148 -23835578.63444  19791227.2764   19791222.7534
 -54895015.03149 -42754791.39446  17992405.4174   17992402.9764
 -46390476.54349 -36126829.75246  17765713.6204   17765710.6514
 04  7 29  2  4 59.9910000  0  8G10G31G28G29G13G19G27G 8
 -18211380.97346 -14170693.54942  20928475.9804   20928474.6984
 -12805874.01247  -9953816.38142  20244922.8234   20244921.4444
 -30347028.96149 -23623427.57845  18692444.3084   18692440.7884
  -5111032.42646  -3959998.89742  21407720.6674   21407718.7374
 -52898825.39848 -41200413.90044  19589077.0814   19589074.4684
 -30633796.40247 -23849959.35144  19787715.3864   19787710.8124
 -54947810.26649 -42795930.55246  17982358.8004   17982356.0074
 -46477149.12549 -36194366.83346  17749220.3314   17749217.5114
 04  7 29  2  5 29.9910000  0  8G10G31G28G29G13G19G27G 8
 -18234893.64846 -14189015.14142  20924002.0664   20924000.4134
 -12976333.73847 -10086642.04642  20212485.5974   20212483.1284
 -30454050.41849 -23706820.90845  18672078.7764   18672074.9914
  -5265341.72346  -4080239.86442  21378356.3474   21378354.7614
 -52860022.52747 -41170177.94943  19596461.0344   19596458.3904
 -30651699.14548 -23863909.55544  19784308.8624   19784303.9214
 -55000340.65249 -42836863.32946  17972362.7924   17972359.8944
 -46563553.89849 -36261695.21446  17732778.0424   17732775.2334
 04  7 29  2  5 59.9910000  0  8G10G31G28G29G13G19G27G 8
 -18257921.55546 -14206959.00742  20919619.2764   20919618.2334
 -13146619.97347 -10219332.54643  20180080.7844   20180079.3234
 -30560725.24249 -23789944.14045  18651778.9954   18651775.5894
  -5419454.11346  -4200327.38642  21349029.9874   21349028.0854
 -52820895.61348 -41139689.50943  19603906.7764   19603903.8584
 -30669047.72348 -23877427.94044  19781007.3944   19781002.4604
 -55052602.63349 -42877586.95346  17962417.4564   17962415.0264
 -46649686.91849 -36328811.85846  17716387.4484   17716384.7534
 04  7 29  2  6 29.9910000  0  8G10G31G28G29G13G19G27G 8
 -18280464.05946 -14224524.60042  20915330.0194   20915328.6284
 -13316726.73847 -10351883.22343  20147710.7224   20147708.8744
 -30667050.51649 -23872794.98945  18631546.2144   18631542.6054
  -5573364.09046  -4320257.21942  21319742.1124   21319740.0504
 -52781444.02748 -41108948.07243  19611414.3554   19611411.4054
 -30685840.73448 -23890513.40944  19777811.2764   19777807.1594
 -55104592.21949 -42918098.33146  17952524.3554   17952521.4724
 -46735544.72749 -36395714.05447  17700049.2064   17700046.4834
 04  7 29  2  6 59.9910000  0  8G10G31G28G29G13G19G27G 8
 -18302529.04746 -14241718.13442  20911131.5734   20911129.7574
 -13486657.22347 -10484296.49143  20115374.1834   20115372.3554
 -30773032.36749 -23955378.23545  18611378.4414   18611375.0304
  -5727075.33646  -4440032.12642  21290491.1984   21290489.7964
 -52741675.88747 -41077959.97443  19618981.8704   19618979.2884
 -30702085.37948 -23903171.58044  19774720.0734   19774715.8084
 -55156314.49248 -42958401.40146  17942681.7374   17942678.8514
 -46821132.13749 -36462405.53646  17683762.6124   17683760.0074
 04  7 29  2  7 29.9910000  0  8G10G31G28G29G13G19G27G 8
 -18324115.81646 -14258539.03342  20907023.4174   20907021.8554
 -13656405.57447 -10616567.88443  20083071.6594   20083070.2924
 -30878668.03949 -24037691.73745  18591276.7614   18591272.8004
  -5880582.45347  -4559647.96642  21261279.5974   21261278.0114
 -52701590.75448 -41046724.86544  19626609.9724   19626607.0814
 -30717780.35948 -23915401.44044  19771733.7924   19771729.0154
 -55207765.66049 -42998493.23346  17932891.0734   17932888.1124
 -46906445.28549 -36528883.31146  17667527.8784   17667525.4954
 04  7 29  2  7 59.9910000  0  8G10G31G28G29G13G19G27G 8
 -18345228.25846 -14274990.32542  20903006.1284   20903004.2144
 -13825970.34847 -10748696.22243  20050804.9804   20050802.4684
 -30983959.19549 -24119736.78145  18571240.4174   18571236.6364
  -6033884.67647  -4679104.22842  21232107.6674   21232105.4014
 -52661192.50848 -41015245.74443  19634297.4094   19634294.8434
 -30732928.49648 -23927205.19844  19768851.5504   19768846.3124
 -55258946.32849 -43038374.28146  17923151.7764   17923149.0854
 -46991484.84049 -36595147.90746  17651345.5814   17651342.6284
 04  7 29  2  8 29.9900000  0  8G10G31G28G29G13G19G27G 8
 -18365870.22746 -14291074.97242  20899078.3264   20899076.1004
 -13995345.54747 -10880676.83143  20018573.5614   20018571.7794
 -31088904.85249 -24201512.61146  18551269.7014   18551266.1584
  -6186976.92646  -4798396.81542  21202974.7644   21202973.0144
 -52620487.07848 -40983527.30443  19642043.4594   19642040.1934
 -30747533.05548 -23938585.36444  19766071.8894   19766067.3304
 -55309856.21949 -43078044.32746  17913463.6704   17913461.2014
 -47076249.32449 -36661198.14646  17635215.6004   17635212.2834
 04  7 29  2  8 59.9900000  0  8G10G31G28G29G13G19G27G 8
 -18386042.98046 -14306794.04742  20895239.3654   20895237.6154
 -14164536.85947 -11012514.15943  19986377.5224   19986375.8934
 -31193509.57849 -24283022.77045  18531364.1074   18531360.7484
  -6339864.48047  -4917529.90142  21173881.6314   21173879.4674
 -52579471.49248 -40951567.17943  19649848.3654   19649845.9824
 -30761594.23448 -23949542.15444  19763395.9364   19763391.3654
 -55360495.46949 -43117503.49146  17903827.5144   17903824.8894
 -47160741.08249 -36727035.88746  17619137.2484   17619134.0224
 04  7 29  2  9 29.9900000  0  8G10G31G28G29G13G19G27G 8
 -18405748.09046 -14322148.72942  20891490.0224   20891488.1154
 -14333536.21947 -11144201.92243  19954217.8344   19954216.3344
 -31297770.35949 -24364264.93845  18511523.9594   18511520.5494
  -6492540.21547  -5036497.95842  21144827.2174   21144826.0224
 -52538150.09048 -40919368.74243  19657712.1074   19657709.3224
 -30775113.11347 -23960076.36144  19760824.0844   19760818.9364
 -55410861.75048 -43156749.96246  17894243.0924   17894240.3734
 -47244956.48449 -36792658.27646  17603111.6154   17603108.6584
 04  7 29  2  9 59.9900000  0  8G10G31G28G29G13G19G27G 8
 -18424988.23446 -14337141.09342  20887828.4984   20887826.6114
 -14502341.03547 -11275738.07543  19922095.1784   19922093.5374
 -31401687.64149 -24445239.42445  18491749.2954   18491745.5884
  -6645001.97747  -5155299.28842  21115815.7644   21115813.2564
 -52496525.14548 -40886933.78643  19665632.8034   19665630.4754
 -30788091.66847 -23970189.52744  19758353.9904   19758348.9904
 -55460954.68049 -43195783.42146  17884710.8814   17884707.9794
 -47328894.81249 -36858064.77546  17587138.6234   17587135.7724
 04  7 29  2 10 29.9900000  0  8G10G31G28G29G13G19G27G 8
 -18443759.93046 -14351768.38542  20884256.3814   20884254.5804
 -14670942.52747 -11407115.80143  19890010.8654   19890010.4794
 -31505255.78549 -24525941.87645  18472040.8504   18472037.5924
  -6797241.49647  -5273927.43742  21086845.4284   21086843.6704
 -52454593.44148 -40854259.79643  19673612.4514   19673609.9164
 -30800525.48048 -23979878.21944  19755988.2094   19755983.1154
 -55510767.41449 -43234598.54746  17875231.7954   17875228.9324
 -47412549.37949 -36923250.14646  17571219.4754   17571216.6624
 04  7 29  2 10 59.9900000  0  8G10G31G28G29G13G19G27G 8
 -18462068.63346 -14366034.96042  20880772.5144   20880770.9244
 -14839340.85947 -11538335.23843  19857965.6394   19857964.5414
 -31608478.18449 -24606374.90745  18452398.1074   18452394.6234
  -6949259.65247  -5392383.11242  21057917.3894   21057914.8504
 -52412360.50448 -40821351.07943  19681648.5924   19681646.3114
 -30812419.41048 -23989146.23244  19753724.9594   19753720.1744
 -55560302.08249 -43273196.99546  17865805.5684   17865802.6624
 -47495922.74249 -36988216.40946  17555354.2794   17555351.1824
 04  7 29  2 11 29.9900000  0  9G10G31G28G29G13G19G27G 7G 8
 -18479922.55546 -14379947.14742  20877374.6234   20877372.6704
 -15007539.26647 -11669398.85743  19825959.0684   19825957.3224
 -31711361.04349 -24686543.36045  18432820.5144   18432816.5184
  -7101060.05547  -5510669.11342  21029029.9434   21029028.4284
 -52369834.58647 -40788214.05843  19689741.4434   19689738.9984
 -30823781.10247 -23997999.50244  19751562.5534   19751557.8654
 -55609563.94949 -43311582.87446  17856431.6474   17856428.6784
   -248710.51655   -170763.81552  21452038.3114   21452039.1474
 -47579019.56649 -37052967.18146  17539541.4204   17539538.6154
 04  7 29  2 11 59.9900000  0  9G10G31G28G29G13G19G27G 7G 8
 -18497329.46146 -14393511.02142  20874062.5614   20874060.3304
 -15175540.02747 -11800308.49243  19793989.9904   19793988.2014
 -31813909.70749 -24766451.40145  18413305.8344   18413302.4674
  -7252645.53947  -5628787.61242  21000184.6074   21000182.4084
 -52327023.23448 -40754854.61743  19697888.3734   19697885.9864
 -30834617.31248 -24006443.30744  19749500.7324   19749495.8184
 -55658557.50849 -43349759.68446  17847108.3114   17847105.5614
   -411705.68045   -297772.84342  21421021.8184   21421021.8574
 -47661844.18749 -37117505.84546  17523780.3344   17523777.6664
 04  7 29  2 12 29.9900000  0  9G10G31G28G29G13G19G27G 7G 8
 -18514299.86347 -14406734.78642  20870833.2724   20870831.8154
 -15343348.70747 -11931068.44843  19762057.2174   19762055.0844
 -31916132.92249 -24846105.84645  18393853.5534   18393850.1904
  -7404022.02747  -5746743.24642  20971378.7014   20971376.4634
 -52283936.97347 -40721280.97043  19706086.9044   19706084.8264
 -30844937.94548 -24014485.36144  19747536.5064   19747531.8074
 -55707290.17248 -43387733.20046  17837834.8344   17837831.9084
   -574669.31246   -424757.32941  21390010.4674   21390010.6434
 -47744404.21149 -37181838.32646  17508069.6314   17508066.7564
 04  7 29  2 12 59.9900000  0  9G10G31G28G29G13G19G27G 7G 8
 -18530836.51247 -14419620.50442  20867686.2484   20867684.4514
 -15510962.51647 -12061676.55243  19730160.4284   19730158.8264
 -32018030.98049 -24925506.91946  18374463.1544   18374459.3934
  -7555187.34847  -5864534.39442  20942612.8814   20942611.1314
 -52240578.89547 -40687495.50743  19714337.5144   19714335.6044
 -30854744.95748 -24022127.20644  19745670.4204   19745665.7794
 -55755761.20749 -43425502.84246  17828611.1234   17828608.1074
   -737599.22345   -551715.62942  21359005.8114   21359006.6434
 -47826698.84849 -37245964.01546  17492409.6004   17492406.9404
 04  7 29  2 13 29.9900000  0  9G10G31G28G29G13G19G27G 7G 8
 -18546938.62947 -14432167.62742  20864622.5684   20864620.4244
 -15678375.42247 -12192128.10543  19698303.6004   19698301.2444
 -32119600.91449 -25004652.31345  18355134.8574   18355130.9864
  -7706135.99647  -5982156.65742  20913888.5924   20913886.1314
 -52196948.42647 -40653497.81743  19722640.3574   19722638.1934
 -30864036.94548 -24029367.73544  19743902.3424   19743897.5064
 -55803966.63349 -43463065.52446  17819437.7644   17819434.8344
   -900490.09846   -678643.34842  21328008.4824   21328008.9044
 -47908724.00849 -37309879.72846  17476800.6154   17476797.7684
 04  7 29  2 13 59.9900000  0  9G10G31G28G29G13G19G27G 7G 8
 -18562606.80547 -14444376.67142  20861640.8504   20861639.2014
 -15845582.69547 -12322419.43343  19666484.6154   19666482.7874
 -32220841.24649 -25083540.88245  18335869.6004   18335866.0454
  -7856863.51247  -6099606.65142  20885206.0374   20885203.8734
 -52153045.60947 -40619287.90043  19730994.6934   19730992.6744
 -30872813.55948 -24036206.65544  19742232.2174   19742227.5684
 -55851903.74649 -43500419.13646  17810315.9284   17810313.0614
  -1063337.73846   -805537.44241  21297019.5684   21297019.7684
 -47990476.89149 -37373583.27347  17461243.8264   17461240.8694
 04  7 29  2 14 29.9900000  0  9G10G31G28G29G13G19G27G 7G 8
 -18577837.64147 -14456244.89242  20858742.5144   20858740.8304
 -16012575.71147 -12452543.79143  19634706.8114   19634704.8974
 -32321746.45749 -25162168.29946  18316667.8264   18316664.2014
  -8007362.02347  -6216878.19642  20856566.6394   20856564.8304
 -52108867.29347 -40584863.29343  19739401.8894   19739399.6354
 -30881070.56648 -24042640.70944  19740661.1234   19740656.1974
 -55899565.98849 -43537558.54746  17801245.8734   17801243.0494
  -1226134.00446   -932391.51142  21266039.6074   21266040.9164
 -48071950.47349 -37437069.18047  17445739.7874   17445736.8654
 04  7 29  2 14 59.9900000  0  9G10G31G28G29G13G19G27G 7G 8
 -18592635.94547 -14467776.05642  20855927.0764   20855924.5654
 -16179353.91847 -12582500.78643  19602970.3114   19602968.2604
 -32422319.28549 -25240536.72746  18297529.5224   18297526.0924
  -8157631.42647  -6333971.24642  20827971.4904   20827969.5024
 -52064418.12547 -40550227.64743  19747860.7644   19747858.1544
 -30888812.35248 -24048673.28644  19739187.5224   19739182.9474
 -55946954.69549 -43574484.81946  17792228.2404   17792225.1584
  -1388879.11346  -1059205.69042  21235070.7404   21235071.2994
 -48153146.28949 -37500338.64946  17430288.6784   17430286.1624
 04  7 29  2 15 29.9900000  0  9G10G31G28G29G13G19G27G 7G 8
 -18607004.48047 -14478972.36142  20853192.4904   20853190.6934
 -16345914.69547 -12712288.34743  19571274.0844   19571271.8424
 -32522560.06649 -25318646.43045  18278454.2724   18278450.8074
  -8307669.47347  -6450883.95542  20799419.8894   20799417.6114
 -52019701.08247 -40515383.27543  19756369.7644   19756367.6154
 -30896040.83648 -24054305.89144  19737811.9594   19737807.6624
 -55994069.42249 -43611197.62346  17783262.8974   17783259.7604
  -1551571.14146  -1185978.54242  21204111.3264   21204112.0454
 -48234063.94149 -37563391.36546  17414890.6234   17414887.7214
 04  7 29  2 15 59.9900000  0  9G10G31G28G29G13G19G27G 7G 8
 -18620942.59846 -14489833.27042  20850539.9754   20850537.9204
 -16512252.14147 -12841901.88343  19539621.6074   19539619.6074
 -32622466.13349 -25396495.29845  18259442.9124   18259439.3384
  -8457470.84447  -6567612.23842  20770913.1544   20770912.0494
 -51974715.03547 -40480329.28243  19764930.4824   19764927.9284
 -30902754.80548 -24059537.57044  19736534.2954   19736529.5374
 -56040906.21949 -43647693.82346  17774349.5534   17774346.9124
  -1714204.55146  -1312705.71942  21173163.7954   21173163.8034
 -48314699.02049 -37626223.89446  17399546.1074   17399543.1314
 04  7 29  2 16 29.9900000  0  9G10G31G28G29G13G19G27G 7G 8
 -18634448.93747 -14500357.77342  20847969.6314   20847967.5254
 -16678359.48047 -12971336.11643  19508012.3894   19508010.1234
 -32722033.85949 -25474080.53946  18240495.4594   18240491.9674
  -8607029.10247  -6684151.11142  20742454.0534   20742451.9864
 -51929459.17647 -40445065.05543  19773542.0534   19773540.1704
 -30908952.06248 -24064366.61444  19735354.9514   19735350.1434
 -56087460.46949 -43683969.88346  17765490.3814   17765488.1044
  -1876773.30546  -1439382.47842  21142226.8894   21142227.9284
 -48395046.93049 -37688832.64846  17384256.6074   17384253.8034
 04  7 29  2 16 59.9900000  0  9G10G31G28G29G13G19G27G 7G 8
 -18647523.60247 -14510545.81642  20845481.9514   20845479.7054
 -16844231.03547 -13100586.63643  19476447.8894   19476445.9594
 -32821260.81649 -25551400.24346  18221613.3114   18221609.7134
  -8756339.32047  -6800496.73742  20714040.8574   20714038.4904
 -51883933.05947 -40409590.22443  19782206.0454   19782203.5494
 -30914631.78148 -24068792.39644  19734274.2644   19734269.7604
 -56133728.56249 -43720022.95446  17756686.5614   17756683.7174
  -2039272.30146  -1566004.98842  21111304.5294   21111304.9824
 -48475103.72349 -37751214.57247  17369022.1004   17369019.1354
 04  7 29  2 17 29.9900000  0  9G10G31G28G29G13G19G27G 7G 8
 -18660172.13347 -14520401.87242  20843075.4514   20843072.6354
 -17009867.22347 -13229653.72543  19444928.2564   19444926.0334
 -32920150.60249 -25628457.19645  18202795.2484   18202791.5224
  -8905402.21147  -6916649.59842  20685675.4284   20685673.0654
 -51838142.21147 -40373909.10543  19790919.8504   19790917.1664
 -30919798.96948 -24072818.78944  19733290.5374   19733286.2994
 -56179712.72349 -43755854.77946  17747935.9364   17747933.2874
  -2201702.50446  -1692573.74942  21080394.9754   21080395.4284
 -48554872.06649 -37813371.71446  17353842.6704   17353839.9794
 04  7 29  2 17 59.9900000  0 10G10G31G28G29G13G19G27G 7G 8G26
 -18672399.91047 -14529930.08742  20840748.3344   20840746.2444
 -17175267.95747 -13358537.36443  19413453.7404   19413451.5374
 -33018706.33649 -25705253.87946  18184041.0224   18184037.0614
  -9054217.90647  -7032609.86442  20657356.5454   20657354.2294
 -51792091.93447 -40338025.84443  19799682.3424   19799680.1394
 -30924458.21148 -24076449.39144  19732404.9364   19732399.8694
 -56225415.04349 -43791466.98846  17739238.9594   17739235.9944
  -2364064.45346  -1819089.38242  21049499.0064   21049499.2994
 -48634353.78949 -37875305.53246  17338717.8574   17338715.0574
   -241423.68455   -165714.56251  21245497.2874   21245495.5924
 04  7 29  2 18 29.9900000  0 10G10G31G28G29G13G19G27G 7G 8G26
 -18684214.66047 -14539136.46342  20838500.0064   20838497.9824
 -17340435.52747 -13487239.32443  19382023.4124   19382021.2364
 -33116933.46549 -25781794.48745  18165348.7254   18165345.2254
  -9202789.53947  -7148379.93642  20629084.6154   20629081.7294
 -51745790.05547 -40301946.54543  19808493.7954   19808491.6584
 -30928616.50848 -24079689.63844  19731613.2484   19731608.4864
 -56270839.73049 -43826862.86246  17730595.0684   17730592.1584
  -2526361.06246  -1945554.06742  21018614.5224   21018614.2914
 -48713552.96149 -37937019.17446  17323646.8184   17323644.2324
   -399453.09844   -288854.27541  21215424.6784   21215423.4404
 04  7 29  2 18 59.9900000  0 10G10G31G28G29G13G19G27G 7G 8G26
 -18695627.90247 -14548029.89742  20836328.2724   20836325.7954
 -17505376.05947 -13615764.35043  19350636.0064   19350633.9674
 -33214841.55949 -25858086.49345  18146717.2094   18146713.7994
  -9351123.65647  -7263964.91242  20600857.3034   20600854.8894
 -51699248.05147 -40265680.11143  19817350.7254   19817348.2214
 -30932284.84848 -24082548.09144  19730915.4754   19730910.4084
 -56315995.07849 -43862048.85946  17722002.3504   17721999.5494
  -2688599.14145  -2071973.22842  20987741.6394   20987741.4904
 -48792477.48849 -37998518.79946  17308628.0454   17308625.0374
   -557277.09445   -411834.03041  21185392.6154   21185390.8854
 04  7 29  2 19 29.9900000  0 10G10G31G28G29G13G19G27G 7G 8G26
 -18706638.73047 -14556609.84442  20834232.5924   20834230.9754
 -17670083.29348 -13744107.61143  19319293.5144   19319291.4284
 -33312427.59449 -25934127.55945  18128147.4044   18128143.6974
  -9499214.30147  -7379360.21842  20572676.5844   20572674.2684
 -51652464.80947 -40229225.71143  19826252.6704   19826250.6394
 -30935461.49648 -24085023.42644  19730310.5454   19730305.7444
 -56360876.91049 -43897021.72246  17713461.3654   17713458.8074
  -2850772.87545  -2198342.18542  20956880.3424   20956880.6904
 -48871123.04349 -38059801.05246  17293662.4204   17293659.4594
   -714889.84445   -534649.06641  21155399.8114   21155397.8574
 04  7 29  2 19 59.9900000  0 10G10G31G28G29G13G19G27G 7G 8G26
 -18717249.43047 -14564877.96842  20832214.0294   20832212.0844
 -17834553.74248 -13872266.34443  19287995.6864   19287993.5334
 -33409691.00849 -26009917.22146  18109638.4984   18109635.3464
  -9647058.64847  -7494563.55342  20544542.9904   20544540.6314
 -51605442.50447 -40192585.01843  19835200.7644   19835198.8814
 -30938148.02048 -24087116.83444  19729799.5614   19729794.7054
 -56405483.89549 -43931780.42046  17704972.9044   17704970.0724
  -3012879.46946  -2324658.88942  20926032.8504   20926032.5884
 -48949488.73049 -38120865.21947  17278749.5844   17278747.1044
   -872287.94545   -657296.87241  21125447.7254   21125445.9554
 04  7 29  2 20 29.9900000  0 10G10G31G28G29G13G19G27G 7G 8G26
 -18727457.81647 -14572832.57942  20830271.5224   20830269.1544
 -17998779.94548 -14000234.77143  19256744.8894   19256742.3894
 -33506627.57049 -26085452.19345  18091192.2724   18091188.7524
  -9794649.55947  -7609569.41542  20516456.8034   20516454.4794
 -51558178.77747 -40155756.21643  19844195.1544   19844193.0024
 -30940341.54348 -24088826.10544  19729382.2324   19729377.3894
 -56449810.29349 -43966320.48446  17696537.8504   17696535.2294
  -3174911.95346  -2450917.79642  20895198.6394   20895198.7684
 -49027568.07049 -38181706.27446  17263891.8734   17263889.0614
  -1029464.43445   -779772.03241  21095537.8114   21095535.8464
 04  7 29  2 20 59.9900000  0 10G10G31G28G29G13G19G27G 7G 8G26
 -18737266.55147 -14580475.80942  20828404.8034   20828403.0224
 -18162759.16447 -14128010.74943  19225539.7874   19225537.3894
 -33603237.91049 -26160732.96646  18072807.8654   18072804.4824
  -9941984.75447  -7724376.00642  20488420.0844   20488417.8734
 -51510676.13347 -40118741.24842  19853235.0374   19853232.7294
 -30942044.20748 -24090152.86244  19729058.3734   19729053.3154
 -56493855.54349 -44000641.46946  17688156.3734   17688153.8974
  -3336868.09045  -2577117.16942  20864378.7644   20864379.0804
 -49105360.66449 -38242323.86946  17249088.4284   17249085.4824
  -1186416.87544   -902072.53342  21065671.2954   21065669.0764
 04  7 29  2 21 29.9900000  0 10G10G31G28G29G13G19G27G 7G 8G26
 -18746676.28547 -14587808.10242  20826614.1864   20826612.3034
 -18326486.37948 -14255590.34243  19194383.7794   19194381.4474
 -33699520.25049 -26235758.16546  18054485.9594   18054482.3774
 -10089059.59047  -7838979.72642  20460432.3814   20460430.1274
 -51462935.27047 -40081540.65443  19862319.5144   19862317.5534
 -30943255.75048 -24091096.95944  19728827.7404   19728823.0574
 -56537616.69949 -44034741.09446  17679828.9754   17679826.3734
  -3498743.68446  -2703253.87442  20833575.4824   20833574.8814
 -49182863.10249 -38302715.39447  17234340.4364   17234337.3544
  -1343140.46146  -1024194.78341  21035847.5924   21035845.5224
 04  7 29  2 21 59.9890000  0 10G10G31G28G29G13G19G27G 7G 8G26
 -18755688.16847 -14594830.39542  20824899.0714   20824897.5604
 -18489952.11348 -14382966.19443  19163277.5174   19163275.3254
 -33795470.82049 -26310524.84045  18036226.9934   18036223.6184
 -10235865.82047  -7953374.17342  20432496.0014   20432494.0244
 -51414958.89147 -40044156.55443  19871449.5794   19871447.0324
 -30943977.12548 -24091659.07244  19728690.2904   19728685.5014
 -56581090.37149 -44068616.68446  17671556.4314   17671553.6534
  -3660529.79346  -2829320.80342  20802788.6034   20802787.9464
 -49260070.88749 -38362877.30447  17219647.9464   17219645.2204
  -1499626.32046  -1146131.72441  21006069.0714   21006066.7244
 04  7 29  2 22 29.9890000  0 10G10G31G28G29G13G19G27G 7G 8G26
 -18764305.29747 -14601545.13342  20823259.5404   20823257.6464
 -18653164.16848 -14510144.36544  19132218.9314   19132216.9354
 -33891095.96149 -26385037.91446  18018030.5094   18018026.9504
 -10382410.50447  -8067564.77042  20404609.5014   20404607.3214
 -51366746.38747 -40006588.42442  19880623.4394   19880621.7554
 -30944210.15648 -24091840.68644  19728646.4624   19728641.4394
 -56624278.43049 -44102269.72446  17663337.8294   17663334.8764
  -3822234.67246  -2955324.38342  20772016.4154   20772016.7354
 -49336988.31249 -38422812.96146  17205011.2984   17205008.1894
  -1655882.12946  -1267889.47542  20976334.8534   20976332.6424
 04  7 29  2 22 59.9890000  0 10G10G31G28G29G13G19G27G 7G 8G26
 -18772525.65647 -14607950.67642  20821695.2044   20821693.7594
 -18816110.00848 -14637115.08343  19101211.5954   19101209.3454
 -33986388.74249 -26459292.02446  17999896.7204   17999893.1464
 -10528682.05947  -8181542.51442  20376775.0174   20376772.6534
 -51318297.48447 -39968836.10243  19889843.1494   19889841.1654
 -30943952.08248 -24091639.61044  19728695.1964   19728690.8024
 -56667174.12149 -44135694.95246  17655175.0484   17655172.1894
  -3983846.41046  -3081255.47842  20741262.9234   20741262.7474
 -49413607.23449 -38482516.02746  17190431.1494   17190428.2714
  -1811895.81246  -1389458.52541  20946646.0644   20946643.6964
 04  7 29  2 23 29.9890000  0 10G10G31G28G29G13G19G27G 7G 8G26
 -18780352.68047 -14614049.70542  20820205.5484   20820204.3254
 -18978787.44148 -14763876.68843  19070255.2514   19070252.7674
 -34081350.35549 -26533288.08145  17981826.2984   17981822.6574
 -10674678.87947  -8295306.27342  20348992.6494   20348990.0484
 -51269615.33247 -39930902.03143  19899106.9074   19899105.5134
 -30943206.01248 -24091058.27944  19728836.5874   19728832.5754
 -56709777.69949 -44168892.55746  17647067.7674   17647064.8534
  -4145363.52346  -3207112.82442  20710527.5874   20710527.0874
 -49489927.23049 -38541986.15146  17175908.0714   17175904.7674
  -1967665.54346  -1510837.44442  20917004.1894   20917002.1384
 04  7 29  2 23 59.9890000  0 10G10G31G28G29G13G19G27G 7G 8G26
 -18787790.53147 -14619845.47442  20818790.3214   20818788.8924
 -19141195.07048 -14890428.04343  19039349.6494   19039347.1814
 -34175982.48849 -26607027.41245  17963818.4074   17963814.8924
 -10820400.01647  -8408855.16242  20321262.9624   20321260.8144
 -51220704.05946 -39892789.41742  19908414.4784   19908413.0094
 -30941975.40648 -24090099.38744  19729071.4464   19729066.8844
 -56752089.75849 -44201863.01646  17639016.1344   17639013.4154
  -4306785.08246  -3332895.76242  20679809.5244   20679809.0834
 -49565948.95349 -38601223.86546  17161441.0014   17161438.4664
  -2123190.10945  -1632025.36342  20887408.9544   20887406.3174
 04  7 29  2 24 29.9890000  0 10G10G31G28G29G13G19G27G 7G 8G26
 -18794838.10547 -14625337.11642  20817449.4624   20817448.0324
 -19303326.04348 -15016763.79543  19008496.7434   19008495.2394
 -34270281.63749 -26680507.25146  17945873.8454   17945870.4664
 -10965838.87147  -8522184.09742  20293587.0014   20293584.5874
 -51171562.00046 -39854496.96742  19917766.0324   19917764.3024
 -30940258.10948 -24088761.24544  19729398.2594   19729393.5604
 -56794105.19549 -44234602.31846  17631021.0324   17631018.1574
  -4468104.85246  -3458599.26142  20649111.4784   20649111.0874
 -49641667.48449 -38660225.32146  17147032.5324   17147029.6694
  -2278462.97346  -1753017.13442  20857860.9314   20857858.8534
 04  7 29  2 24 59.9890000  0 10G10G31G28G29G13G19G27G 7G 8G26
 -18801496.77047 -14630525.75942  20816182.1344   20816181.0994
 -19465176.12548 -15142880.70943  18977698.6344   18977696.2244
 -34364246.90249 -26753726.93446  17927992.6264   17927988.8804
 -11110991.80547  -8635290.24642  20265964.7354   20265962.9894
 -51122190.34446 -39816025.65042  19927161.3684   19927159.6924
 -30938054.99648 -24087044.54044  19729817.4314   19729813.0444
 -56835822.08649 -44267108.99746  17623082.2824   17623079.5794
  -4629319.02046  -3584220.57242  20618433.0014   20618432.8994
 -49717080.09449 -38718988.39046  17132682.0404   17132679.2084
  -2433480.23446  -1873809.82442  20828362.3144   20828360.7204
 04  7 29  2 25 29.9890000  0 10G10G31G28G29G13G19G27G 7G 8G26
 -18807770.87147 -14635414.70642  20814988.2744   20814986.9894
 -19626744.23448 -15268777.88044  18946952.7044   18946950.5484
 -34457880.62949 -26826688.27246  17910175.0174   17910171.2824
 -11255858.18747  -8748173.09442  20238398.1734   20238395.6734
 -51072593.48047 -39777378.85742  19936599.4784   19936597.8604
 -30935370.00048 -24084952.36044  19730327.9784   19730323.9744
 -56877241.36749 -44299383.77846  17615200.7044   17615197.7324
  -4790427.38346  -3709759.40842  20587775.0484   20587774.5364
 -49792188.18449 -38777514.17747  17118389.3374   17118386.6384
  -2588241.14546  -1994402.66342  20798911.9704   20798910.2744
 04  7 29  2 25 59.9890000  0 10G10G31G28G29G13G19G27G 7G 8G26
 -18813659.93747 -14640003.64942  20813867.5714   20813866.5244
 -19788024.14148 -15394450.48744  18916262.2824   18916259.5914
 -34551179.72749 -26899388.85446  17892420.6494   17892416.6964
 -11400431.98047  -8860827.98042  20210886.2434   20210884.6894
 -51022770.64547 -39738555.90642  19946080.8684   19946079.0444
 -30932201.58648 -24082483.49144  19730931.3764   19730926.6034
 -56918358.77049 -44331423.32246  17607376.4074   17607373.7004
  -4951424.06245  -3835211.22142  20557138.3764   20557138.2004
 -49866987.02749 -38835798.98746  17104155.6654   17104152.8724
  -2742739.60546  -2114791.03542  20769512.2674   20769510.5954
 04  7 29  2 26 29.9890000  0 10G10G31G28G29G13G19G27G 7G 8G26
 -18819167.16847 -14644295.03342  20812820.0014   20812818.1574
 -19949013.56648 -15519896.74944  18885626.6814   18885624.2474
 -34644145.17249 -26971829.45946  17874729.8374   17874726.1264
 -11544711.62147  -8973253.63842  20183430.5404   20183428.4704
 -50972724.82847 -39699559.26242  19955604.1654   19955602.1654
 -30928552.65648 -24079640.17244  19731625.5954   19731621.0714
 -56959174.10249 -44363227.48246  17599609.5404   17599606.5714
  -5112307.34446  -3960574.69042  20526523.3144   20526523.0174
 -49941476.18749 -38893842.50047  17089980.8924   17089977.7784
  -2896973.55146  -2234973.27342  20740162.5244   20740160.8104
 04  7 29  2 26 59.9890000  0 10G10G31G28G29G13G19G27G 7G 8G26
 -18824292.57447 -14648288.87842  20811844.8454   20811843.1344
 -20109706.92248 -15645112.30444  18855047.9854   18855045.4464
 -34736774.60949 -27044008.22946  17857103.2984   17857099.6264
 -11688691.84047  -9085445.96043  20156032.2514   20156030.1304
 -50922455.89847 -39660388.73942  19965170.4544   19965168.0054
 -30924422.39148 -24076421.81244  19732411.6894   19732407.0244
 -56999683.85549 -44394793.54046  17591900.7124   17591898.2864
  -5273072.06246  -4085845.78442  20495930.3454   20495930.3924
 -50015652.10949 -38951641.91246  17075865.6654   17075862.9704
  -3050937.88346  -2354945.39042  20710863.7284   20710862.0714
 04  7 29  2 27 29.9890000  0 10G10G31G28G29G13G19G27G 7G 8G26
 -18829040.32847 -14651988.53342  20810941.2354   20810940.0714
 -20270102.85548 -15770096.09644  18824525.3064   18824523.2674
 -34829070.30949 -27115926.94446  17839539.8214   17839536.0014
 -11832371.77748  -9197404.34643  20128690.9934   20128689.0524
 -50871968.05947 -39621047.66642  19974777.9784   19974776.1534
 -30919814.37948 -24072831.17444  19733288.3924   19733284.2354
 -57039888.85949 -44426122.12246  17584249.7674   17584247.2784
  -5433717.77345  -4211024.14542  20465360.8844   20465359.7164
 -50089515.48049 -39009197.78946  17061809.9624   17061807.1304
  -3204631.34846  -2474706.47742  20681616.6814   20681614.5444
 04  7 29  2 27 59.9890000  0 10G10G31G28G29G13G19G27G 7G 8G26
 -18833411.39147 -14655394.60842  20810109.3214   20810108.0364
 -20430196.68448 -15894844.48644  18794060.7674   18794058.2674
 -34921030.77349 -27187584.44546  17822040.3064   17822036.5914
 -11975747.13747  -9309125.34943  20101407.8994   20101405.3144
 -50821261.78947 -39581536.37142  19984426.5484   19984424.8994
 -30914729.01648 -24068868.56244  19734256.1344   19734251.7434
 -57079786.30949 -44457211.05346  17576657.8454   17576654.7284
  -5594240.14546  -4336106.37342  20434813.9544   20434813.4624
 -50163062.97349 -39066507.52547  17047814.1264   17047811.4894
  -3358049.43846  -2594253.08742  20652422.2594   20652420.7744
 04  7 29  2 28 29.9890000  0 10G10G31G28G29G13G19G27G 7G 8G26
 -18837401.44547 -14658503.80442  20809350.3144   20809349.3064
 -20589978.32048 -16019349.60743  18763655.3294   18763652.4584
 -35012649.14849 -27258975.37746  17804605.8294   17804602.3844
 -12118808.17647  -9420601.47143  20074184.0484   20074181.2824
 -50770332.59047 -39541851.35842  19994118.2824   19994116.1894
 -30909161.06648 -24064529.92144  19735315.7824   19735311.2354
 -57119368.15249 -44488054.05946  17569125.3994   17569122.6034
  -5754629.60246  -4461085.03042  20404293.1104   20404292.4074
 -50236286.67249 -39123564.95046  17033880.3924   17033877.5714
  -3511182.41446  -2713577.35742  20623281.5174   20623280.0174
 04  7 29  2 28 59.9890000  0 10G10G31G28G29G13G19G27G 7G 8G26
 -18841021.74247 -14661324.88442  20808660.9314   20808660.3604
 -20749453.20348 -16143615.70144  18733307.5174   18733305.5954
 -35103934.39549 -27330106.72646  17787235.0874   17787231.2904
 -12261560.95347  -9531837.36743  20047018.9234   20047017.1184
 -50719191.02747 -39502000.91642  20003850.6494   20003848.6384
 -30903121.19548 -24059823.56744  19736465.1814   19736461.0244
 -57158642.09449 -44518657.13546  17561651.9074   17561649.2744
  -5914892.18746  -4585964.87742  20373795.8454   20373795.2784
 -50309193.86349 -39180375.75046  17020006.6574   17020003.6734
  -3664036.12146  -2832684.11642  20594195.3214   20594193.3334
 04  7 29  2 29 29.9890000  0 10G10G31G28G29G13G19G27G 7G 8G26
 -18844271.75847 -14663857.38542  20808042.8454   20808041.7944
 -20908615.54748 -16267638.25144  18703020.4464   18703017.7354
 -35194883.97749 -27400976.50846  17769927.7434   17769924.0404
 -12404000.00047  -9642828.80642  20019913.4314   20019911.9424
 -50667836.99247 -39461984.82742  20013622.4464   20013620.5644
 -30896608.59448 -24054748.80344  19737704.2744   19737700.2474
 -57197604.22749 -44549017.25146  17554237.6894   17554234.8214
  -6075022.67646  -4710741.76242  20343324.0714   20343322.9544
 -50381780.37549 -39236936.66147  17006193.8214   17006190.7944
  -3816604.65646  -2951568.64142  20565161.9464   20565160.1224
 04  7 29  2 29 59.9890000  0 10G10G31G28G29G13G19G27G 7G 8G26
 -18847154.89547 -14666104.07042  20807493.7204   20807493.4194
 -21067462.72348 -16391415.21644  18672792.3604   18672790.0214
 -35285498.59449 -27471585.29146  17752684.5564   17752680.9624
 -12546122.91847  -9753573.91043  19992868.6034   19992866.5174
 -50616272.85947 -39421805.08142  20023434.9624   20023433.1344
 -30889625.41448 -24049307.41143  19739033.2284   19739028.9464
 -57236253.97349 -44579133.94846  17546882.7354   17546880.3214
  -6235018.96946  -4835414.12042  20312877.1814   20312876.6344
 -50454045.57449 -39293247.21546  16992441.9074   16992439.1344
  -3968885.77046  -3070229.20642  20536183.7434   20536182.1894
 04  7 29  2 30 29.9890000  0 11G10G31G28G29G13G19G27G 7G 8G26G11
 -18849672.19147 -14668065.67842  20807015.7354   20807014.5994
 -21225990.18448 -16514943.07644  18642625.8374   18642623.8064
 -35375776.94149 -27541932.04346  17735504.9544   17735501.1814
 -12687925.81648  -9864069.65043  19965884.1964   19965881.7904
 -50564499.98047 -39381462.64642  20033287.1344   20033285.5054
 -30882172.27748 -24043499.75844  19740451.6424   19740447.1344
 -57274588.78949 -44609005.24446  17539587.8994   17539585.4584
  -6394877.03146  -4959978.69342  20282457.0644   20282457.3174
 -50525986.63349 -39349305.18447  16978752.2984   16978749.3964
  -4120875.25046  -3188662.45742  20507261.3374   20507259.5214
   -177968.69556   -122155.94251  21211189.5564   21211186.1384
 04  7 29  2 30 59.9890000  0 11G10G31G28G29G13G19G27G 7G 8G26G11
 -18851839.27047 -14669754.35742  20806603.3144   20806602.0754
 -21384208.07848 -16638229.69944  18612518.0404   18612515.7124
 -35465732.62949 -27612027.37846  17718386.5874   17718383.1104
 -12829419.20747  -9974324.20343  19938958.8924   19938956.9544
 -50512533.59846 -39340969.48542  20043176.1734   20043174.2984
 -30874264.33648 -24037337.75444  19741956.5404   19741951.7784
 -57312620.96949 -44638640.71946  17532351.0404   17532348.2634
  -6554607.57446  -5084443.90642  20252061.6344   20252061.1304
 -50597615.39149 -39405119.80146  16965121.6494   16965118.7284
  -4272583.27746  -3306876.51442  20478391.7744   20478390.3994
   -294413.92246   -212892.44241  21189031.0324   21189028.0874
 04  7 29  2 31 29.9890000  0 11G10G31G28G29G13G19G27G 7G 8G26G11
 -18853666.30547 -14671178.09042  20806255.4234   20806254.5714
 -21542120.80548 -16761278.52944  18582468.3684   18582466.1574
 -35555373.35549 -27681877.27946  17701328.9314   17701325.3214
 -12970607.86348 -10084341.32143  19912091.7354   19912089.6734
 -50460383.72746 -39300333.29342  20053100.2284   20053098.2944
 -30865911.10248 -24030828.75343  19743545.7044   19743541.2714
 -57350357.05549 -44668045.48046  17525169.6964   17525166.9274
  -6714215.60546  -5208813.70642  20221688.6184   20221688.3494
 -50668938.48449 -39460696.23447  16951549.5094   16951546.7824
  -4424014.65646  -3424874.95242  20449575.6104   20449573.6304
   -410676.12546   -303486.34142  21166906.2744   21166903.8534
 04  7 29  2 31 59.9890000  0 11G10G31G28G29G13G19G27G 7G 8G26G11
 -18855156.27047 -14672339.14942  20805972.0874   20805970.9154
 -21699725.54348 -16884087.35944  18552476.8214   18552474.7004
 -35644699.60949 -27751482.13246  17684330.6894   17684327.1854
 -13111489.36347 -10194119.04242  19885282.5794   19885280.6264
 -50408052.94947 -39259556.14442  20063057.9234   20063056.3024
 -30857114.64148 -24023974.37443  19745219.8144   19745215.5714
 -57387796.13749 -44697218.78846  17518045.6184   17518042.8104
  -6873698.72746  -5333086.25442  20191340.4784   20191340.0794
 -50739954.77349 -39516033.60346  16938035.4934   16938032.5324
  -4575166.74646  -3542655.76042  20420812.9854   20420810.4504
   -526752.52046   -393935.50542  21144817.2204   21144814.9464
 04  7 29  2 32 29.9890000  0 11G10G31G28G29G13G19G27G 7G 8G26G11
 -18856311.78947 -14673239.64042  20805752.1654   20805750.8644
 -21857019.05548 -17006653.69344  18522544.9784   18522542.8104
 -35733711.67649 -27820842.17446  17667392.2674   17667388.8964
 -13252061.05147 -10303655.42843  19858532.8294   19858530.8064
 -50355543.16446 -39218639.52042  20073050.7044   20073048.4504
 -30847876.90248 -24016776.15543  19746978.2044   19746973.1104
 -57424937.18449 -44726159.87546  17510977.6034   17510974.7944
  -7033054.39846  -5457259.35742  20161016.3454   20161015.8104
 -50810663.12949 -39571131.03146  16924580.0794   16924577.3534
  -4726036.53146  -3660216.54342  20392102.4784   20392100.9274
   -642640.04746   -484237.37942  21122765.4464   21122762.7744
 04  7 29  2 32 59.9890000  0 11G10G31G28G29G13G19G27G 7G 8G26G11
 -18857124.59447 -14673873.02742  20805597.8064   20805595.9744
 -22013987.63748 -17128966.82844  18492675.0874   18492672.6104
 -35822398.91449 -27889949.10246  17650515.6574   17650511.8574
 -13392309.51247 -10412939.91542  19831844.2674   19831842.3724
 -50302846.01646 -39177576.89742  20083078.1264   20083076.9704
 -30838189.25448 -24009227.35343  19748821.2594   19748816.6854
 -57461768.41049 -44754859.54146  17503969.1494   17503965.9934
  -7192269.11346  -5581322.70542  20130718.5174   20130716.9934
 -50881051.60549 -39625979.18646  16911185.7434   16911182.9074
  -4876610.30145  -3777546.73542  20363449.0874   20363447.8804
   -758324.73446   -574381.23942  21100751.5564   21100748.8334
 04  7 29  2 33 29.9890000  0 11G10G31G28G29G13G19G27G 7G 8G26G11
 -18857599.90647 -14674243.47842  20805507.4704   20805506.0014
 -22170631.04748 -17251026.57444  18462866.1734   18462864.0094
 -35910764.79349 -27958805.61146  17633700.0404   17633696.3104
 -13532234.68048 -10521972.49443  19805217.5874   19805215.2634
 -50249966.84846 -39136372.43642  20093141.7514   20093139.5444
 -30828056.44948 -24001331.67543  19750749.3144   19750744.7124
 -57498291.58249 -44783319.16446  17497018.7984   17497016.3374
  -7351343.54745  -5705276.68942  20100447.4854   20100446.8334
 -50951121.37949 -39680579.01547  16897851.5794   16897848.7944
  -5026888.20746  -3894646.34642  20334852.2514   20334851.0014
   -873806.82846   -664367.22642  21078775.5174   21078772.4314
 04  7 29  2 33 59.9890000  0 11G10G31G28G29G13G19G27G 7G 8G26G11
 -18857738.84847 -14674351.77642  20805480.8454   20805479.7944
 -22326944.54748 -17372829.24344  18433121.1424   18433118.5954
 -35998807.62949 -28027410.41746  17616946.1494   17616942.3724
 -13671832.36347 -10630749.87942  19778652.7284   19778650.8294
 -50196906.54746 -39095026.86542  20103239.0014   20103236.3844
 -30817478.78548 -23993089.35743  19752762.2204   19752757.9154
 -57534504.22349 -44811536.82946  17490127.7204   17490124.9464
  -7510273.24646  -5829117.90742  20070203.8844   20070203.2004
 -51020869.34849 -39734928.08147  16884579.1654   16884576.7084
  -5176865.69146  -4011511.88542  20306312.5094   20306311.2554
   -989081.66846   -754191.73941  21056838.8454   21056836.7634
 04  7 29  2 34 29.9890000  0 11G10G31G28G29G13G19G27G 7G 8G26G11
 -18857541.44146 -14674198.00642  20805518.7204   20805516.7714
 -22482922.23448 -17494370.26744  18403439.2984   18403436.9194
 -36086524.94549 -28095761.54846  17600253.9934   17600250.5674
 -13811097.20347 -10739267.89543  19752151.9784   19752149.6614
 -50143664.06246 -39053539.28442  20113369.2594   20113368.6264
 -30806455.58248 -23984499.85043  19754859.8374   19754855.6034
 -57570402.32449 -44839509.37646  17483296.7984   17483293.9234
  -7669052.88346  -5952842.22742  20039989.3994   20039988.7474
 -51090291.70349 -39789023.41947  16871368.3604   16871365.6894
  -5326537.01646  -4128138.82742  20277831.1264   20277829.7084
  -1104143.34446   -843850.24341  21034943.9704   21034941.2984
 04  7 29  2 34 59.9890000  0 11G10G31G28G29G13G19G27G 7G 8G26G11
 -18857009.12947 -14673783.27842  20805619.8064   20805618.8644
 -22638560.15648 -17615646.52444  18373822.3764   18373819.9824
 -36173916.05149 -28163858.50146  17583623.8924   17583620.3804
 -13950025.42647 -10847523.62943  19725714.5714   19725711.9934
 -50090240.94146 -39011911.00142  20123536.8604   20123534.5754
 -30794987.79748 -23975563.94343  19757042.1574   19757037.9744
 -57605984.05549 -44867235.40746  17476525.7594   17476523.1384
  -7827678.86346  -6076446.75742  20009803.1574   20009802.7004
 -51159386.60249 -39842863.60447  16858220.1734   16858217.4784
  -5475898.33646  -4244524.24442  20249408.7594   20249406.8724
  -1218988.10546   -933339.54542  21013090.7124   21013086.8844
 04  7 29  2 35 29.9890000  0 11G10G31G28G29G13G19G27G 7G 8G26G11
 -18856144.67246 -14673109.75442  20805784.5244   20805782.8144
 -22793854.97348 -17736655.43444  18344270.4544   18344268.0244
 -36260981.15249 -28231701.41846  17567055.8534   17567052.5564
 -14088614.20747 -10955514.86942  19699341.8924   19699339.4314
 -50036639.42646 -38970143.68842  20133735.9934   20133734.6144
 -30783077.24648 -23966282.99643  19759308.6734   19759304.4314
 -57641247.99249 -44894713.80746  17469815.0954   17469812.6074
  -7986148.62546  -6199929.59142  19979647.4464   19979647.4824
 -51228151.97749 -39896447.00947  16845134.5484   16845131.9974
  -5624946.67646  -4360665.77142  20221046.0324   20221044.0874
  -1333613.00446  -1022657.65742  20991278.1654   20991275.0874
 04  7 29  2 35 59.9880000  0 11G10G31G28G29G13G19G27G 7G 8G26G11
 -18854950.71147 -14672179.44342  20806011.5904   20806010.1374
 -22948798.78948 -17857390.81944  18314785.7314   18314783.1924
 -36347717.90249 -28299288.49146  17550550.7384   17550547.0434
 -14226856.70347 -11063236.25743  19673034.7704   19673032.9304
 -49982863.81247 -38928240.70342  20143970.3794   20143967.9104
 -30770726.89148 -23956659.36543  19761659.1294   19761654.1954
 -57676192.52049 -44921943.31046  17463165.4734   17463162.8324
  -8144454.47746  -6323284.70342  19949523.5594   19949522.0554
 -51296584.85949 -39949771.34147  16832112.2234   16832109.3594
  -5773674.41847  -4476557.45742  20192743.8954   20192742.4224
  -1448011.30946  -1111799.15342  20969507.8714   20969504.9774
 04  7 29  2 36 29.9880000  0 11G10G31G28G29G13G19G27G 7G 8G26G11
 -18853425.72347 -14670991.21042  20806301.3564   20806300.3094
 -23103394.68048 -17977855.11544  18285367.1134   18285364.8444
 -36434128.35249 -28366621.29846  17534107.0124   17534103.7504
 -14364755.03147 -11170689.49042  19646793.9814   19646791.7744
 -49928908.82846 -38886197.92742  20154236.3874   20154235.4964
 -30757933.60548 -23946690.58143  19764093.8244   19764088.7314
 -57710814.68749 -44948921.64146  17456577.2854   17456574.3134
  -8302600.40646  -6446515.21442  19919428.2234   19919428.1844
 -51364684.22749 -40002835.77646  16819153.2384   16819150.8204
  -5922084.37547  -4592201.54542  20164501.9024   20164499.8284
  -1562183.67646  -1200764.55142  20947781.8794   20947779.0634
 04  7 29  2 36 59.9880000  0 11G10G31G28G29G13G19G27G 7G 8G26G11
 -18851575.91046 -14669549.86142  20806654.1924   20806652.9024
 -23257637.85548 -18098044.57044  18256015.9574   18256012.8994
 -36520213.17649 -28433700.36446  17517725.7624   17517722.2274
 -14502305.49647 -11277871.61542  19620618.7704   19620616.9224
 -49874781.86746 -38844021.18542  20164537.4964   20164535.4144
 -30744703.03548 -23936381.07943  19766611.4494   19766606.9694
 -57745115.59049 -44975649.61846  17450049.6844   17450047.2034
  -8460581.86346  -6569617.54442  19889365.9184   19889365.4814
 -51432450.51649 -40055640.67546  16806257.9104   16806255.2894
  -6070172.21546  -4707594.62142  20136321.9574   20136319.8954
  -1676126.53146  -1289551.16242  20926099.3954   20926096.4104
 04  7 29  2 37 29.9880000  0 11G10G31G28G29G13G19G27G 7G 8G26G11
 -18849398.12946 -14667852.99342  20807068.4574   20807067.0244
 -23411519.58648 -18217952.36544  18226732.7934   18226730.8914
 -36605966.95349 -28500521.48046  17501407.4104   17501403.8284
 -14639499.77047 -11384776.20443  19594511.9424   19594509.5824
 -49820479.63346 -38801707.85742  20174870.0594   20174869.3594
 -30731032.02348 -23925728.35543  19769212.4024   19769208.6094
 -57779088.73049 -45002122.19646  17443585.0044   17443582.2074
  -8618390.57846  -6692585.26142  19859335.5674   19859335.2194
 -51499875.84849 -40108179.89446  16793427.5434   16793424.6884
  -6217929.34047  -4822729.97842  20108204.3794   20108202.5904
  -1789831.37146  -1378152.31542  20904461.9104   20904459.1494
 04  7 29  2 37 59.9880000  0 11G10G31G28G29G13G19G27G 7G 8G26G11
 -18846895.37146 -14665902.80842  20807544.6374   20807543.0084
 -23565036.89148 -18337576.18944  18197519.8244   18197516.8954
 -36691389.98449 -28567084.87546  17485151.8874   17485148.1094
 -14776335.07047 -11491401.09042  19568472.7704   19568470.6844
 -49766004.09846 -38759259.48742  20185237.1994   20185235.7664
 -30716922.41448 -23914733.86843  19771897.9814   19771893.4424
 -57812733.12949 -45028338.62046  17437182.3324   17437179.7154
  -8776023.96546  -6815416.38842  19829338.5514   19829338.4494
 -51566959.80149 -40160453.09447  16780661.6064   16780658.9104
  -6365352.91047  -4937605.43742  20080150.5824   20080148.8954
  -1903295.39146  -1466565.80142  20882870.7544   20882867.9774
 04  7 29  2 38 29.9880000  0 11G10G31G28G29G13G19G27G 7G 8G26G11
 -18844069.96946 -14663701.30542  20808081.9264   20808081.1494
 -23718186.32448 -18456913.35444  18168375.9734   18168373.6844
 -36776482.41049 -28633390.65046  17468959.4814   17468955.9224
 -14912808.48847 -11597743.96142  19542502.5984   19542500.2194
 -49711357.59047 -38716677.88842  20195635.7234   20195634.6564
 -30702375.96947 -23903398.99043  19774666.0744   19774661.4574
 -57846047.32049 -45054297.73246  17430843.3014   17430840.3134
  -8933479.31646  -6938108.76042  19799376.5354   19799375.4734
 -51633700.36349 -40212458.72947  16767961.2234   16767958.4224
  -6512439.61747  -5052218.45142  20052161.0824   20052159.6564
  -2016515.30946  -1554789.08742  20861324.8794   20861322.4064
 04  7 29  2 38 59.9880000  0 11G10G31G28G29G13G19G27G 7G 8G26G11
 -18840924.87946 -14661250.59242  20808680.4494   20808680.0554
 -23870965.17248 -18575961.77844  18139303.0514   18139300.8134
 -36861244.77749 -28699439.24246  17452829.6684   17452825.6254
 -15048917.49247 -11703802.91143  19516602.0674   19516599.1454
 -49656542.86746 -38673965.21942  20206067.4024   20206065.2814
 -30687395.02347 -23891725.55343  19777516.8954   19777512.4814
 -57879030.81649 -45079999.16246  17424566.6214   17424563.7974
  -9090754.43747  -7060660.68942  19769448.1214   19769446.9814
 -51700096.26249 -40264195.78447  16755326.4574   16755323.9654
  -6659186.80947  -5166566.84242  20024236.6924   20024234.4574
  -2129488.37146  -1642819.98542  20839827.1524   20839824.8714
 04  7 29  2 39 29.9880000  0 11G10G31G28G29G13G19G27G 7G 8G26G11
 -18837463.11746 -14658553.22942  20809339.1844   20809338.5314
 -24023370.96948 -18694719.51344  18110301.1454   18110298.7544
 -36945677.95349 -28765231.30146  17436762.4024   17436758.9844
 -15184660.12947 -11809576.34243  19490770.8014   19490768.5784
 -49601562.39146 -38631123.38942  20216529.3244   20216527.5944
 -30671982.28547 -23879715.63143  19780449.4884   19780445.1804
 -57911682.96149 -45105442.40146  17418352.9964   17418350.3564
  -9247847.10246  -7183070.45842  19739554.2154   19739553.0164
 -51766147.03949 -40315663.92747  16742757.3484   16742754.8284
  -6805592.27047  -5280648.98142  19996376.1134   19996374.3834
  -2242212.20346  -1730656.71042  20818376.5594   20818373.9774
 04  7 29  2 39 59.9880000  0 11G10G31G28G29G13G19G27G 7G 8G26G11
 -18833685.05146 -14655609.33842  20810058.1684   20810057.2194
 -24175398.14548 -18813182.20544  18081371.7074   18081369.2504
 -37029779.73449 -28830765.13946  17420758.4964   17420754.8204
 -15320031.33647 -11915060.37643  19465010.9734   19465008.0554
 -49546416.04746 -38588152.29242  20227024.6064   20227022.4384
 -30656137.19547 -23867368.81943  19783465.1604   19783460.5824
 -57944000.28549 -45130624.73746  17412203.4104   17412200.4734
  -9404752.27746  -7305334.15642  19709695.8794   19709694.8324
 -51831849.26649 -40366860.46247  16730254.9964   16730252.0084
  -6951650.54347  -5394460.54242  19968581.9104   19968580.4614
  -2354681.51246  -1818295.10642  20796974.2544   20796971.5044
 04  7 29  2 40 29.9880000  0 11G10G31G28G29G13G19G27G 7G 8G26G11
 -18829598.44146 -14652424.99642  20810836.1214   20810835.2344
 -24327048.77349 -18931351.48344  18052513.6294   18052511.0474
 -37113555.55549 -28896044.98446  17404816.7384   17404812.7774
 -15455033.28948 -12020256.66643  19439320.7934   19439318.0784
 -49491111.23846 -38545057.75442  20237547.4654   20237546.5984
 -30639867.18047 -23854690.90343  19786561.0904   19786556.5864
 -57975987.05949 -45155549.49046  17406116.4654   17406113.9304
  -9561472.64547  -7427453.81442  19679873.2774   19679871.9964
 -51897206.10949 -40417787.87546  16717818.0274   16717815.0864
  -7097363.84047  -5508003.36142  19940853.4184   19940851.2544
  -2466898.17646  -1905736.61442  20775620.3404   20775617.2424
 04  7 29  2 40 59.9880000  0 11G10G31G28G29G13G19G27G 7G 8G26G11
 -18825204.73446 -14649001.40542  20811671.9734   20811671.7624
 -24478318.52748 -19049223.97444  18023727.2774   18023725.4024
 -37197004.62149 -28961070.22146  17388936.8484   17388932.9694
 -15589662.31648 -12125162.36143  19413701.3094   19413699.3874
 -49435649.09046 -38501840.61842  20248102.1524   20248100.7774
 -30623173.01248 -23841682.49143  19789737.7544   19789733.3914
 -58007640.89849 -45180214.83646  17400093.2074   17400090.3244
  -9718004.32447  -7549426.47242  19650085.0674   19650084.6994
 -51962215.51249 -40468444.54347  16705446.7774   16705444.4384
  -7242728.02047  -5621274.07942  19913191.2774   19913189.4734
  -2578858.04746  -1992978.05342  20754314.5594   20754312.2344
 04  7 29  2 41 29.9880000  0 11G10G31G28G29G13G19G27G 7G 8G26G11
 -18820503.32046 -14645338.08742  20812567.2934   20812566.1454
 -24629201.21548 -19166794.86144  17995015.3484   17995013.2744
 -37280123.78549 -29025838.39046  17373119.4184   17373115.9144
 -15723912.38347 -12229772.78443  19388154.6604   19388152.1724
 -49380028.57446 -38458500.05142  20258685.8714   20258684.8954
 -30606053.47347 -23828342.59443  19792995.0594   19792991.1954
 -58038957.55149 -45204617.42445  17394133.5204   17394130.7744
  -9874341.28946  -7671247.36542  19620335.4494   19620334.5314
 -52026872.70349 -40518826.77147  16693142.9104   16693140.1564
  -7387736.95746  -5734268.01442  19885597.2854   19885595.5204
  -2690555.27346  -2080014.82742  20733059.8714   20733056.7504
 04  7 29  2 41 59.9880000  0 11G10G31G28G29G13G19G27G 7G 8G26G11
 -18815497.89546 -14641437.79842  20813519.3874   20813518.9064
 -24779694.66848 -19284062.45944  17966377.6604   17966375.2034
 -37362914.42649 -29090350.56946  17357365.0274   17357361.2544
 -15857781.60248 -12334086.44743  19362680.1604   19362677.9844
 -49324253.16446 -38415038.78842  20269299.7774   20269298.3404
 -30588511.72747 -23814673.73243  19796333.3714   19796328.6884
 -58069937.01249 -45228757.27146  17388238.5904   17388235.9024
 -10030482.18747  -7792915.52142  19590623.3244   19590622.0904
 -52091177.00449 -40568934.01047  16680906.4414   16680903.6174
  -7532388.64147  -5846983.55342  19858071.4344   19858068.7154
  -2801987.46947  -2166845.06642  20711855.3564   20711851.5124
 04  7 29  2 42 29.9880000  0 11G10G31G28G29G13G19G27G 7G 8G26G11
 -18810190.80546 -14637302.47042  20814529.8014   20814528.8484
 -24929795.64548 -19401024.21344  17937814.4104   17937811.7704
 -37445376.44149 -29154606.67946  17341673.1994   17341669.4304
 -15991267.31648 -12438101.27143  19337278.7464   19337276.5434
 -49268324.54746 -38371458.17342  20279943.3094   20279941.8404
 -30570549.52047 -23800677.18843  19799751.7464   19799747.4224
 -58100578.04349 -45252633.40846  17382407.6454   17382404.5514
 -10186424.04347  -7914428.54842  19560948.5124   19560947.2234
 -52155127.37149 -40618765.46847  16668737.1134   16668734.3714
  -7676679.89847  -5959418.27342  19830613.1524   19830611.0394
  -2913151.77347  -2253466.54642  20690700.6684   20690697.6804
 04  7 29  2 42 59.9880000  0 11G10G31G28G29G13G19G27G 7G 8G26G11
 -18804581.28946 -14632931.49242  20815596.9964   20815596.6334
 -25079497.58648 -19517675.04045  17909327.3634   17909324.4384
 -37527506.66049 -29218604.22846  17326044.2774   17326040.5944
 -16124363.24248 -12541812.34343  19311951.6454   19311948.9424
 -49212241.41846 -38327757.09742  20290615.0124   20290613.8364
 -30552165.37147 -23786351.88143  19803250.1374   19803245.5514
 -58130876.23049 -45276242.38346  17376642.4964   17376639.4224
 -10342160.79747  -8035781.75742  19531312.7314   19531311.3284
 -52218718.56649 -40668317.04647  16656636.0594   16656633.2774
  -7820604.34446  -6071567.14142  19803224.7624   19803223.2854
  -3024041.57046  -2339874.13742  20669599.6924   20669596.4454
 04  7 29  2 43 29.9880000  0 11G10G31G28G29G13G19G27G 7G 8G26G11
 -18798676.77746 -14628330.69142  20816720.9964   20816719.7544
 -25228802.11748 -19634016.19144  17880915.0354   17880912.9574
 -37609310.20749 -29282347.24946  17310477.7154   17310473.7624
 -16257071.19148 -12645221.15743  19286698.1454   19286695.3954
 -49156010.97345 -38283941.26542  20301315.8324   20301313.9924
 -30533366.37547 -23771703.36443  19806827.2854   19806822.7934
 -58160835.12949 -45299586.99546  17370941.0514   17370938.2664
 -10497694.57447  -8156976.79742  19501715.1064   19501714.4344
 -52281954.33249 -40717591.66347  16644602.7464   16644599.9184
  -7964163.66846  -6183431.52842  19775906.8324   19775904.7344
  -3134658.65646  -2426069.24142  20648549.4734   20648546.1994
 04  7 29  2 43 59.9880000  0 11G10G31G28G29G13G19G27G 7G 8G26G11
 -18792478.16046 -14623500.65342  20817900.3404   20817899.3014
 -25377704.54748 -19750044.01244  17852580.0824   17852577.6764
 -37690785.69949 -29345834.63646  17294973.2704   17294969.3834
 -16389386.95748 -12748324.31643  19261519.0674   19261516.6374
 -49099633.91446 -38240011.17142  20312043.4184   20312042.4344
 -30514152.37147 -23756731.44043  19810483.2854   19810479.3874
 -58190452.05149 -45322665.12446  17365305.2544   17365302.5704
 -10653020.93047  -8278010.25742  19472157.4654   19472156.5044
 -52344831.41049 -40766586.79747  16632637.6134   16632634.9264
  -8107353.20347  -6295007.75342  19748658.7624   19748656.2744
  -3244998.27747  -2512048.05542  20627552.2774   20627549.8364
 04  7 29  2 44 29.9880000  0 11G10G31G28G29G13G19G27G 7G 8G26G11
 -18785985.84046 -14618441.78242  20819135.2854   20819134.5274
 -25526199.60248 -19865754.39445  17824322.2704   17824319.8754
 -37771931.09849 -29409064.80246  17279531.9574   17279528.0944
 -16521305.57448 -12851118.03443  19236416.1064   19236413.7314
 -49043109.79346 -38195966.59341  20322800.4104   20322799.0044
 -30494523.63347 -23741436.32743  19814219.0204   19814214.8054
 -58219723.71549 -45345474.21346  17359734.9344   17359732.1644
 -10808135.18048  -8398878.40342  19442640.4814   19442639.1994
 -52407346.37149 -40815299.73847  16620741.5204   16620738.5904
  -8250167.90647  -6406291.86242  19721481.9264   19721480.1064
  -3355055.21946  -2597806.73742  20606609.2464   20606605.9814
 04  7 29  2 44 59.9880000  0 11G10G31G28G29G13G19G27G 7G 8G26G11
 -18779205.40646 -14613158.39542  20820425.8484   20820425.9574
 -25674287.02048 -19981147.15045  17796142.0904   17796139.5634
 -37852749.73049 -29472040.35546  17264152.6844   17264148.4494
 -16652827.12948 -12953602.35643  19211387.7544   19211385.7074
 -48986443.70746 -38151811.25542  20333584.0124   20333582.3674
 -30474485.27047 -23725822.02043  19818031.3794   19818028.0744
 -58248651.97348 -45368015.72246  17354230.0124   17354227.4814
 -10963037.50047  -8519581.42142  19413162.9814   19413162.0124
 -52469500.57849 -40863731.59547  16608913.8634   16608910.9224
  -8392607.61747  -6517283.79342  19694376.0674   19694374.4844
  -3464829.57046  -2683345.10942  20585719.7154   20585717.2424
 04  7 29  2 45 29.9880000  0 11G10G31G28G29G13G19G27G 7G 8G26G11
 -18772140.18746 -14607653.10042  20821770.5744   20821770.2584
 -25821964.50448 -20096220.45745  17768040.0744   17768037.6524
 -37933242.40649 -29534761.89846  17248835.1844   17248831.3134
 -16783949.81248 -13055775.85643  19186436.1454   19186433.4304
 -48929638.81646 -38107547.73842  20344393.7234   20344391.8134
 -30454039.83247 -23709890.54243  19821923.2314   19821918.5474
 -58277236.48449 -45390289.37046  17348790.8244   17348787.8244
 -11117725.89847  -8640117.71542  19383727.2234   19383725.6254
 -52531293.41849 -40911881.85247  16597155.1684   16597151.9814
  -8534670.00047  -6627981.68942  19667343.0274   19667341.2344
  -3574318.94547  -2768661.54042  20564884.7854   20564882.0044
 04  7 29  2 45 59.9880000  0 11G10G31G28G29G13G19G27G 7G 8G26G11
 -18764790.91446 -14601926.48442  20823169.9104   20823168.9924
 -25969227.04748 -20210970.46445  17740017.0514   17740014.3524
 -38013407.47349 -29597228.18346  17233580.5674   17233576.4814
 -16914668.62548 -13157634.66343  19161561.3174   19161558.6294
 -48872695.27046 -38063176.30842  20355230.0044   20355227.6494
 -30433187.42647 -23693641.91543  19825890.7624   19825886.6254
 -58305474.35949 -45412292.92546  17343417.0044   17343414.5674
 -11272195.98048  -8760483.95642  19354332.7384   19354331.4884
 -52592721.64849 -40959748.01647  16585465.5514   16585462.5904
  -8676350.33647  -6738381.93142  19640381.7234   19640379.5044
  -3683518.36346  -2853751.91742  20544104.9184   20544102.1804
 04  7 29  2 46 29.9880000  0 11G10G31G28G29G13G19G27G 7G 8G26G11
 -18757160.87546 -14595981.08342  20824621.2234   20824620.6724
 -26116072.46548 -20325395.41745  17712073.0984   17712070.9424
 -38093245.85949 -29659439.90446  17218387.5674   17218383.5944
 -17044982.01648 -13259177.55343  19136763.4964   19136761.0044
 -48815616.04746 -38018699.04641  20366091.6924   20366089.0124
 -30411930.89547 -23677078.42043  19829935.9964   19829931.6644
 -58333365.35948 -45434026.16746  17338109.8484   17338106.9694
 -11426445.78147  -8880678.50342  19324978.7854   19324978.3524
 -52653784.39149 -41007329.36547  16573845.9574   16573842.9494
  -8817646.28546  -6848482.63742  19613494.4184   19613491.8674
  -3792425.62147  -2938614.70442  20523380.9654   20523377.1414
 04  7 29  2 46 59.9880000  0 11G10G31G28G29G13G19G27G 7G 8G26G11
 -18749253.34846 -14589819.42642  20826126.2314   20826125.7464
 -26262498.20748 -20439493.35845  17684208.7704   17684206.6564
 -38172758.53549 -29721397.81946  17203256.9574   17203253.2464
 -17174887.55948 -13360402.61643  19112043.1844   19112040.8014
 -48758403.79346 -37974118.17742  20376977.5594   20376977.5514
 -30390272.97747 -23660202.14643  19834057.3874   19834052.9024
 -58360908.96148 -45455488.71946  17332868.4654   17332865.4734
 -11580473.25847  -9000699.80542  19295669.0434   19295667.6214
 -52714480.74249 -41054625.23347  16562295.6684   16562292.8564
  -8958555.60246  -6958282.10642  19586680.1374   19586678.4734
  -3901038.02346  -3023247.66042  20502712.1924   20502708.9964
 04  7 29  2 47 29.9880000  0 11G10G31G28G29G13G19G27G 7G 8G26G11
 -18741070.39546 -14583443.20742  20827683.1294   20827683.2504
 -26408500.69948 -20553261.48545  17656425.8094   17656423.1064
 -38251945.08649 -29783101.61346  17188188.1374   17188184.1414
 -17304382.11748 -13461307.45743  19087401.0354   19087398.7074
 -48701060.27746 -37929434.94242  20387889.6844   20387888.7464
 -30368215.12547 -23643014.22043  19838255.3014   19838250.4694
 -58388103.48049 -45476679.25446  17327693.3634   17327690.7774
 -11734275.09047  -9120545.32842  19266401.6134   19266400.1604
 -52774808.76649 -41101634.08147  16550815.6604   16550812.7664
  -9099074.45746  -7067777.27942  19559940.6294   19559938.4694
  -4009352.45746  -3107648.50342  20482100.8874   20482097.7584
 04  7 29  2 47 59.9880000  0 11G10G31G28G29G13G19G27G 7G 8G26G11
 -18732609.48046 -14576850.33842  20829293.1064   20829293.1254
 -26554071.52048 -20666693.25745  17628724.4104   17628721.9024
 -38330800.36749 -29844547.27146  17173182.3954   17173178.7624
 -17433457.70748 -13561885.82243  19062839.0904   19062836.5274
 -48643582.45746 -37884647.15041  20398827.9264   20398826.8014
 -30345753.83647 -23625511.95643  19842528.9494   19842524.5354
 -58414942.72348 -45497592.96546  17322585.8404   17322583.2034
 -11887843.51247  -9240208.93542  19237177.8324   19237176.6064
 -52834762.71149 -41148351.44047  16539406.5594   16539403.7774
  -9239194.84846  -7176961.96942  19533276.4264   19533274.4064
  -4117360.35946  -3191810.47342  20461547.4264   20461544.2774
 04  7 29  2 48 29.9880000  0 11G10G31G28G29G13G19G27G 7G 8G26G11
 -18723878.49246 -14570047.05942  20830954.8324   20830954.5204
 -26699213.02748 -20779790.49445  17601104.9574   17601102.4844
 -38409330.07849 -29905739.23946  17158238.6764   17158235.1564
 -17562116.84448 -13662139.65943  19038355.8244   19038353.5084
 -48585977.77346 -37839760.51042  20409789.8484   20409789.8444
 -30322896.59847 -23607701.12843  19846879.0204   19846874.2544
 -58441431.05549 -45518233.22746  17317545.5594   17317542.5164
 -12041181.20348  -9359692.79043  19207998.8404   19207997.5244
 -52894345.63749 -41194779.68447  16528068.3874   16528065.8094
  -9378919.11346  -7285837.98142  19506687.6064   19506685.5204
  -4225064.07847  -3275735.40742  20441052.4574   20441048.5044
 04  7 29  2 48 59.9880000  0 11G10G31G28G29G13G19G27G 7G 8G26G11
 -18714881.36346 -14563036.37042  20832667.1844   20832666.6564
 -26843923.40248 -20892551.78245  17573567.1524   17573564.9844
 -38487535.87549 -29966678.81646  17143356.7314   17143352.6724
 -17690358.01248 -13762067.82243  19013952.1924   19013950.0394
 -48528249.47347 -37794777.49642  20420775.3954   20420774.0044
 -30299647.18447 -23589584.73143  19851303.0124   19851298.2664
 -58467568.59448 -45538600.14246  17312571.6524   17312568.9924
 -12194286.55148  -9478995.54543  19178863.7774   19178862.6174
 -52953557.41049 -41240918.72947  16516800.6374   16516798.2074
  -9518245.36347  -7394403.84142  19480174.9494   19480172.2424
  -4332461.93046  -3359422.00642  20420614.5904   20420612.0634
 04  7 29  2 49 29.9880000  0 11G10G31G28G29G13G19G27G 7G 8G26G11
 -18705613.47746 -14555814.75942  20834430.9964   20834429.7234
 -26988192.36348 -21004969.11145  17546113.9104   17546111.9454
 -38565410.69549 -30027360.49346  17128537.6684   17128533.8444
 -17818171.25448 -13861662.53843  18989630.1924   18989628.0554
 -48470392.66847 -37749694.43042  20431785.8954   20431785.2584
 -30276000.44947 -23571158.72243  19855803.2234   19855798.2114
 -58493347.11349 -45558687.30446  17307666.1294   17307663.6334
 -12347149.84448  -9598109.73443  19149775.2154   19149773.3634
 -53012389.48449 -41286761.90147  16505605.4024   16505602.5514
  -9657163.37146  -7502651.58442  19453739.3014   19453737.2974
  -4439544.07446  -3442862.57742  20400237.9654   20400234.1764
 04  7 29  2 49 59.9870000  0 11G10G31G28G29G13G19G27G 7G 8G26G11
 -18696084.63346 -14548389.78242  20836243.9914   20836243.6984
 -27132018.98449 -21117041.76145  17518744.9524   17518741.9054
 -38642959.11749 -30087787.82146  17113780.6634   17113776.6124
 -17945556.63348 -13960923.84043  18965389.6794   18965387.3084
 -48412418.06647 -37704519.46242  20442817.6944   20442815.5114
 -30251966.00447 -23552430.60143  19860376.3664   19860371.3084
 -58518771.49249 -45578498.51446  17302828.0234   17302825.3594
 -12499770.12548  -9717034.54943  19120732.4374   19120730.9604
 -53070845.66049 -41332312.15747  16494481.7024   16494478.7104
  -9795672.48846  -7610580.73442  19427381.9444   19427379.9644
  -4546310.52346  -3526057.19042  20379920.8744   20379917.2844
 04  7 29  2 50 29.9870000  0 11G10G31G28G29G13G19G27G 7G 8G26G11
 -18686293.94546 -14540760.69742  20838107.7734   20838106.6514
 -27275406.97348 -21228772.62845  17491458.8904   17491456.4294
 -38720183.78149 -30147962.87746  17099085.3744   17099081.4684
 -18072516.92248 -14059853.90843  18941229.9374   18941227.4914
 -48354321.14847 -37659249.31142  20453873.6484   20453872.4724
 -30227541.26247 -23533398.34243  19865024.3124   19865019.2694
 -58543839.59049 -45598032.10345  17298057.9684   17298054.9954
 -12652151.98048  -9835773.55243  19091734.5854   19091733.5624
 -53128925.53149 -41377569.19746  16483429.4374   16483426.7334
  -9933776.03146  -7718193.83642  19401101.8194   19401099.6754
  -4652762.30946  -3609006.54342  20359663.7024   20359661.0464
 04  7 29  2 50 59.9870000  0 11G10G31G28G29G13G19G27G 7G 8G26G11
 -18676245.99246 -14532931.28342  20840019.1874   20840019.1484
 -27418350.12948 -21340156.87345  17464257.4444   17464254.7614
 -38797083.80949 -30207884.96446  17084451.7654   17084447.8434
 -18199047.03548 -14158448.76243  18917151.8904   18917150.2574
 -48296107.73047 -37613888.25842  20464951.4914   20464949.2964
 -30202730.79747 -23514065.55943  19869745.7654   19869740.3084
 -58568551.27349 -45617287.95446  17293355.3744   17293352.5194
 -12804289.50848  -9954322.21243  19062784.2104   19062782.6594
 -53186627.25849 -41422531.57747  16472448.9764   16472446.6014
 -10071468.21147  -7825486.41742  19374899.4604   19374897.5624
  -4758894.93046  -3691707.33342  20339467.7024   20339463.9994
 04  7 29  2 51 29.9870000  0 11G10G31G28G29G13G19G27G 7G 8G26G11
 -18665944.78146 -14524904.40041  20841979.3984   20841978.7374
 -27560846.95349 -21451193.31645  17437141.2414   17437138.8664
 -38873661.09449 -30267555.57346  17069879.4134   17069875.6634
 -18325145.39148 -14256707.16943  18893156.3434   18893153.4844
 -48237781.29347 -37568439.17742  20476050.6874   20476049.8004
 -30177538.39847 -23494435.12843  19874539.7344   19874534.7184
 -58592906.92249 -45636266.38246  17288720.4444   17288717.8554
 -12956181.43448 -10072679.46043  19033879.8044   19033878.3354
 -53243950.41849 -41467198.97047  16461540.8584   16461538.2844
 -10208747.35546  -7932457.14042  19348775.7964   19348774.1484
  -4864706.68746  -3774157.94642  20319332.0854   20319328.6244
 04  7 29  2 51 59.9870000  0 11G10G31G28G29G13G19G27G 7G 8G26G11
 -18655391.25445 -14516680.97141  20843987.8274   20843987.5264
 -27702892.68448 -21561878.27245  17410111.2264   17410108.2804
 -38949913.96949 -30326973.39046  17055369.0544   17055365.0974
 -18450807.85548 -14354625.93943  18869243.3824   18869241.0074
 -48179342.26246 -37522902.31942  20487170.0694   20487169.8744
 -30151964.18047 -23474507.21043  19879406.1404   19879401.1094
 -58616903.78949 -45654965.25846  17284154.3904   17284151.6094
 -13107823.26648 -10190841.83643  19005023.0854   19005021.7884
 -53300892.20749 -41511569.19847  16450705.4134   16450702.5464
 -10345608.84047  -8039102.43742  19322732.4684   19322730.4444
  -4970192.80946  -3856354.90142  20299258.7804   20299255.4444
 04  7 29  2 52 29.9870000  0 11G10G31G28G29G13G19G27G 7G 8G26G11
 -18644589.64146 -14508264.23641  20846043.2344   20846043.1834
 -27844485.68049 -21672210.44145  17383166.6634   17383163.8594
 -39025844.06249 -30386139.67246  17040919.8904   17040915.9954
 -18576032.85548 -14452203.81543  18845413.4684   18845411.2614
 -48120794.12946 -37477280.48942  20498311.8664   20498311.5544
 -30126011.68047 -23454284.47443  19884344.8664   19884339.9914
 -58640542.10949 -45673384.73646  17279655.8904   17279653.4484
 -13259213.78948 -10308808.38643  18976214.4844   18976213.1634
 -53357452.68049 -41555642.28947  16439942.1404   16439939.4444
 -10482050.94147  -8145420.92142  19296768.0154   19296766.1634
  -5075351.93046  -3938296.96242  20279247.3824   20279244.2654
 04  7 29  2 52 59.9870000  0 11G10G31G28G29G13G19G27G 7G 8G26G11
 -18633538.51246 -14499652.97641  20848147.1484   20848146.6204
 -27985619.17249 -21782184.54545  17356309.5774   17356307.3044
 -39101447.80149 -30445051.67246  17026532.7804   17026529.0194
 -18700814.15648 -14549435.98243  18821668.5464   18821666.1944
 -48062135.25846 -37431572.35342  20509474.3664   20509473.6674
 -30099679.21947 -23433765.69143  19889355.9134   19889351.0934
 -58663817.34449 -45691521.27445  17275226.9764   17275223.9954
 -13410346.60548 -10426574.11743  18947454.3274   18947453.3394
 -53413627.04749 -41599414.51246  16429252.2964   16429249.6444
 -10618066.93747  -8251407.37042  19270884.9684   19270883.4254
  -5180176.98446  -4019978.84242  20259299.6164   20259296.5694
 04  7 29  2 53 29.9870000  0 11G10G31G28G29G13G19G27G 7G 8G26G11
 -18622244.33246 -14490852.48441  20850295.8124   20850295.2344
 -28126293.78549 -21891801.09445  17329540.2184   17329538.0424
 -39176729.15649 -30503712.47146  17012207.3744   17012203.2654
 -18825152.56248 -14646323.01343  18798007.7804   18798005.3044
 -48003371.39546 -37385782.37842  20520656.0774   20520655.5544
 -30072972.25847 -23412955.10443  19894437.8194   19894433.4444
 -58686731.86349 -45709376.75845  17270866.6164   17270863.7654
 -13561222.56248 -10544139.71343  18918743.8124   18918743.0234
 -53469416.91449 -41642887.14047  16418636.1554   16418633.0974
 -10753657.54347  -8357062.33442  19245082.6404   19245081.2104
  -5284668.82446  -4101401.01742  20239415.9604   20239412.0114
 04  7 29  2 53 59.9870000  0 11G10G31G28G29G13G19G27G 7G 8G26G11
 -18610707.51246 -14481862.79241  20852491.7414   20852490.9684
 -28266504.44949 -22001056.11945  17302859.2344   17302856.6714
 -39251686.33649 -30562120.64446  16997943.4914   16997939.7764
 -18949043.10248 -14742861.06343  18774432.1714   18774430.0264
 -47944502.24246 -37339910.35142  20531859.5464   20531857.9804
 -30045890.94547 -23391852.79243  19899590.9374   19899586.7924
 -58709282.61749 -45726948.77546  17266574.9764   17266572.2884
 -13711836.96548 -10661501.49243  18890082.6944   18890081.8594
 -53524818.65649 -41686057.32247  16408093.2654   16408090.7494
 -10888817.69947  -8462381.91443  19219362.8044   19219361.0934
  -5388822.22746  -4182559.43842  20219596.2494   20219592.5424
 04  7 29  2 54 29.9870000  0 11G10G31G28G29G13G19G27G 7G 8G26G11
 -18598932.50046 -14472687.53641  20854732.0464   20854730.8274
 -28406250.10549 -22109948.79845  17276266.4054   17276263.7574
 -39326321.44149 -30620277.87146  16983740.8594   16983737.0814
 -19072485.41848 -14839049.85444  18750941.7654   18750939.5304
 -47885532.10946 -37293959.73441  20543082.4764   20543080.0694
 -30018439.34447 -23370461.97643  19904815.3194   19904810.9644
 -58731470.62949 -45744238.14945  17262352.9764   17262350.2414
 -13862189.24648 -10778659.00743  18861471.7264   18861470.3434
 -53579833.51249 -41728926.04047  16397624.3824   16397621.8314
 -11023546.39147  -8567365.27242  19193725.1634   19193723.2344
  -5492636.43046  -4263453.61342  20199840.4604   20199836.7104
 04  7 29  2 54 59.9870000  0 11G10G31G28G29G13G19G27G 7G 8G26G11
 -18586921.32446 -14463328.19041  20857018.1634   20857017.7184
 -28545527.09849 -22218476.28845  17249762.8514   17249760.0074
 -39400633.77049 -30678183.56746  16969599.8124   16969595.9334
 -19195475.83648 -14934886.49343  18727537.5464   18727535.3864
 -47826462.41845 -37247931.47741  20554321.9684   20554320.6714
 -29990618.79347 -23348783.61643  19910110.0304   19910105.2414
 -58753294.04749 -45761243.41546  17258200.0854   17258197.2344
 -14012275.74648 -10895609.42443  18832910.9604   18832909.5624
 -53634458.62949 -41771491.06747  16387229.3824   16387226.5264
 -11157839.68747  -8672009.37643  19168170.0384   19168167.6124
  -5596107.52345  -4344080.39442  20180150.6244   20180146.8904
 04  7 29  2 55 29.9870000  0 11G10G31G28G29G13G19G27G 7G 8G26G11
 -18574673.44946 -14453784.53641  20859348.0384   20859348.2884
 -28684329.41449 -22326633.89445  17223349.1554   17223346.8864
 -39474620.82049 -30735835.81946  16955520.6244   16955516.8434
 -19318008.63748 -15030366.60444  18704220.5544   18704218.0344
 -47767291.96145 -37201824.59341  20565581.8274   20565581.9054
 -29962428.30147 -23326817.02242  19915473.7574   19915469.6674
 -58774749.00049 -45777961.56345  17254117.2104   17254114.5894
 -14162091.00048 -11012348.50443  18804402.2104   18804400.6754
 -53688689.74249 -41813749.06747  16376909.7414   16376907.1084
 -11291691.80147  -8776309.71443  19142698.6014   19142696.8164
  -5699229.59046  -4424435.21242  20160526.6244   20160523.5034
 04  7 29  2 55 59.9870000  0 11G10G31G28G29G13G19G27G 7G 8G26G11
 -18562194.21946 -14444060.54241  20861723.1794   20861723.4094
 -28822656.66449 -22434421.32045  17197026.6484   17197024.3004
 -39548285.34449 -30793236.72246  16941502.4524   16941498.5544
 -19440083.84848 -15125490.11143  18680989.9054   18680987.7884
 -47708025.69946 -37155643.14841  20576861.8744   20576859.5194
 -29933872.54346 -23304565.78843  19920907.2964   19920902.9054
 -58795836.95749 -45794393.74146  17250104.5384   17250101.5234
 -14311634.93448 -11128876.13543  18775944.5934   18775943.7494
 -53742528.15649 -41855701.07447  16366664.6404   16366662.0154
 -11425102.41047  -8880266.00743  19117311.1944   19117310.0734
  -5802002.24646  -4504517.78942  20140969.4374   20140966.7344
 04  7 29  2 56 29.9870000  0 11G10G31G28G29G13G19G27G 7G 8G26G11
 -18549486.86746 -14434158.67442  20864141.4374   20864140.8434
 -28960506.59849 -22541836.80645  17170794.6014   17170792.2144
 -39621628.14549 -30850386.94946  16927546.1244   16927542.1714
 -19561699.44548 -15220255.47444  18657847.2104   18657845.2494
 -47648666.02745 -37109388.91541  20588156.1094   20588155.5154
 -29904954.36746 -23282032.15642  19926410.6244   19926406.3704
 -58816557.52749 -45810539.64645  17246161.2024   17246158.8194
 -14460905.46548 -11245190.76443  18747539.5154   18747538.2884
 -53795972.78549 -41897346.22746  16356494.5464   16356491.6244
 -11558069.09847  -8983876.36843  19092009.0854   19092006.7024
  -5904423.18046  -4584326.22942  20121479.8194   20121476.9094
 04  7 29  2 56 59.9870000  0 11G10G31G28G29G13G19G27G 7G 8G26G11
 -18536555.02746 -14424082.04142  20866602.1554   20866602.1364
 -29097877.58649 -22648879.09645  17144653.5624   17144651.0934
 -39694650.77049 -30907287.67746  16913650.1714   16913646.2534
 -19682854.09848 -15314661.66443  18634792.4914   18634790.1714
 -47589216.51645 -37063064.70241  20599467.4374   20599467.9444
 -29875677.07847 -23259218.72943  19931981.4914   19931977.1014
 -58836911.30549 -45826399.73746  17242288.3984   17242285.8474
 -14609901.25048 -11361291.27743  18719186.9294   18719185.0894
 -53849024.03949 -41938684.87547  16346399.3664   16346396.5424
 -11690590.38747  -9087139.66743  19066791.0074   19066789.4054
  -6006490.83646  -4663859.46242  20102057.7024   20102053.9414
 04  7 29  2 57 29.9870000  0 11G10G31G28G29G13G19G27G 7G 8G26G11
 -18523400.20746 -14413831.65441  20869105.7884   20869105.4174
 -29234765.21549 -22755544.75145  17118605.2494   17118602.1674
 -39767352.18449 -30963938.12446  16899815.6484   16899811.7144
 -19803543.81248 -15408705.57143  18611825.9914   18611823.4764
 -47529677.50445 -37016670.69141  20610799.1244   20610797.6124
 -29846041.32047 -23236125.94042  19937621.2964   19937617.0114
 -58856895.59849 -45841971.92446  17238485.3514   17238482.6514
 -14758618.30148 -11477174.59343  18690887.1874   18690884.9954
 -53901678.89149 -41979714.63246  16336379.1714   16336376.6984
 -11822661.64547  -9190052.30643  19041658.3124   19041656.6364
  -6108200.83646  -4743113.94742  20082702.2884   20082699.1364
 04  7 29  2 57 59.9870000  0 11G10G31G28G29G13G19G27G 7G 8G26G11
 -18510026.28546 -14403410.41741  20871650.2574   20871650.2304
 -29371167.96949 -22861832.56445  17092648.1244   17092645.2614
 -39839733.81249 -31020339.37146  16886041.4374   16886037.8234
 -19923767.07048 -15502386.01043  18588947.9214   18588946.0154
 -47470052.92645 -36970210.02941  20622145.0624   20622143.1324
 -29816050.64847 -23212756.62442  19943328.7494   19943324.2694
 -58876510.92649 -45857256.60945  17234752.5694   17234750.1204
 -14907055.32448 -11592839.73143  18662640.3354   18662638.3554
 -53953937.23849 -42020435.41747  16326434.7884   16326432.0664
 -11954281.48447  -9292613.20843  19016612.3664   19016610.2224
  -6209551.56246  -4822088.46842  20063415.7414   20063412.5234
 04  7 29  2 58 29.9870000  0 11G10G31G28G29G13G19G27G 7G 8G26G11
 -18496430.28946 -14392816.24041  20874237.9054   20874237.1124
 -29507077.60249 -22967736.13845  17066785.7104   17066782.8944
 -39911790.54349 -31076487.45946  16872329.7884   16872325.9564
 -20043516.00848 -15595696.85443  18566160.5384   18566158.5034
 -47410339.24246 -36923679.90341  20633508.5464   20633507.1714
 -29785701.52747 -23189107.92842  19949103.6714   19949099.8314
 -58895750.98849 -45872248.86845  17231091.4134   17231088.4604
 -15055204.32048 -11708280.41043  18634447.9134   18634446.5774
 -54005792.00049 -42060841.72347  16316567.1554   16316564.3314
 -12085441.32047  -9394815.63843  18991653.1874   18991651.2454
  -6310534.93046  -4900776.76942  20044199.1794   20044195.9254
 04  7 29  2 58 59.9870000  0 11G10G31G28G29G13G19G27G 7G 8G26G11
 -18482619.05146 -14382054.32841  20876866.2024   20876864.7614
 -29642495.34849 -23073256.42445  17041016.1164   17041013.8704
 -39983526.83249 -31132385.84846  16858678.4374   16858675.1324
 -20162792.01248 -15688639.17944  18543463.3514   18543460.9054
 -47350542.80546 -36877085.44041  20644887.2024   20644886.3394
 -29755000.33647 -23165184.93642  19954946.3194   19954942.0154
 -58914618.84449 -45886951.11045  17227500.8664   17227498.5934
 -15203066.48848 -11823497.62443  18606310.3984   18606309.0154
 -54057246.30949 -42100935.98847  16306775.4834   16306773.2884
 -12216142.65247  -9496660.81043  18966781.1014   18966779.6404
  -6411151.93746  -4979179.56542  20025052.5384   20025049.3514
 04  7 29  2 59 29.9870000  0 11G10G31G28G29G13G19G27G 7G 8G26G11
 -18468595.46146 -14371126.88042  20879535.1794   20879534.5194
 -29777418.37549 -23178391.21245  17015340.9374   17015338.8624
 -40054942.93749 -31188034.74346  16845088.8984   16845084.9444
 -20281592.59848 -15781211.03644  18520856.3354   18520853.7574
 -47290665.16845 -36830427.61341  20656280.4604   20656280.2374
 -29723949.26247 -23140989.32542  19960855.1404   19960851.0664
 -58933113.63349 -45901362.64745  17223981.1634   17223979.2264
 -15350639.56248 -11938489.53543  18578228.1484   18578227.4054
 -54108298.84449 -42140717.18746  16297060.7104   16297057.9214
 -12346382.44947  -9598146.33443  18941997.6874   18941995.4444
  -6511399.78946  -5057294.72542  20005975.8514   20005972.6054
 04  7 29  2 59 59.9870000  0 10G31G28G29G13G19G27G 7G 8G26G11
 -29911843.22349 -23283137.80645  16989761.1164   16989758.3984
 -40126038.52749 -31243433.88846  16831559.8514   16831555.5624
 -20399914.63748 -15873410.02244  18498340.5774   18498338.1284
 -47230707.94145 -36783707.65141  20667690.3904   20667689.2614
 -29692549.79346 -23116522.18742  19966829.6014   19966826.1014
 -58951233.89148 -45915482.33645  17220533.2804   17220530.7534
 -15497920.30547 -12053253.64843  18550201.9054   18550200.3314
 -54158947.10249 -42180183.35247  16287422.7494   16287419.8084
 -12476157.35947  -9699269.59843  18917302.3194   18917300.2224
  -6611274.91046  -5135119.42542  19986969.7734   19986966.8594
 04  7 29  3  0 29.9870000  0 10G31G28G29G13G19G27G 7G 8G26G11
 -30045765.87949 -23387493.07746  16964276.4054   16964273.6554
 -40196812.47349 -31298582.39346  16818092.0854   16818088.0814
 -20517754.46148 -15965233.23244  18475916.3274   18475913.5384
 -47170672.41445 -36736926.86341  20679113.9374   20679113.9874
 -29660802.87146 -23091784.36442  19972871.5544   19972867.0114
 -58968977.48849 -45929308.52245  17217156.8664   17217154.2924
 -15644904.98448 -12167787.09243  18522231.5544   18522229.7924
 -54209189.46549 -42219333.24847  16277862.3274   16277859.2764
 -12605463.22347  -9800027.37743  18892696.1874   18892693.8124
  -6710773.38746  -5212650.67342  19968036.3904   19968032.7344
 04  7 29  3  0 59.9870000  0 10G31G28G29G13G19G27G 7G 8G26G11
 -30179172.43449 -23491446.20445  16938890.0154   16938887.3624
 -40267254.31249 -31353472.12046  16804687.3274   16804683.2304
 -20635098.05948 -16056669.78944  18453586.6164   18453584.1124
 -47110549.16046 -36690077.68141  20690555.8904   20690555.9954
 -29628699.32046 -23066768.69442  19978980.6014   19978975.8664
 -58986332.41449 -45942831.84845  17213854.4054   17213851.8314
 -15791579.70748 -12282079.02043  18494320.1794   18494318.5544
 -54259012.45749 -42258156.34746  16268380.8824   16268378.1914
 -12734286.02747  -9900408.72943  18868181.8594   18868180.0584
  -6809881.18446  -5289877.47142  19949176.4134   19949173.4054
 04  7 29  3  1 29.9870000  0 10G31G28G29G13G19G27G 7G 8G26G11
 -30312053.25049 -23594989.65645  16913603.7494   16913600.9954
 -40337357.25049 -31408097.77546  16791347.0934   16791343.0934
 -20751936.49248 -16147712.70344  18431352.8904   18431349.9994
 -47050333.66446 -36643156.43941  20702014.1794   20702013.7764
 -29596234.57846 -23041471.49142  19985158.1714   19985153.5544
 -59003290.90249 -45956046.27145  17210627.2654   17210624.6594
 -15937935.32048 -12396122.26343  18466469.7184   18466467.8234
 -54308408.59449 -42296646.84047  16258981.4834   16258978.2844
 -12862616.13347 -10000406.17243  18843761.3124   18843759.2104
  -6908588.60546  -5366792.28042  19930392.9134   19930390.2804
 04  7 29  3  1 59.9870000  0 10G31G28G29G13G19G27G 7G 8G26G11
 -30444408.35949 -23698123.48246  16888417.4604   16888414.4174
 -40407124.43049 -31462461.80646  16778070.7414   16778067.0774
 -20868269.65248 -16238361.89544  18409215.2734   18409212.7764
 -46990030.61346 -36596167.06641  20713489.2654   20713488.9844
 -29563413.68446 -23015896.78442  19991403.4604   19991399.6094
 -59019854.92248 -45968953.31845  17207474.9764   17207472.3904
 -16083971.86748 -12509916.91743  18438679.7494   18438677.7224
 -54357378.61349 -42334805.29547  16249662.2884   16249659.7534
 -12990453.36347 -10100019.56843  18819434.3434   18819432.6874
  -7006895.82846  -5443395.22942  19911686.0694   19911682.7924
 04  7 29  3  2 29.9870000  0 10G31G28G29G13G19G27G 7G 8G26G11
 -30576236.81649 -23800846.91146  16863330.9684   16863328.8864
 -40476557.78949 -31516565.70146  16764857.9684   16764854.1324
 -20984097.07048 -16328617.01944  18387173.6094   18387171.8234
 -46929643.97045 -36549112.51641  20724979.2264   20724980.7734
 -29530240.35546 -22990047.43742  19997716.5234   19997712.2574
 -59036025.41049 -45981553.70445  17204398.1244   17204395.4914
 -16229688.63748 -12623462.37643  18410950.5074   18410949.0194
 -54405923.55549 -42372632.51847  16240424.6404   16240421.8704
 -13117797.08247 -10199248.36843  18795202.1324   18795200.0664
  -7104801.91446  -5519685.68942  19893054.9844   19893051.2654
 04  7 29  3  2 59.9870000  0  9G31G28G29G19G27G 7G 8G26G11
 -30707536.82849 -23903158.57645  16838345.3354   16838342.7844
 -40545658.85548 -31570410.67746  16751708.8434   16751704.5154
 -21099417.11348 -16418476.77044  18365229.5624   18365226.8314
 -29496717.92646 -22963926.07542  20004095.4444   20004091.7884
 -59051802.50048 -45993847.54545  17201395.7574   17201393.2414
 -16375084.15248 -12736757.49943  18383282.3824   18383280.9014
 -54454043.03149 -42410128.20147  16231267.8044   16231265.1124
 -13244645.05547 -10298090.90242  18771063.3044   18771061.6204
  -7202305.03146  -5595662.13242  19874500.9444   19874497.4724
 04  7 29  3  3 29.9870000  0  9G31G28G29G19G27G 7G 8G26G11
 -30838303.44149 -24005054.60245  16813461.5774   16813458.5504
 -40614425.54748 -31623995.09046  16738622.6634   16738618.6754
 -21214225.05148 -16507937.48244  18343382.1164   18343379.6674
 -29462846.14546 -22937532.52942  20010541.9844   20010537.7344
 -59067183.04349 -46005832.40145  17198468.9524   17198466.2224
 -16520153.56648 -12849798.53444  18355676.4604   18355675.0304
 -54501733.54749 -42447289.62747  16222192.6794   16222189.6914
 -13370992.42647 -10396543.35043  18747020.1244   18747018.4054
  -7299399.75847  -5671320.28542  19856024.0934   19856020.9684
 04  7 29  3  3 59.9860000  0  9G31G28G29G19G27G 7G 8G26G11
 -30968519.65249 -24106521.73746  16788682.5104   16788679.4554
 -40682845.82049 -31677309.57646  16725602.6904   16725599.0534
 -21328504.77048 -16596986.58844  18321635.5414   18321632.7364
 -29428618.30146 -22910861.46242  20017055.2914   20017050.5654
 -59082155.76249 -46017499.47445  17195619.6274   17195616.9594
 -16664879.55548 -12962571.94043  18328136.4324   18328134.4404
 -54548982.00449 -42484106.60346  16213201.4554   16213198.5764
 -13496822.22347 -10494592.52042  18723075.7684   18723073.6354
  -7396070.41446  -5746648.00842  19837628.1744   19837624.6974
 04  7 29  3  4 29.9860000  0  9G31G28G29G19G27G 7G 8G26G11
 -31098190.96948 -24207564.28846  16764006.4014   16764003.7214
 -40750924.31648 -31730357.74746  16712648.0024   16712643.8384
 -21442260.85948 -16685627.69144  18299988.6974   18299985.9044
 -29394033.91446 -22883912.60842  20023636.3154   20023631.3854
 -59096720.39549 -46028848.54645  17192848.4014   17192845.6354
 -16809268.77048 -13075082.96244  18300659.5804   18300658.1544
 -54595789.96149 -42520580.33547  16204294.2764   16204291.5294
 -13622139.51248 -10592242.30143  18699228.8224   18699226.9044
  -7492320.44547  -5821647.99042  19819312.8854   19819309.3894
 04  7 29  3  4 59.9860000  0  9G31G28G29G19G27G 7G 8G26G11
 -31227308.23848 -24308175.09946  16739435.8464   16739433.2444
 -40818656.84048 -31783136.31646  16699758.7764   16699754.7444
 -21555484.83248 -16773854.12944  18278442.9404   18278439.8974
 -29359094.14546 -22856686.84042  20030285.6044   20030280.1624
 -59110873.58649 -46039877.02145  17190155.0414   17190152.4634
 -16953311.73848 -13187324.16244  18273248.6044   18273247.8304
 -54642152.48049 -42556706.97447  16195471.9404   16195469.3074
 -13746935.24647 -10689485.69242  18675480.4014   18675478.5884
  -7588141.30947  -5896313.57342  19801078.1904   19801075.4864
 04  7 29  3  5 29.9860000  0  9G31G28G29G19G27G 7G 8G26G11
 -31355873.65248 -24408355.91646  16714971.1274   16714967.8074
 -40886048.46948 -31835649.26846  16686934.6194   16686930.4674
 -21668179.22348 -16861667.93244  18256997.3934   18256995.1194
 -29323806.19947 -22829189.72842  20036999.7994   20036995.0334
 -59124619.32449 -46050588.00645  17187539.2524   17187536.8774
 -17097010.84848 -13299297.43543  18245904.6044   18245902.4904
 -54688073.02749 -42592489.20947  16186733.4324   16186730.7684
 -13871211.63347 -10786324.39943  18651831.5024   18651829.5574
  -7683535.46146  -5970646.60242  19782925.9404   19782922.2724
 04  7 29  3  5 59.9860000  0  9G31G28G29G19G27G 7G 8G26G11
 -31483891.89148 -24508110.34846  16690609.9554   16690606.9554
 -40953106.89148 -31887902.56146  16674173.6744   16674169.7334
 -21780349.02348 -16949072.94544  18235652.4474   18235649.8304
 -29288179.37546 -22801428.61542  20043779.0804   20043774.7294
 -59137964.05948 -46060986.51345  17185000.1824   17184997.1544
 -17240370.87948 -13411006.45444  18218623.9634   18218622.1354
 -54733557.64549 -42627931.76346  16178077.8854   16178075.3344
 -13994972.96548 -10882761.76242  18628280.6354   18628278.5574
  -7778507.44147  -6044650.71442  19764852.2524   19764850.0224
 04  7 29  3  6 29.9860000  0  9G31G28G29G19G27G 7G 8G26G11
 -31611358.44949 -24607434.89346  16666353.8304   16666350.9364
 -41019830.72349 -31939895.14646  16661476.7364   16661472.8154
 -21891989.84848 -17036065.77544  18214407.7604   18214405.3854
 -29252213.81246 -22773403.49342  20050623.5574   20050618.9984
 -59150905.28148 -46071070.60345  17182537.2914   17182534.6474
 -17383387.54348 -13522447.96443  18191408.2294   18191406.4244
 -54778602.84449 -42663031.91347  16169506.3464   16169503.2094
 -14118214.82448 -10978794.34942  18604828.3544   18604826.2764
  -7873052.56647  -6118322.20942  19746860.9244   19746858.0064
 04  7 29  3  6 59.9860000  0  9G31G28G29G19G27G 7G 8G26G11
 -31738272.28549 -24706328.76046  16642202.7764   16642200.0884
 -41086221.71549 -31991628.36946  16648842.8304   16648839.0334
 -22003100.85948 -17122645.76344  18193263.9084   18193261.4434
 -29215913.34047 -22745117.41342  20057531.3304   20057526.4864
 -59163443.77048 -46080840.87345  17180151.1194   17180148.5964
 -17526059.94948 -13633621.20044  18164258.7294   18164256.8854
 -54823209.63349 -42697790.45647  16161017.7524   16161015.2874
 -14240936.01647 -11074421.23343  18581475.4324   18581473.4244
  -7967169.75847  -6191660.27442  19728951.4944   19728948.4474
 04  7 29  3  7 29.9860000  0  9G31G28G29G19G27G 7G 8G26G11
 -31864632.19549 -24804790.99446  16618157.3224   16618154.4834
 -41152281.57449 -32043103.57646  16636272.0104   16636268.2174
 -22113681.05148 -17208812.13444  18172221.1274   18172218.4904
 -29179281.53146 -22716573.17842  20064501.1114   20064497.5534
 -59175579.96548 -46090297.66045  17177842.1194   17177839.2954
 -17668386.94948 -13744525.30244  18137174.6274   18137172.9594
 -54867377.48849 -42732206.95747  16152612.9864   16152610.2874
 -14363135.21947 -11169641.35343  18558221.7764   18558218.9634
  -8060857.71947  -6264663.83242  19711123.2994   19711119.8654
 04  7 29  3  7 59.9860000  0  9G31G28G29G19G27G 7G 8G26G11
 -31990437.02349 -24902820.69846  16594217.8074   16594214.5024
 -41218011.98849 -32094322.06546  16623764.0804   16623760.1084
 -22223729.60248 -17294564.23644  18151279.7364   18151277.3774
 -29142322.07446 -22687773.58942  20071535.0574   20071530.5374
 -59187314.72748 -46099441.64245  17175608.9164   17175606.3034
 -17810367.51248 -13855159.42444  18110157.4014   18110155.3304
 -54911106.62149 -42766281.59947  16144291.4164   16144288.6704
 -14484811.24648 -11264453.82743  18535067.5884   18535065.3814
  -8154115.27747  -6337332.00242  19693376.9864   19693373.8584
 04  7 29  3  8 29.9860000  0  9G31G28G29G19G27G 7G 8G26G11
 -32115682.32849 -25000414.40146  16570383.8934   16570381.2094
 -41283411.43749 -32145282.66946  16611318.9014   16611314.8694
 -22333242.23848 -17379898.74944  18130440.5574   18130437.3814
 -29105035.10547 -22658718.87042  20078630.5884   20078626.1744
 -59198645.32849 -46108270.69345  17173452.7684   17173449.9944
 -17951997.30148 -13965520.24344  18083205.2914   18083203.6474
 -54954394.50049 -42800012.41947  16136054.2834   16136050.9754
 -14605959.48048 -11358854.99943  18512013.9084   18512011.6234
  -8246937.88747  -6409661.27942  19675713.1824   19675710.2134
 04  7 29  3  8 59.9860000  0  9G31G28G29G19G27G 7G 8G26G11
 -32240369.10949 -25097572.89746  16546656.7834   16546654.0414
 -41348483.77349 -32195988.37146  16598935.9634   16598931.7334
 -22442220.23048 -17464816.63644  18109702.3694   18109699.6394
 -29067426.34447 -22629413.33042  20085788.1194   20085782.6864
 -59209574.60249 -46116787.02845  17171372.8774   17171370.0924
 -18093277.50848 -14075608.64844  18056321.0414   18056318.9984
 -54997243.05149 -42833400.88647  16127900.3614   16127897.1544
 -14726580.72347 -11452845.56243  18489060.1514   18489058.1704
  -8339326.50847  -6481652.35342  19658132.5884   19658129.2294
 04  7 29  3  9 29.9860000  0  9G31G28G29G19G27G 7G 8G26G11
 -32364497.27749 -25194296.11446  16523036.0724   16523032.9714
 -41413231.65648 -32246441.25446  16586614.9474   16586611.2014
 -22550663.58248 -17549317.92644  18089065.8774   18089063.6584
 -29029500.48846 -22599860.71742  20093003.2364   20093000.3384
 -59220104.48048 -46124992.13545  17169369.2914   17169366.5104
 -18234208.04348 -14185424.58144  18029502.5574   18029500.6664
 -55039653.34049 -42866447.86547  16119829.8464   16119827.0294
 -14846674.79348 -11546425.34843  18466207.1974   18466205.1744
  -8431280.82847  -6553305.05742  19640634.4404   19640630.6664
 04  7 29  3  9 59.9860000  0  9G31G28G29G19G27G 7G 8G26G11
 -32488063.28948 -25290581.27946  16499522.3304   16499519.4084
 -41477654.42248 -32296640.80846  16574355.6824   16574351.7444
 -22658568.99648 -17633400.06844  18068532.6514   18068529.6784
 -28991258.62147 -22570061.88342  20100282.1584   20100277.3814
 -59230233.02348 -46132884.52645  17167441.7834   17167438.8854
 -18374785.43048 -14294965.33644  18002751.5574   18002749.6154
 -55081623.16049 -42899151.61047  16111843.5654   16111840.3934
 -14966238.15247 -11639591.58443  18443455.0804   18443452.9594
  -8522797.15246  -6624616.39442  19623219.0264   19623215.9434
 04  7 29  3 10 29.9860000  0  9G31G28G29G19G27G 7G 8G26G11
 -32611066.20749 -25386427.67346  16476115.3384   16476112.8614
 -41541753.85948 -32346588.41346  16562157.7834   16562154.0684
 -22765935.67248 -17717062.38944  18048100.9404   18048098.9474
 -28952704.48047 -22540019.69642  20107618.4474   20107613.7874
 -59239961.13749 -46140464.89145  17165590.7214   17165588.0764
 -18515008.85548 -14404230.26744  17976068.2604   17976065.8694
 -55123152.84449 -42931512.39247  16103940.5724   16103937.6004
 -15085269.44548 -11732343.21343  18420803.9014   18420801.6974
  -8613874.37946  -6695585.69042  19605886.9554   19605884.0184
 04  7 29  3 10 59.9860000  0  9G31G28G29G19G27G 7G 8G26G11
 -32733501.80149 -25481831.99946  16452816.8774   16452813.8154
 -41605528.88349 -32396283.22746  16550021.9324   16550018.1084
 -22872759.80548 -17800301.97144  18027773.5724   18027770.9164
 -28913838.59047 -22509734.62042  20115014.4164   20115009.3934
 -59249286.39848 -46147731.33145  17163816.0724   17163813.7994
 -18654874.10248 -14513216.12244  17949452.4794   17949450.3184
 -55164239.11349 -42963527.67347  16096121.7214   16096119.2764
 -15203764.50048 -11824677.00443  18398254.9714   18398252.8464
  -8704508.69546  -6766209.80542  19588640.2214   19588636.8854
 04  7 29  3 11 29.9860000  0  9G31G28G29G19G27G 7G 8G26G11
 -32855367.74249 -25576792.43846  16429626.6434   16429623.5964
 -41668979.86748 -32445725.54446  16537947.7684   16537943.6974
 -22979039.07848 -17883116.98944  18007549.1354   18007546.8584
 -28874663.09846 -22479208.30742  20122468.8074   20122464.8584
 -59258208.15648 -46154683.36745  17162118.6274   17162115.6474
 -18794378.90648 -14621921.09844  17922905.2524   17922903.5534
 -55204881.48849 -42995197.05247  16088388.0804   16088385.1544
 -15321720.81648 -11916590.99343  18375808.6044   18375806.4014
  -8794697.12946  -6836486.47942  19571477.7994   19571474.3814
 04  7 29  3 11 59.9860000  0  9G31G28G29G19G27G 7G 8G26G11
 -32976663.45749 -25671308.55746  16406544.6044   16406541.7094
 -41732108.64149 -32494916.78446  16525934.7914   16525930.6234
 -23084773.00048 -17965507.03544  17987428.6824   17987425.8654
 -28835181.99246 -22448443.78942  20129982.8774   20129978.3694
 -59266727.63748 -46161321.93345  17160497.3154   17160494.8424
 -18933522.75448 -14730344.80244  17896426.8544   17896425.2404
 -55245080.74249 -43026521.13947  16080738.1904   16080735.6864
 -15439137.64548 -12008084.59243  18353465.3384   18353463.0884
  -8884438.96947  -6906415.15142  19554400.9714   19554397.5024
 04  7 29  3 12 29.9860000  0  9G31G28G29G19G27G 7G 8G26G11
 -33097384.25049 -25765376.67646  16383572.2294   16383569.0454
 -41794913.73849 -32543855.81846  16513983.1744   16513979.3114
 -23189957.40648 -18047468.90544  17967412.6194   17967409.8614
 -28795395.26247 -22417441.14042  20137553.5104   20137548.6744
 -59274842.07448 -46167644.88645  17158953.0884   17158950.4944
 -19072301.04748 -14838483.68044  17870018.3154   17870016.7214
 -55284833.18049 -43057497.06146  16073173.7764   16073171.0414
 -15556010.12148 -12099154.04743  18331224.9864   18331222.5724
  -8973729.68746  -6975992.26242  19537409.2834   19537405.9124
 04  7 29  3 12 59.9860000  0  9G31G28G29G19G27G 7G 8G26G11
 -33217526.66049 -25858994.10446  16360709.8074   16360706.8264
 -41857394.24249 -32592541.91046  16502093.2444   16502089.5064
 -23294588.78948 -18128999.84044  17947501.7914   17947499.2764
 -28755303.95346 -22386201.17142  20145182.1974   20145178.1704
 -59282549.59048 -46173650.75745  17157486.3224   17157483.6354
 -19210710.39848 -14946335.06444  17843679.7764   17843677.7994
 -55324136.41049 -43088122.95347  16065694.5494   16065691.7564
 -15672334.59048 -12189796.46843  18309089.1114   18309087.3544
  -9062565.76246  -7045215.16542  19520503.9324   19520500.9404
 04  7 29  3 13 29.9860000  0  9G31G28G29G19G27G 7G 8G26G11
 -33337091.61749 -25952161.56446  16337957.1584   16337954.1514
 -41919553.66449 -32640977.81846  16490264.7364   16490260.9404
 -23398668.24648 -18210100.69844  17927696.3224   17927693.5374
 -28714913.59846 -22354728.16542  20152868.5964   20152864.4984
 -59289852.97748 -46179341.71445  17156096.9634   17156094.5414
 -19348751.57848 -15053899.56344  17817411.3774   17817409.5454
 -55362992.90249 -43118400.73047  16058300.4324   16058297.4634
 -15788111.98048 -12280012.59843  18287057.5334   18287055.2684
  -9150947.67247  -7114084.16342  19503685.8544   19503682.7334
 04  7 29  3 13 59.9860000  0  9G31G28G29G19G27G 7G 8G26G11
 -33456073.19149 -26044874.44746  16315315.7134   16315312.9164
 -41981388.81249 -32689161.04446  16478498.1664   16478494.2724
 -23502190.02748 -18290767.02444  17907996.8774   17907994.3344
 -28674222.96146 -22323021.18742  20160611.6044   20160608.5224
 -59296747.86748 -46184714.37745  17154784.7764   17154782.2404
 -19486418.83648 -15161172.68744  17791214.1434   17791212.1394
 -55401397.21949 -43148326.17546  16050992.5334   16050989.3584
 -15903335.96948 -12369797.49343  18265131.1584   18265128.7994
  -9238869.37547  -7182594.54942  19486955.0654   19486951.9474
 04  7 29  3 14 29.9860000  0  9G31G28G29G19G27G 7G 8G26G11
 -33574474.70349 -26137135.33546  16292784.7604   16292781.7684
 -42042905.95349 -32737096.47346  16466791.7054   16466787.8654
 -23605157.71148 -18371001.55544  17888402.7364   17888400.0964
 -28633239.73846 -22291086.22442  20168410.1194   20168405.9284
 -59303239.55148 -46189772.83445  17153549.1274   17153546.5924
 -19623715.31248 -15268156.89944  17765087.6354   17765085.6044
 -55439354.69149 -43177903.41346  16043768.9714   16043766.4864
 -16018009.79348 -12459153.69543  18243309.4404   18243307.2684
  -9326334.39546  -7250749.07342  19470311.0654   19470307.6234
 04  7 29  3 14 59.9860000  0  9G31G28G29G19G27G 7G 8G26G11
 -33692296.05549 -26228944.15446  16270364.4084   16270361.2794
 -42104107.45349 -32784785.93846  16455145.6434   16455141.5064
 -23707571.45348 -18450804.45544  17868913.5104   17868911.0804
 -28591968.42246 -22258926.79042  20176264.2134   20176259.9794
 -59309329.46548 -46194518.24745  17152390.7604   17152388.5064
 -19760641.09048 -15374852.24644  17739031.7054   17739029.1974
 -55476866.24249 -43207133.19647  16036631.0024   16036627.9674
 -16132133.12148 -12548080.94143  18221592.1904   18221589.9554
  -9413342.05947  -7318547.22642  19453753.6824   19453750.3224
 04  7 29  3 15 29.9860000  0  9G31G28G29G19G27G 7G 8G26G11
 -33809529.04349 -26320294.50146  16248055.5024   16248052.2914
 -42164987.72749 -32832225.09646  16443560.4084   16443556.4754
 -23809423.22348 -18530169.43744  17849531.9554   17849529.5264
 -28550405.18746 -22226539.87242  20184174.0654   20184169.4794
 -59315011.19548 -46198945.58145  17151309.1354   17151306.7444
 -19897187.83648 -15481252.25044  17713047.7994   17713045.4244
 -55513924.16449 -43236009.48446  16029579.2054   16029575.9084
 -16245697.55948 -12636572.68443  18199982.3544   18199979.2914
  -9499884.03245  -7385982.53042  19437285.4634   19437282.2724
                            4  7
RINEX FILE SPLICE                                           COMMENT
teqc 2003Nov3 Frederique Rolandone20040802 23:16:07UTC      COMMENT
BIT 2 OF LLI FLAGS DATA COLLECTED UNDER A/S CONDITION       COMMENT
SNR is mapped to RINEX snr flag value [0-9]                 COMMENT
L1 & L2: 2-19 dBHz = 1, 20-27 dBHz = 2, 28-31 dBHz = 3      COMMENT
32-35 dBHz = 4, 36-38 dBHz = 5, 39-41 dBHz = 6              COMMENT
42-44 dBHz = 7, 45-48 dBHz = 8, >= 49 dBHz = 9              COMMENT
 04  7 29  3 16  0.0000000  0  8G 7G 8G11G26G27G28G29G31
    -81512.35258    -37430.88154  22036703.2274   22036700.8094
    -22078.53559    -12405.81957  20372180.6334   20372177.8984
    -50341.10916                  23770473.773
    -67610.26258    -29476.18354  22528045.2424   22528043.1484
     -3066.52058     -5432.91555  21499872.5394   21499870.5124
    -36621.42259    -17713.92056  20781603.3364   20781599.2814
    -59914.34858    -26803.92254  22179825.0944   22179822.2814
    -69780.80959    -30917.61657  20575426.0394   20575423.1724
 04  7 29  3 16 30.0000000  0  9G 7G 8G11G19G26G27G28G29G31
   -217237.34048   -143190.54344  22010875.0944   22010873.4614
    -58170.28149    -40529.26547  20365312.5084   20365309.3554
   -135888.00046    -90174.49452  23754193.9924   23754190.6524
     52574.45756     32311.14552  24549734.5474   24549729.9224
   -179992.88748   -117047.02944  22506659.4064   22506657.1414
     -7873.37548     -9178.52045  21498957.6174   21498955.2304
    -96803.52049    -64609.05146  20770151.1254   20770146.9344
   -160578.75048   -105243.69244  22160668.8914   22160666.5474
   -185773.42649   -121301.44146  20553353.5704   20553350.5434
 04  7 29  3 17  0.0000000  0  9G 7G 8G11G19G26G27G28G29G31
   -352615.45348   -248679.93744  21985114.3284   21985111.8284
    -93844.67649    -68327.48546  20358524.2504   20358520.9804
   -221001.34446   -156496.55342  23737997.7034   23737993.8014
     95018.53146     65384.40042  24557811.4924   24557807.1294
   -291848.41848   -204207.15943  22485374.0164   22485372.1254
    -12309.40648    -12635.18945  21498113.7504   21498111.2384
   -156704.35249   -111285.01446  20758752.2034   20758748.2584
   -260713.74248   -183270.94244  22141613.8524   22141611.2664
   -301209.89149   -211251.90246  20531386.7664   20531383.6374
 04  7 29  3 17 30.0000000  0  9G 7G 8G11G19G26G27G28G29G31
   -487614.64148   -353874.05744  21959424.2344   21959422.3324
   -129070.78149    -95776.40247  20351820.7974   20351817.9304
   -305648.65247   -222455.47442  23721889.4924   23721886.3014
    137736.70347     98671.27242  24565940.4454   24565936.0664
   -403144.58248   -290931.41744  22464195.0944   22464192.7154
    -16344.23048    -15779.22145  21497346.0234   21497343.4654
   -216294.59449   -157718.95546  20747412.4454   20747408.8014
   -360287.64848   -260860.97344  22122665.6954   22122663.3714
   -416058.13749   -300744.00846  20509531.8754   20509528.7344
 04  7 29  3 18  0.0000000  0  9G 7G 8G11G19G26G27G28G29G31
   -622230.98848   -458769.86444  21933807.5084   21933805.4494
   -163845.62949   -122873.68347  20345203.2664   20345200.3054
   -389825.82846   -288048.04942  23705870.5004   23705868.0434
    180728.33646    132171.21742  24574120.3984   24574117.0274
   -513877.25848   -377216.60243  22443123.4144   22443121.0084
    -19975.78148    -18609.00245  21496654.7814   21496652.2234
   -275573.05549   -203909.93946  20736132.1804   20736128.5634
   -459296.76248   -338010.91244  22103824.9384   22103822.2034
   -530314.43449   -389774.84746  20487789.2664   20487786.4694
 04  7 29  3 18 30.0000000  0  9G 7G 8G11G19G26G27G28G29G31
   -756460.84048   -563364.49544  21908264.6484   21908262.4494
   -198167.31648   -149617.84947  20338672.0004   20338669.0904
   -473529.46546   -353271.63242  23689942.4774   23689939.6764
    223992.61346    165883.66842  24582353.6804   24582350.1884
   -624042.88748   -463059.91243  22422159.7814   22422157.5554
    -23202.28547    -21123.18445  21496041.1644   21496038.6294
   -334538.68749   -249857.18246  20724911.4064   20724907.6604
   -557737.62548   -414718.05144  22085091.8524   22085089.3954
   -643975.22749   -478341.67646  20466160.5784   20466157.3714
 04  7 29  3 19  0.0000000  0  9G 7G 8G11G19G26G27G28G29G31
   -890299.55948   -667654.36644  21882795.6334   21882793.6764
   -232031.82849   -176005.77747  20332227.7734   20332224.9654
   -556754.79747   -418122.53042  23674105.5084   23674102.4224
    267529.77046    199808.76942  24590639.2274   24590634.9264
   -733636.57048   -548457.56943  22401304.3284   22401302.0944
    -26020.54348    -23319.25945  21495504.2894   21495502.2894
   -393189.39149   -295559.01546  20713750.6414   20713746.9224
   -655605.81248   -490978.96744  22066468.7584   22066465.9774
   -757035.88749   -566440.85946  20444645.8364   20444642.6804
 04  7 29  3 19 30.0000000  0  9G 7G 8G11G19G26G27G28G29G31
  -1023745.30149   -771637.99544  21857402.0704   21857399.4774
   -265438.39149   -202036.86647  20325870.7584   20325867.8444
   -639499.69147   -482598.98942  23658359.8444   23658356.6454
    311337.50847    233944.62942  24598975.8674   24598971.3484
   -842656.24248   -633407.94643  22380558.3754   22380556.6684
    -28430.44148    -25197.12445  21495046.4614   21495043.7154
   -451525.80949   -341015.95246  20702649.5234   20702645.4414
   -752899.66848   -566792.34544  22047953.8754   22047951.4144
   -869494.64549   -654071.03046  20423245.5164   20423242.3164
 04  7 29  3 20  0.0000000  0  9G 7G 8G11G19G26G27G28G29G31
  -1156799.41048   -875316.49344  21832082.5944   21832080.6564
   -298389.86749   -227713.34446  20319600.3754   20319597.3634
   -721765.55146   -546702.24842  23642704.8284   23642701.4454
    355409.90646    268286.77642  24607361.9924   24607358.3324
   -951103.31248   -717912.14943  22359921.7504   22359919.3554
    -30435.32448    -26759.39745  21494664.8054   21494662.2814
   -509552.09449   -386231.23346  20691607.5704   20691603.5944
   -849620.92648   -642159.54544  22029548.3204   22029546.1174
   -981352.93749   -741233.30146  20401959.6414   20401956.6294
 04  7 29  3 20 30.0000000  0  9G 7G 8G11G19G26G27G28G29G31
  -1289459.30949   -978687.79744  21806838.3834   21806835.9694
   -330884.96949   -253034.20446  20313416.5944   20313413.8444
   -803549.39846   -610429.89742  23627142.1414   23627138.5164
    399745.19546    302833.73342  24615798.7664   24615793.9304
  -1058974.98848   -801967.96443  22339394.7734   22339392.2974
    -32034.17649    -28005.27645  21494360.4694   21494358.1994
   -567268.01249   -431204.66546  20680624.6334   20680620.3984
   -945767.27348   -717078.76344  22011252.4384   22011250.1484
  -1092608.38749   -827925.83746  20380788.4454   20380785.5634
 04  7 29  3 21  0.0000000  0  9G 7G 8G11G19G26G27G28G29G31
  -1421721.85549  -1081749.46244  21781669.5474   21781667.2344
   -362921.43449   -277997.68746  20307320.4844   20307317.6054
   -884848.27346   -673779.62242  23611671.3594   23611668.0744
    444342.06646    337584.54242  24624284.8444   24624281.1564
  -1166268.07048   -885572.95344  22318977.5634   22318974.9924
    -33225.65248    -28933.70145  21494133.2034   21494131.1294
   -624672.73849   -475935.60846  20669700.7894   20669696.8324
  -1041335.75048   -791547.69544  21993066.1884   21993064.1954
  -1203257.98049   -914146.27546  20359732.6414   20359729.4534
 04  7 29  3 21 30.0000000  0  9G 7G 8G11G19G26G27G28G29G31
  -1553583.01248  -1184498.37944  21756577.1334   21756574.9024
   -394496.68749   -302601.78046  20301311.7814   20301309.0044
   -965658.07847   -736748.23342  23596293.8524   23596290.5594
    489200.24646    372538.99242  24632821.9774   24632817.5824
  -1272978.46948   -968723.90043  22298671.0234   22298668.8134
    -34007.35248    -29542.83545  21493984.9144   21493982.3204
   -681765.19949   -520423.23246  20658836.4844   20658832.6214
  -1136322.80948   -865563.55644  21974991.1094   21974988.5044
  -1313297.70749   -999891.48946  20338792.5634   20338789.2894
 04  7 29  3 22  0.0000000  0  9G 7G 8G11G19G26G27G28G29G31
  -1685047.16048  -1286937.91044  21731560.3054   21731557.9304
   -425615.89149   -326850.51047  20295390.0784   20295387.2274
  -1045983.23046   -799339.25942  23581008.4774   23581004.7544
    534311.20346    407690.43842  24641406.0784   24641401.2304
  -1379110.33648  -1051424.03643  22278474.5864   22278472.9264
    -34385.52348    -29837.53245  21493913.0314   21493910.2664
   -738552.18449   -564672.81846  20648030.2194   20648026.2544
  -1230732.88348   -939129.84744  21957025.0864   21957022.6454
  -1422732.13349  -1085165.04546  20317967.7664   20317964.8714
 04  7 29  3 22 30.0000000  0  9G 7G 8G11G19G26G27G28G29G31
  -1816108.40649  -1389063.51944  21706620.2194   21706617.5434
   -456274.34049   -350740.21247  20289555.9304   20289553.3324
  -1125817.64147   -861547.84842  23565816.0394   23565812.8134
    579676.21146    443039.84642  24650039.1174   24650034.1174
  -1484657.74648  -1133668.75043  22258389.2584   22258387.2664
    -34355.95748    -29814.50345  21493918.6174   21493916.1374
   -795030.31649   -608681.74846  20637282.6644   20637278.7704
  -1324560.43748  -1012242.22344  21939170.4844   21939168.1294
  -1531555.48449  -1169962.43446  20297259.4304   20297256.1764
 04  7 29  3 23  0.0000000  0  9G 7G 8G11G19G26G27G28G29G31
  -1946764.38749  -1490873.32844  21681757.3914   21681754.6054
   -486471.40649   -374270.39846  20283809.5864   20283806.7114
  -1205159.14547   -923372.37442  23550718.1174   23550714.9804
    625293.61746    478585.87642  24658719.5634   24658714.7664
  -1589618.26248  -1215456.14043  22238416.6024   22238414.0864
    -33918.14148    -29473.35144  21494001.8914   21493999.1954
   -851199.67249   -652450.06846  20626594.0234   20626590.1644
  -1417803.30948  -1084898.99144  21921427.3054   21921424.2894
  -1639765.55149  -1254281.94046  20276667.6954   20276664.6844
 04  7 29  3 23 30.0000000  0  9G 7G 8G11G19G26G27G28G29G31
  -2077016.79749  -1592368.65744  21656970.7814   21656968.4614
   -516209.66849   -397443.07546  20278150.7274   20278147.8054
  -1284008.76247   -984813.61342  23535713.2894   23535710.3054
    671157.09045    514323.77442  24667446.6254   24667442.4884
  -1693993.66048  -1296787.59843  22218554.4064   22218552.2854
    -33075.47748    -28816.72645  21494162.1094   21494159.5124
   -907064.54349   -695981.13046  20615963.2424   20615959.4804
  -1510463.77048  -1157101.94444  21903794.4774   21903791.6174
  -1747364.37149  -1338125.15446  20256192.2504   20256189.3954
 04  7 29  3 24  0.0000000  0  9G 7G 8G11G19G26G27G28G29G31
  -2206861.23848  -1693546.09644  21632261.9224   21632259.7034
   -545485.80549   -420255.65447  20272579.5554   20272576.2934
  -1362362.42247  -1045868.36842  23520803.5084   23520799.8754
    717267.10546    550253.63342  24676220.8364   24676216.6724
  -1797779.39148  -1377659.56043  22198804.0234   22198802.4884
    -31825.16448    -27842.43345  21494400.4924   21494397.6844
   -962623.00049   -739273.42446  20605390.7974   20605387.0124
  -1602537.47748  -1228847.67344  21886273.1564   21886270.3954
  -1854347.52349  -1421488.61346  20235834.1254   20235831.0554
 04  7 29  3 24 30.0000000  0  9G 7G 8G11G19G26G27G28G29G31
  -2336296.64848  -1794404.82245  21607631.7034   21607629.5944
   -574300.11749   -442708.36046  20267096.5474   20267093.3204
  -1440219.21147  -1106535.95942  23505987.6094   23505984.1604
    763620.29346    586373.00142  24685042.1024   24685037.2274
  -1900974.18048  -1458071.06443  22179167.1644   22179164.9964
    -30167.98448    -26551.12844  21494715.7114   21494712.8554
  -1017876.48049   -782328.07546  20594876.3524   20594872.6804
  -1694023.80548  -1300135.72244  21868863.8054   21868861.0904
  -1960714.21549  -1504371.71746  20215593.3834   20215590.2304
 04  7 29  3 25  0.0000000  0  8G 7G 8G11G26G27G28G29G31
  -2465320.74649  -1894943.01545  21583078.6884   21583076.5084
   -602651.11349   -464800.03846  20261701.1724   20261698.4924
  -1517576.69147  -1166814.46942  23491266.8594   23491263.9224
  -2003575.92648  -1538020.45744  22159642.8834   22159640.9304
    -28103.63748    -24942.55744  21495108.3914   21495105.7814
  -1072825.10549   -825145.17646  20584420.0864   20584416.1134
  -1784920.80548  -1370964.54244  21851566.8914   21851564.3794
  -2066462.37549  -1586772.85346  20195470.0314   20195467.0084
 04  7 29  3 25 30.0000000  0  8G 7G 8G11G26G27G28G29G31
  -2593931.80148  -1995159.38144  21558604.7814   21558602.6024
   -630538.35549   -486530.36446  20256394.5864   20256391.2774
  -1594433.02047  -1226702.48942  23476641.3594   23476638.7304
  -2105582.66848  -1617506.19344  22140231.5004   22140229.4024
    -25631.80548    -23016.46144  21495578.5314   21495576.3484
  -1127469.53949   -867725.24346  20574021.6484   20574017.9264
  -1875227.09048  -1441333.06544  21834382.4064   21834379.5554
  -2171590.44549  -1668690.79346  20175464.6884   20175461.6024
 04  7 29  3 26  0.0000000  0  8G 7G 8G11G26G27G28G29G31
  -2722118.38349  -2095044.97145  21534211.6564   21534209.8984
   -657951.76649   -507891.46646  20251177.8674   20251175.2034
  -1670776.57847  -1286190.97042  23462113.8594   23462110.4804
  -2206983.03148  -1696519.45144  22120935.8284   22120933.5274
    -22743.12148    -20765.54844  21496128.4534   21496125.9494
  -1181800.93749   -910061.39246  20563682.6334   20563679.0704
  -1964931.57848  -1511232.65644  21817311.7114   21817309.2114
  -2276087.28149  -1750116.88946  20155579.6724   20155576.9454
 04  7 29  3 26 29.9990000  0  8G 7G 8G11G26G27G28G29G31
  -2849866.42249  -2194588.86144  21509902.1594   21509899.9294
   -684881.47349   -528875.65346  20246053.3784   20246050.2964
  -1746595.40647  -1345270.52142  23447686.2224   23447682.6244
  -2307763.79348  -1775049.89044  22101757.8154   22101755.6404
    -19429.27348    -18183.33344  21496759.3084   21496756.2144
  -1235809.88749   -952146.27646  20553405.1284   20553401.0584
  -2054021.61748  -1580653.46244  21800358.7454   21800356.2064
  -2379939.80149  -1831040.89546  20135817.3084   20135814.1084
 04  7 29  3 26 59.9990000  0  8G 7G 8G11G26G27G28G29G31
  -2977183.49249  -2293796.91544  21485674.2764   21485672.5384
   -711329.82049   -549484.76046  20241020.3944   20241017.4834
  -1821893.59447  -1403944.38242  23433357.1054   23433353.8434
  -2407930.78548  -1853102.06644  22082696.4174   22082694.5934
    -15691.04348    -15270.43644  21497470.2844   21497468.0814
  -1289501.55949   -993983.94046  20543188.3084   20543183.9334
  -2142503.10548  -1649600.06544  21783521.1444   21783518.6754
  -2483154.30949  -1911467.75646  20116176.0734   20116172.7964
 04  7 29  3 27 29.9990000  0  8G 7G 8G11G26G27G28G29G31
  -3104065.47349  -2392665.94945  21461529.9954   21461527.2724
   -737296.95749   -569718.88446  20236078.9954   20236076.4134
  -1896668.32847  -1462210.38442  23419128.0194   23419124.7724
  -2507480.73848  -1930673.44144  22063753.0264   22063750.8124
    -11530.40248    -12028.39144  21498262.2614   21498259.6124
  -1342876.68749  -1035574.93446  20533031.0034   20533027.1204
  -2230373.09448  -1718070.17144  21766800.0424   21766797.1594
  -2585727.57849  -1991394.94946  20096657.0344   20096653.8314
 04  7 29  3 27 59.9990000  0  8G 7G 8G11G26G27G28G29G31
  -3230513.02349  -2491196.46245  21437467.7304   21437465.1164
   -762784.91849   -589579.63746  20231228.7764   20231225.7304
  -1970920.60947  -1520069.29142  23404998.7924   23404994.7694
  -2606414.23848  -2007764.45344  22044926.2694   22044923.9804
     -6949.77748     -8459.07044  21499133.7844   21499131.3944
  -1395938.39849  -1076921.71746  20522933.5114   20522929.8194
  -2317632.88348  -1786064.78844  21750194.7764   21750192.2024
  -2687660.71949  -2070823.34846  20077259.7374   20077256.7964
 04  7 29  3 28 29.9990000  0  8G 7G 8G11G26G27G28G29G31
  -3356527.93449  -2589389.85745  21413487.5654   21413485.3474
   -787796.46549   -609069.15746  20226469.0734   20226466.4564
  -2044652.27347  -1577522.47042  23390967.9014   23390964.1514
  -2704733.23048  -2084376.62944  22026217.1514   22026214.7024
     -1952.70748     -4565.25944  21500084.7924   21500082.3554
  -1448690.80948  -1118027.48246  20512895.1284   20512891.3084
  -2404284.42248  -1853585.46644  21733705.6904   21733703.3194
  -2788955.73049  -2149754.50246  20057983.9484   20057980.8744
 04  7 29  3 28 59.9990000  0  8G 7G 8G11G26G27G28G29G31
  -3482109.05549  -2687245.22345  21389590.3154   21389588.1714
   -812331.84449   -628187.63346  20221800.4874   20221797.6444
  -2117862.18747  -1634569.14142  23377036.1834   23377033.0224
  -2802436.46148  -2160509.00344  22007624.7064   22007622.1984
      3460.25848      -347.36744  21501114.7764   21501112.4564
  -1501135.12949  -1158893.18746  20502915.2844   20502911.4834
  -2490327.08648  -1920631.68644  21717332.4564   21717329.5694
  -2889611.75449  -2228187.74746  20038829.7614   20038826.7224
 04  7 29  3 29 29.9990000  0  8G 7G 8G11G26G27G28G29G31
  -3607254.54749  -2784761.15645  21365776.1124   21365773.4994
   -836390.09049   -646934.32246  20217222.2764   20217219.4094
  -2190548.37948  -1691207.71342  23363205.1364   23363201.3784
  -2899522.05948  -2236160.09244  21989149.8864   21989147.2884
      9289.17648      4194.64744  21502224.0114   21502221.4254
  -1553271.72748  -1199519.10646  20492994.1364   20492990.2724
  -2575759.49247  -1987202.37044  21701075.0194   21701072.8864
  -2989627.09449  -2306121.75446  20019797.3704   20019794.4724
 04  7 29  3 29 59.9990000  0  8G 7G 8G11G26G27G28G29G31
  -3731962.21948  -2881935.91445  21342044.4724   21342042.1944
   -859970.22349   -665308.45046  20212735.3004   20212732.5774
  -2262708.71947  -1747436.49642  23349472.0734   23349469.0344
  -2995987.98847  -2311328.33644  21970793.0344   21970790.6634
     15534.68447      9061.26644  21503412.3084   21503409.8124
  -1605100.63348  -1239905.24846  20483131.4404   20483127.3864
  -2660579.80948  -2053296.10644  21684934.1124   21684931.7804
  -3088999.98449  -2383555.16046  20000887.4484   20000884.2184
 04  7 29  3 30 29.9990000  0  8G 7G 8G11G26G27G28G29G31
  -3856232.65649  -2978769.96945  21318396.6674   21318394.3004
   -883073.61748   -683311.08846  20208338.5114   20208335.6984
  -2334343.60247  -1803255.88242  23335841.1124   23335837.9644
  -3091834.73048  -2386014.09644  21952553.9724   21952551.3824
     22194.21948     14250.51144  21504679.8314   21504677.2064
  -1656625.11348  -1280054.18346  20473326.7614   20473322.6164
  -2744788.99247  -2118913.63644  21668909.8784   21668907.3784
  -3187731.26249  -2460488.59246  19982099.2764   19982096.1514
 04  7 29  3 30 59.9990000  0  8G 7G 8G11G26G27G28G29G31
  -3980063.71548  -3075261.65045  21294832.4014   21294829.9684
   -905700.03149   -700942.07046  20204033.2614   20204030.2924
  -2405451.36748  -1858664.49742  23322309.6284   23322306.2534
  -3187060.35948  -2460215.85044  21934433.5894   21934430.7534
     29268.03148     19762.57144  21506025.6674   21506023.4094
  -1707845.19148  -1319965.93246  20463579.6984   20463575.8784
  -2828385.42248  -2184053.69844  21653001.7694   21652999.3974
  -3285819.30149  -2536920.81646  19963433.6204   19963430.6284
 04  7 29  3 31 29.9990000  0  8G 7G 8G11G26G27G28G29G31
  -4103455.89548  -3171411.36145  21271351.1124   21271349.2534
   -927850.64548   -718202.27846  20199817.8864   20199814.8084
  -2476032.39547  -1913662.66742  23308879.0344   23308875.0464
  -3281665.19147  -2533933.89444  21916430.1124   21916428.0154
     36754.25048     25595.98744  21507450.5654   21507447.9054
  -1758763.52048  -1359642.53846  20453890.2844   20453886.4334
  -2911370.11748  -2248717.06944  21637210.5344   21637207.9134
  -3383264.83649  -2612852.37646  19944890.4094   19944887.2534
 04  7 29  3 31 59.9990000  0  8G 7G 8G11G26G27G28G29G31
  -4226406.41048  -3267216.91145  21247955.0654   21247952.6404
   -949523.88349   -735090.52246  20195693.6124   20195690.6754
  -2546083.71947  -1968248.08142  23295547.9644   23295545.0504
  -3375646.61748  -2607166.14844  21898546.3314   21898543.6014
     44653.70348     31751.39244  21508953.5344   21508950.8084
  -1809379.83248  -1399083.81646  20444258.3084   20444254.2104
  -2993740.39548  -2312901.67544  21621536.1204   21621533.5424
  -3480065.36349  -2688281.32846  19926469.9564   19926466.7414
 04  7 29  3 32 29.9990000  0  8G 7G 8G11G26G27G28G29G31
  -4348914.90648  -3362678.03445  21224642.9094   21224640.0034
   -970720.74649   -751607.55246  20191660.0114   20191657.1944
  -2615605.48847  -2022420.86942  23282319.0974   23282314.9094
  -3469004.45748  -2679912.50344  21880780.7454   21880778.5384
     52965.06347     38227.76844  21510535.4014   21510533.0074
  -1859695.96948  -1438291.18646  20434683.4644   20434679.4524
  -3075496.71148  -2376607.86344  21605977.8474   21605975.5384
  -3576220.90649  -2763207.70746  19908172.0894   19908168.8664
 04  7 29  3 32 59.9990000  0  8G 7G 8G11G26G27G28G29G31
  -4470981.70748  -3457794.96845  21201413.3394   21201411.1594
   -991442.30149   -767754.21946  20187716.8704   20187714.3474
  -2684597.88748  -2076181.14842  23269189.0734   23269186.4954
  -3561739.02348  -2752173.17644  21863134.0424   21863131.8744
     61686.19148     45023.46244  21512194.7224   21512192.3234
  -1909714.19948  -1477266.42646  20425165.5504   20425161.4604
  -3156639.59848  -2439836.07344  21590537.2304   21590534.8234
  -3671732.21549  -2837632.07646  19889997.0424   19889993.6594
 04  7 29  3 33 29.9990000  0  8G 7G 8G11G26G27G28G29G31
  -4592604.48848  -3552565.93245  21178269.5584   21178267.1754
  -1011687.64849   -783529.80846  20183864.2844   20183861.5854
  -2753058.52347  -2129527.05842  23256162.0264   23256158.8194
  -3653848.19948  -2823946.54744  21845606.3944   21845603.8824
     70817.78548     52138.98444  21513932.1754   21513929.8784
  -1959434.79748  -1516009.75246  20415704.0194   20415699.9724
  -3237167.51648  -2502585.08344  21575213.4014   21575210.5854
  -3766597.39549  -2911552.96846  19871944.7614   19871941.5384
 04  7 29  3 33 59.9990000  0  8G 7G 8G11G26G27G28G29G31
  -4713781.00449  -3646989.14545  21155210.1054   21155208.2694
  -1031455.40649   -798933.24146  20180102.6834   20180100.1084
  -2820985.05148  -2182456.80342  23243236.3784   23243233.0194
  -3745329.64848  -2895230.76444  21828197.9724   21828195.4564
     80360.25047     59574.65644  21515748.3624   21515746.0624
  -2008857.55548  -1554520.97346  20406299.1054   20406295.3274
  -3317078.42248  -2564853.30144  21560006.4254   21560004.1514
  -3860814.46149  -2984968.84246  19854015.7694   19854012.7024
 04  7 29  3 34 29.9990000  0  8G 7G 8G11G26G27G28G29G31
  -4834509.56249  -3741063.31045  21132236.4404   21132234.3234
  -1050744.97349   -813964.07146  20176431.8624   20176428.6514
  -2888376.11748  -2234969.26342  23230412.0894   23230408.5304
  -3836181.75848  -2966024.61444  21810909.2454   21810907.2224
     90313.68047     67330.56844  21517642.3944   21517639.9524
  -2057983.06249  -1592800.59446  20396950.6594   20396946.9874
  -3396371.27748  -2626639.92445  21544918.1284   21544915.1634
  -3954382.18749  -3057878.72546  19836210.2614   19836207.5504
 04  7 29  3 34 59.9990000  0  8G 7G 8G11G26G27G28G29G31
  -4954790.38349  -3834788.57245  21109347.9644   21109345.3904
  -1069558.14849   -828623.68246  20172851.8474   20172848.8274
  -2955232.17248  -2287064.85042  23217689.6834   23217686.1364
  -3926404.89148  -3036328.32144  21793740.1754   21793737.9874
    100675.85547     75404.98244  21519614.0814   21519611.6674
  -2106813.65649  -1630850.38946  20387658.5424   20387654.7304
  -3475046.77748  -2687945.48944  21529946.5344   21529943.8864
  -4047301.23849  -3130283.15547  19818528.4724   19818525.1364
 04  7 29  3 35 29.9990000  0  8G 7G 8G11G26G27G28G29G31
  -5074620.17648  -3928162.40945  21086545.1444   21086542.5384
  -1087892.58249   -842910.24446  20169362.8864   20169359.9604
  -3021549.92248  -2338740.96742  23205069.5424   23205066.2694
  -4015995.82448  -3106139.40744  21776691.9724   21776689.5424
    111448.66447     83799.37844  21521664.3554   21521661.9374
  -2155348.12549  -1668669.46046  20378422.9484   20378418.9604
  -3553102.11348  -2748767.82545  21515092.8004   21515090.3194
  -4139568.52349  -3202179.71046  19800970.5264   19800967.4874
 04  7 29  3 35 59.9990000  0  8G 7G 8G11G26G27G28G29G31
  -5193999.75848  -4021185.40545  21063828.1674   21063825.3194
  -1105750.11349   -856825.19246  20165964.6674   20165961.6594
  -3087330.43047  -2389998.49642  23192551.7144   23192548.6404
  -4104955.62948  -3175458.72144  21759763.5114   21759760.9644
    122629.32048     92511.54844  21523792.3474   21523789.5194
  -2203589.52749  -1706260.16546  20369242.7304   20369238.6554
  -3630538.55948  -2809107.89344  21500357.3944   21500354.4874
  -4231185.60549  -3273569.62247  19783536.1984   19783533.3234
 04  7 29  3 36 29.9990000  0  8G 7G 8G11G26G27G28G29G31
  -5312926.90648  -4113855.86845  21041196.4094   21041194.2614
  -1123129.63348   -870367.66646  20162657.6124   20162654.5584
  -3152571.28147  -2440835.46742  23180136.9874   23180133.7964
  -4193282.17648  -3244284.56844  21742955.3234   21742952.8124
    134218.32447    101541.93844  21525997.4334   21525994.6984
  -2251537.75448  -1743622.40646  20360118.1674   20360114.5894
  -3707354.49248  -2868964.45745  21485739.7144   21485736.8434
  -4322150.62549  -3344451.42246  19766226.4644   19766223.3234
 04  7 29  3 36 59.9990000  0  8G 7G 8G11G26G27G28G29G31
  -5431401.65248  -4206173.81545  21018651.6834   21018649.3824
  -1140032.20348   -883538.49246  20159440.6754   20159437.9444
  -3217272.77047  -2491252.15942  23167824.5894   23167821.6474
  -4280975.53548  -3312617.04544  21726267.6594   21726265.1754
    146213.87147    110889.10044  21528279.9334   21528277.5034
  -2299195.01248  -1780757.92546  20351049.6124   20351045.8554
  -3783550.29748  -2928337.80244  21471239.8394   21471237.3234
  -4412464.03149  -3414825.48646  19749040.1834   19749037.0344
 04  7 29  3 37 29.9990000  0  8G 7G 8G11G26G27G28G29G31
  -5549421.41848  -4298137.21645  20996193.5344   20996190.5154
  -1156456.43448   -896336.57846  20156315.4644   20156312.4604
  -3281432.34848  -2541246.60142  23155616.3234   23155612.2304
  -4368033.46147  -3380454.36744  21709701.1834   21709698.7574
    158616.98447    120553.84644  21530639.9174   21530637.5464
  -2346560.79748  -1817666.32446  20342036.4254   20342032.1284
  -3859124.21548  -2987226.55744  21456858.8704   21456855.9724
  -4502123.62549  -3484690.07046  19731978.6204   19731975.4644
 04  7 29  3 37 59.9990000  0  8G 7G 8G11G26G27G28G29G31
  -5666986.15648  -4389746.05745  20973821.5424   20973818.5074
  -1172403.80148   -908763.09546  20153280.7304   20153277.6874
  -3345050.37547  -2590819.07442  23143509.3314   23143506.1594
  -4454456.08248  -3447796.65644  21693255.4254   21693253.1124
    171425.95348    130534.84944  21533077.3394   21533075.1084
  -2393637.13348  -1854349.18346  20333077.6904   20333073.9444
  -3934076.57048  -3045630.98545  21442595.8314   21442592.9524
  -4591130.01649  -3554045.67546  19715041.3784   19715038.0934
 04  7 29  3 38 29.9990000  0  8G 7G 8G11G26G27G28G29G31
  -5784093.64548  -4480998.59445  20951536.7764   20951533.9564
  -1187872.75448   -920816.81846  20150337.4874   20150334.1084
  -3408124.12148  -2639967.40542  23131507.3234   23131503.6944
  -4540240.95348  -3514641.98444  21676931.2224   21676928.7494
    184641.21947    140832.46144  21535592.9954   21535590.1874
  -2440423.77748  -1890806.31046  20324174.4404   20324170.7884
  -4008405.78148  -3103549.83844  21428451.2454   21428448.8974
  -4679481.21149  -3622890.73346  19698228.3474   19698225.3784
 04  7 29  3 38 59.9990000  0  8G 7G 8G11G26G27G28G29G31
  -5900742.06648  -4571893.42445  20929338.9564   20929336.3974
  -1202862.65248   -932497.24246  20147484.7534   20147481.8084
  -3470652.58248  -2688690.85742  23119608.1444   23119604.8944
  -4625386.71148  -3580989.31444  21660728.4724   21660726.0074
    198263.03948    151446.86244  21538184.5894   21538182.8234
  -2486921.20348  -1927038.06646  20315326.3394   20315322.6014
  -4082110.54348  -3160982.11644  21414425.8474   21414423.3864
  -4767176.03549  -3691224.34047  19681540.6364   19681537.6364
 04  7 29  3 39 29.9990000  0  8G 7G 8G11G26G27G28G29G31
  -6016935.94148  -4662434.06945  20907228.0654   20907225.6084
  -1217379.07849   -943808.74246  20144722.3624   20144719.3904
  -3532640.27047  -2736992.93042  23107812.0264   23107808.9834
  -4709898.09048  -3646842.32244  21644646.7454   21644643.9404
    212284.78948    162372.86444  21540852.8784   21540850.4254
  -2533135.93449  -1963049.53946  20306532.1444   20306528.2534
  -4155196.00448  -3217931.82545  21400518.1444   21400515.6054
  -4854219.58649  -3759050.44946  19664976.9804   19664973.8194
 04  7 29  3 39 59.9990000  0  8G 7G 8G11G26G27G28G29G31
  -6132668.85548  -4752615.51545  20885204.6364   20885202.1834
  -1231416.92248   -954747.30946  20142051.1904   20142048.3864
  -3594080.78147  -2784868.59942  23096120.8784   23096117.2454
  -4793768.98848  -3712196.23944  21628686.3004   21628683.7964
    226711.54347    173614.48644  21543597.8474   21543595.6634
  -2579063.40248  -1998837.17546  20297792.5114   20297788.5154
  -4227656.35548  -3274394.43844  21386729.2304   21386727.0224
  -4940605.88749  -3826364.42146  19648538.2694   19648534.8394
 04  7 29  3 40 29.9990000  0  8G 7G 8G11G26G27G28G29G31
  -6247941.66449  -4842438.44145  20863269.4254   20863266.0424
  -1244978.01649   -965314.40046  20139470.7614   20139467.7694
  -3654975.17248  -2832318.75142  23084532.9484   23084529.3354
  -4877000.15248  -3777051.68244  21612847.7144   21612845.6474
    241540.47348    185169.48244  21546420.1444   21546417.6714
  -2624706.41049  -2034403.15046  20289106.8394   20289102.9994
  -4299492.89848  -3330370.96045  21373059.5734   21373056.8124
  -5026336.37149  -3893167.38047  19632224.0504   19632220.9724
 04  7 29  3 40 59.9990000  0  8G 7G 8G11G26G27G28G29G31
  -6362751.39548  -4931900.52645  20841421.4334   20841418.8274
  -1258060.42249   -975508.46746  20136980.8624   20136978.2144
  -3715320.69947  -2879341.20842  23073049.8864   23073046.0654
  -4959589.03547  -3841406.65144  21597131.9874   21597129.3394
    256773.00448    197038.99244  21549318.5654   21549316.3124
  -2670064.09049  -2069746.78546  20280475.6514   20280471.2144
  -4370703.39548  -3385859.65445  21359508.3474   21359505.7414
  -5111408.57449  -3959457.37446  19616035.5424   19616032.0584
 04  7 29  3 41 29.9990000  0  8G 7G 8G11G26G27G28G29G31
  -6477095.75849  -5021000.00145  20819661.8234   20819659.9294
  -1270663.16849   -985328.78846  20134582.9404   20134579.7764
  -3775115.02747  -2925934.15842  23061670.8314   23061667.2494
  -5041533.38748  -3905259.36544  21581538.4724   21581535.8664
    272409.65248    209223.38144  21552294.4874   21552291.6554
  -2715136.13749  -2104867.86346  20271898.4644   20271894.7574
  -4441286.15248  -3440859.20444  21346076.5734   21346074.0774
  -5195820.71149  -4025233.02746  19599972.4804   19599969.2144
 04  7 29  3 41 59.9980000  0  8G 7G 8G11G26G27G28G29G31
  -6590973.78149  -5109736.09145  20797992.0454   20797989.2644
  -1282789.41849   -994777.81346  20132275.2564   20132272.2644
  -3834359.23847  -2972098.43542  23050396.8034   23050393.0644
  -5122833.70748  -3968610.26644  21566067.5064   21566065.1154
    288445.35947    221718.73944  21555345.5064   21555343.3774
  -2759925.75049  -2139768.86046  20263375.4434   20263371.5964
  -4511242.29748  -3495370.49445  21332764.9754   21332762.1704
  -5279573.44149  -4090494.86946  19584034.5684   19584031.1784
 04  7 29  3 42 29.9980000  0  8G 7G 8G11G26G27G28G29G31
  -6704388.09049  -5198110.83745  20776409.9434   20776407.3074
  -1294436.51249  -1003853.46846  20130058.8264   20130055.6624
  -3893052.66448  -3017833.54342  23039228.5064   23039224.7364
  -5203490.65649  -4031459.82544  21550718.6474   21550716.3974
    304884.20347    234528.22144  21558473.9984   21558471.4554
  -2804432.96149  -2174449.78746  20254905.9204   20254901.8144
  -4580572.14549  -3549393.75545  21319571.9124   21319568.8774
  -5362667.95349  -4155243.81446  19568222.3574   19568218.9864
 04  7 29  3 42 59.9980000  0  8G 7G 8G11G26G27G28G29G31
  -6817336.09849  -5286122.23645  20754916.8034   20754914.2094
  -1305605.99249  -1012556.96146  20127933.5764   20127930.3184
  -3951194.81647  -3063139.09642  23028163.7014   23028160.2444
  -5283503.01649  -4093807.10644  21535492.9904   21535490.4044
    321723.04347    247649.38444  21561678.6784   21561675.9164
  -2848659.56249  -2208912.06446  20246489.8734   20246485.9984
  -4649275.22748  -3602928.61344  21306497.9514   21306495.1624
  -5445103.19549  -4219479.04047  19552535.4514   19552532.1744
 04  7 29  3 43 29.9980000  0  8G 7G 8G11G26G27G28G29G31
  -6929817.37949  -5373769.94445  20733512.7254   20733510.0064
  -1316298.77749  -1020889.00746  20125898.4984   20125895.5724
  -4008785.21148  -3108014.68042  23017205.1784   23017201.2324
  -5362870.52048  -4155651.89744  21520389.5684   21520387.2254
    338960.55947    261081.20144  21564958.4754   21564956.0144
  -2892606.80549  -2243156.66246  20238127.1004   20238123.0724
  -4717351.50049  -3655975.05545  21293543.5454   21293540.6004
  -5526879.35249  -4283200.68746  19536973.8574   19536970.1744
 04  7 29  3 43 59.9980000  0  8G 7G 8G11G26G27G28G29G31
  -7041828.42248  -5461051.24545  20712197.6784   20712194.8184
  -1326512.46549  -1028847.70846  20123955.0224   20123951.7794
  -4065820.75448  -3152457.93242  23006351.7724   23006347.5844
  -5441589.95748  -4216991.71944  21505410.0684   21505407.5414
    356598.29748    274824.88544  21568314.8654   21568312.4164
  -2936273.32049  -2277182.52346  20229817.6864   20229813.5374
  -4784798.64849  -3708531.28545  21280708.4984   21280706.0724
  -5607993.64149  -4346406.60947  19521538.3034   19521534.7914
 04  7 29  3 44 29.9980000  0  8G 7G 8G11G26G27G28G29G31
  -7153368.84049  -5547965.80545  20690971.9124   20690969.3224
  -1336247.46149  -1036433.41346  20122102.4434   20122099.4324
  -4122301.11348  -3196468.56142  22995603.3184   22995599.4634
  -5519661.36348  -4277826.57144  21490553.4364   21490550.9714
    374635.19147    288879.60444  21571747.4754   21571745.0574
  -2979660.43049  -2310990.63546  20221561.4904   20221557.2794
  -4851616.64549  -3760597.24745  21267993.6704   21267991.2954
  -5688446.15249  -4409096.84647  19506228.4754   19506225.0724
 04  7 29  3 44 59.9980000  0  8G 7G 8G11G26G27G28G29G31
  -7264437.75449  -5634512.98346  20669836.1474   20669833.5494
  -1345504.32049  -1043646.54146  20120341.2254   20120338.2134
  -4178225.71948  -3240046.12342  22984961.1864   22984957.1474
  -5597083.92248  -4338155.83144  21475820.5144   21475818.3504
    393070.35547    303244.66044  21575255.4984   21575252.7294
  -3022769.15249  -2344581.84546  20213357.9754   20213354.1354
  -4917805.35248  -3812172.86344  21255398.7724   21255395.8144
  -5768236.69549  -4471271.27046  19491044.9284   19491041.5494
 04  7 29  3 45 29.9980000  0  8G 7G 8G11G26G27G28G29G31
  -7375032.41449  -5720690.60145  20648790.3654   20648788.1314
  -1354280.88349  -1050485.41346  20118670.9984   20118667.8814
  -4233591.85548  -3283188.54442  22974425.5374   22974421.3654
  -5673855.11748  -4397977.52044  21461211.4904   21461208.8184
    411905.01248    317921.00544  21578839.5614   21578836.9754
  -3065598.41049  -2377955.27246  20205208.0764   20205204.0064
  -4983362.56649  -3863256.40645  21242923.3654   21242920.8814
  -5847362.99649  -4532928.10246  19475987.5224   19475984.5104
 04  7 29  3 45 59.9980000  0  8G 7G 8G11G26G27G28G29G31
  -7485153.90649  -5806499.51045  20627834.7174   20627831.9244
  -1362580.00849  -1056952.24146  20117091.5844   20117088.7754
  -4288401.02747  -3325896.96742  22963994.8894   22963991.9284
  -5749976.53948  -4457292.91444  21446726.0224   21446723.6894
    431136.10948    332906.27644  21582498.9284   21582496.3614
  -3108151.20349  -2411113.28546  20197110.3974   20197106.2954
  -5048290.00449  -3913849.20445  21230568.0614   21230565.3184
  -5925826.99249  -4594068.85846  19461056.6154   19461053.1044
 04  7 29  3 46 29.9980000  0  8G 7G 8G11G26G27G28G29G31
  -7594803.49648  -5891940.72145  20606969.2324   20606966.9754
  -1370403.69949  -1063048.63246  20115602.9984   20115599.7134
  -4342655.15648  -3368172.86842  22953671.2254   22953667.8144
  -5825449.83648  -4516103.27744  21432363.7874   21432361.4754
    450760.77348    348198.21944  21586233.7564   21586230.9674
  -3150430.49649  -2444058.17346  20189064.7014   20189060.7684
  -5112589.99648  -3963953.08445  21218332.0064   21218329.5574
  -6003630.52048  -4654694.96147  19446250.9904   19446247.5644
 04  7 29  3 46 59.9980000  0  8G 7G 8G11G26G27G28G29G31
  -7703976.27749  -5977010.37846  20586194.8344   20586191.7684
  -1377748.12949  -1068771.54346  20114205.3654   20114202.3614
  -4396348.70348  -3410011.96642  22943453.9124   22943450.1974
  -5900270.15648  -4574404.81044  21418126.2404   21418123.5844
    470782.20347    363799.32544  21590043.5144   21590041.1584
  -3192433.15649  -2476787.50246  20181072.0374   20181067.7914
  -5176258.08249  -4013564.56244  21206216.7484   21206214.0844
  -6080769.28549  -4714803.05947  19431571.9904   19431568.6704
 04  7 29  3 47 29.9980000  0  8G 7G 8G11G26G27G28G29G31
  -7812676.52349  -6061711.83345  20565509.7484   20565507.0844
  -1384618.66849  -1074125.20146  20112897.7644   20112894.7604
  -4449486.62147  -3451418.08142  22933342.1004   22933338.0374
  -5974442.30548  -4632201.28144  21404011.3114   21404009.3464
    491194.51648    379705.01844  21593928.1704   21593925.0764
  -3234165.57849  -2509306.25146  20173130.2094   20173126.6394
  -5239299.38749  -4062687.64245  21194220.0534   21194217.6864
  -6157248.38349  -4774397.14347  19417018.4824   19417014.9984
 04  7 29  3 47 59.9980000  0  8G 7G 8G11G26G27G28G29G31
  -7920900.77049  -6146042.37546  20544914.8424   20544912.1784
  -1391012.98449  -1079107.78246  20111680.7174   20111677.5964
  -4502065.52747  -3492388.63242  22923336.3424   22923332.8034
  -6047963.09048  -4689490.22744  21390021.2794   21390018.5804
    511999.53948    395916.70743  21597886.8734   21597884.1004
  -3275625.64849  -2541612.78446  20165240.8424   20165236.7954
  -5301711.05549  -4111320.10245  21182343.2174   21182340.8854
  -6233064.88349  -4833474.90746  19402590.9594   19402587.6544
 04  7 29  3 48 29.9980000  0  8G 7G 8G11G26G27G28G29G31
  -8028644.28149  -6229998.32746  20524412.2254   20524409.1504
  -1396927.54749  -1083716.51946  20110555.3184   20110552.2524
  -4554081.09447  -3532920.21242  22913437.6004   22913434.2484
  -6120828.24648  -4746268.27144  21376155.1474   21376152.6864
    533200.15648    412436.67744  21601921.3504   21601918.8184
  -3316810.43749  -2573704.81146  20157403.7324   20157399.6934
  -5363489.18049  -4159458.87844  21170587.4044   21170584.8344
  -6308214.81649  -4892033.26747  19388290.5294   19388286.9794
 04  7 29  3 48 59.9980000  0  8G 7G 8G11G26G27G28G29G31
  -8135909.74649  -6313581.77746  20504000.3424   20503997.7564
  -1402365.68449  -1087954.02846  20109520.6704   20109517.4674
  -4605536.11748  -3573015.01042  22903646.8264   22903642.7684
  -6193040.66848  -4802537.67344  21362413.7094   21362411.0844
    554792.09448    429261.56743  21606030.0684   21606027.6864
  -3357724.53549  -2605585.89946  20149617.8264   20149613.8574
  -5424637.06649  -4207106.57544  21158951.3574   21158948.9004
  -6382701.55949  -4950074.86647  19374115.8574   19374112.4824
 04  7 29  3 49 29.9980000  0  8G 7G 8G11G26G27G28G29G31
  -8242695.13749  -6396791.13146  20483679.5224   20483676.6004
  -1407326.29349  -1091819.43646  20108576.3504   20108573.6154
  -4656428.97347  -3612671.75042  22893962.3344   22893957.9164
  -6264598.60948  -4858297.12544  21348796.5684   21348794.2294
    576775.77348    446391.70343  21610213.1314   21610211.0024
  -3398367.41849  -2637255.65146  20141883.7324   20141879.8264
  -5485153.61349  -4254262.31044  21147435.6234   21147432.9284
  -6456523.78149  -5007598.65647  19360068.2014   19360064.6314
 04  7 29  3 49 59.9980000  0  8G 7G 8G11G26G27G28G29G31
  -8349002.65649  -6479628.12845  20463449.8574   20463447.1194
  -1411812.75049  -1095315.35946  20107722.9364   20107719.7444
  -4706762.17648  -3651892.38542  22884383.9364   22884379.9244
  -6335504.81648  -4913548.71144  21335303.5064   21335301.2914
    599147.21148    463824.00943  21614469.8814   21614467.8264
  -3438742.97349  -2668717.10446  20134200.7324   20134196.5494
  -5545041.80549  -4300928.43245  21136039.1704   21136036.5024
  -6529684.52049  -5064606.99547  19346145.9594   19346142.8504
 04  7 29  3 50 29.9980000  0  8G 7G 8G11G26G27G28G29G31
  -8454830.99249  -6562091.73846  20443311.3114   20443308.8184
  -1415825.12949  -1098441.86946  20106959.1704   20106956.1474
  -4756534.88347  -3690676.29042  22874912.1704   22874908.1274
  -6405758.21548  -4968291.62144  21321934.5064   21321932.2874
    621906.16447    481558.25843  21618801.0614   21618798.9794
  -3478851.56249  -2699970.52346  20126568.0224   20126564.1894
  -5604300.98849  -4347104.40945  21124762.7404   21124759.7914
  -6602183.09049  -5121099.37146  19332350.0614   19332346.6354
 04  7 29  3 50 59.9980000  0  8G 7G 8G11G26G27G28G29G31
  -8560176.37549  -6644179.01546  20423264.8654   20423262.0644
  -1419360.96149  -1101197.06146  20106286.4514   20106283.8304
  -4805743.33648  -3729020.54042  22865548.0454   22865544.7564
  -6475355.65648  -5022523.36944  21308690.7324   21308688.5144
    645054.55548    499595.96143  21623206.0534   21623204.1934
  -3518690.89849  -2731014.14446  20118986.9904   20118983.0964
  -5662928.25849  -4392787.99445  21113605.8574   21113603.2254
  -6674016.50849  -5177073.44247  19318680.4124   19318677.4394
 04  7 29  3 51 29.9980000  0  8G 7G 8G11G26G27G28G29G31
  -8665037.07049  -6725888.62546  20403310.8814   20403308.0334
  -1422419.48849  -1103580.32046  20105704.4364   20105701.2174
  -4854385.98048  -3766923.85142  22856291.7174   22856288.2644
  -6544295.70747  -5076242.87544  21295572.1474   21295569.5064
    668592.58648    517937.28243  21627685.3894   21627682.7174
  -3558261.13748  -2761848.07646  20111456.8184   20111452.7684
  -5720922.63349  -4437978.40545  21102570.2794   21102567.2174
  -6745183.77349  -5232528.43747  19305137.7644   19305134.6894
 04  7 29  3 51 59.9980000  0  8G 7G 8G11G26G27G28G29G31
  -8769413.36749  -6807220.77046  20383448.3814   20383445.5494
  -1425001.63749  -1105592.38646  20105212.9984   20105209.5184
  -4902463.51648  -3804386.83442  22847143.2724   22847139.0884
  -6612578.94548  -5129450.57844  21282578.1784   21282575.6624
    692518.27048    536580.68843  21632238.8344   21632236.1274
  -3597564.02348  -2792473.68346  20103977.7954   20103973.9554
  -5778285.11749  -4482676.44744  21091654.4284   21091651.9044
  -6815685.91449  -5287465.15147  19291721.6004   19291718.5964
 04  7 29  3 52 29.9980000  0  8G 7G 8G11G26G27G28G29G31
  -8873306.78549  -6888176.65146  20363677.8814   20363675.3544
  -1427109.84049  -1107235.13646  20104811.8034   20104808.7604
  -4949977.91447  -3841411.02142  22838101.2794   22838097.4044
  -6680207.52047  -5182148.15044  21269708.5844   21269706.4364
    716828.42647    555523.66043  21636864.4044   21636861.8304
  -3636602.66048  -2822893.39546  20096549.1544   20096545.2054
  -5835018.18049  -4526884.02345  21080858.2404   21080855.9944
  -6885525.22349  -5341885.37647  19278431.9204   19278428.5144
 04  7 29  3 52 59.9980000  0  8G 7G 8G11G26G27G28G29G31
  -8976714.27349  -6968753.88846  20344000.1074   20343997.4164
  -1428742.60949  -1108507.41846  20104501.0614   20104497.9984
  -4996926.64548  -3877994.40942  22829166.9904   22829163.5494
  -6747178.67248  -5234333.44144  21256964.9434   21256962.1474
    741524.40247    574767.26843  21641564.1314   21641561.5064
  -3675375.53548  -2853106.01746  20089170.9204   20089166.6074
  -5891119.56649  -4570599.39545  21070182.8654   21070179.8614
  -6954699.60949  -5395787.46947  19265268.2254   19265264.8144
 04  7 29  3 53 29.9980000  0  8G 7G 8G11G26G27G28G29G31
  -9079636.41449  -7048952.93146  20324414.9984   20324411.8734
  -1429901.44549  -1109410.40246  20104280.6394   20104277.6354
  -5043310.45348  -3914137.59942  22820340.6394   22820336.6044
  -6813493.59848  -5286007.37244  21244345.5224   21244342.8304
    766604.05547    594309.86143  21646336.6544   21646334.0104
  -3713884.75049  -2883113.17846  20081842.6864   20081838.8694
  -5946590.71149  -4613823.66345  21059626.9824   21059624.3974
  -7023210.36349  -5449172.46347  19252231.2254   19252227.6704
 04  7 29  3 53 59.9980000  0  8G 7G 8G11G26G27G28G29G31
  -9182075.53549  -7128775.59846  20304921.6394   20304918.3034
  -1430589.54749  -1109946.59046  20104149.5224   20104146.3464
  -5089131.74648  -3949842.47742  22811621.4754   22811617.1354
  -6879155.04747  -5337172.13044  21231850.6234   21231847.7684
    792063.43447    614148.31743  21651180.9984   21651178.8074
  -3752134.18449  -2912917.92046  20074564.2724   20074559.9594
  -6001434.77349  -4656559.30045  21049190.2484   21049187.7994
  -7091060.61349  -5502042.76247  19239319.4124   19239316.1664
 04  7 29  3 54 29.9980000  0  8G 7G 8G11G26G27G28G29G31
  -9284025.69949  -7208217.25946  20285520.9514   20285517.9434
  -1430801.87549  -1110112.03246  20104109.4904   20104106.3224
  -5134384.91447  -3985104.63942  22803009.7794   22803006.1434
  -6944157.47748  -5387823.36344  21219480.6784   21219478.3934
    817906.77047    634285.99943  21656099.0294   21656096.4044
  -3790119.18448  -2942516.60746  20067335.9204   20067331.9204
  -6055646.55549  -4698802.23144  21038874.1704   21038871.7444
  -7158245.09848  -5554394.28547  19226534.8814   19226531.3344
 04  7 29  3 54 59.9980000  0  8G 7G 8G11G26G27G28G29G31
  -9385487.99649  -7287278.74346  20266213.0684   20266210.2174
  -1430541.05549  -1109908.79646  20104158.8264   20104155.7954
  -5179071.55147  -4019925.37242  22794505.6074   22794502.2564
  -7008502.36748  -5437962.22344  21207236.3574   21207234.1394
    844131.44947    654720.81143  21661089.3114   21661086.9324
  -3827842.50848  -2971911.39046  20060157.2644   20060153.2294
  -6109228.21149  -4740554.15745  21028678.3034   21028675.5144
  -7224765.84449  -5606228.62147  19213876.3504   19213872.9004
 04  7 29  3 55 29.9980000  0  8G 7G 8G11G26G27G28G29G31
  -9486464.48049  -7365961.66646  20246997.8504   20246995.0614
  -1429809.77049  -1109338.94446  20104298.0764   20104295.1934
  -5223194.12148  -4054306.58442  22786110.0064   22786105.8574
  -7072192.55548  -5487590.92544  21195116.4514   21195114.1354
    870733.40248    675449.61143  21666151.7014   21666148.7644
  -3865307.70349  -3001105.02846  20053027.9674   20053024.1934
  -6162182.64549  -4781817.35144  21018601.4364   21018598.4004
  -7290625.94149  -5657548.15447  19201343.6234   19201340.0964
 04  7 29  3 55 59.9980000  0  8G 7G 8G11G26G27G28G29G31
  -9586954.05549  -7444265.18846  20227875.3734   20227872.1624
  -1428608.09049  -1108402.56546  20104526.4364   20104523.8654
  -5266751.79348  -4088247.57842  22777820.3734   22777817.4864
  -7135227.18047  -5536708.78444  21183121.1234   21183119.0684
    897712.56347    696472.33243  21671286.0534   21671283.4674
  -3902514.94948  -3030097.66946  20045947.7324   20045943.5144
  -6214509.35249  -4822591.40045  21008643.7254   21008640.8814
  -7355824.78948  -5708352.43147  19188936.5064   19188933.1474
 04  7 29  3 56 29.9980000  0  8G 7G 8G11G26G27G28G29G31
  -9686954.91449  -7522187.91146  20208845.8264   20208843.0254
  -1426935.27349  -1107099.07946  20104845.1934   20104842.1004
  -5309743.03147  -4121747.23142  22769639.5534   22769636.3384
  -7197604.96548  -5585314.84744  21171251.4674   21171248.7404
    925068.97747    717789.01943  21676491.3344   21676488.9164
  -3939463.87549  -3058889.02646  20038916.5924   20038912.7214
  -6266207.60549  -4862875.74945  20998806.0684   20998803.3504
  -7420361.54349  -5758640.79247  19176655.5534   19176652.1004
 04  7 29  3 56 59.9980000  0  8G 7G 8G11G26G27G28G29G31
  -9786466.06649  -7599729.03946  20189909.2324   20189906.5964
  -1424791.32449  -1105428.46946  20105253.0144   20105250.2254
  -5352167.47347  -4154805.20142  22761566.6394   22761563.4634
  -7259325.58248  -5633408.81144  21159506.0844   21159503.6114
    952801.80147    739399.01643  21681768.4754   21681766.4004
  -3976155.30149  -3087479.74346  20031934.1544   20031930.1704
  -6317277.42249  -4902670.39245  20989087.7564   20989084.7484
  -7484236.21549  -5808413.23947  19164500.5294   19164497.2644
 04  7 29  3 57 29.9980000  0  8G 7G 8G11G26G27G28G29G31
  -9885484.64149  -7676886.31646  20171066.8814   20171063.8504
  -1422174.44549  -1103389.33446  20105751.2254   20105748.0534
  -5394022.43448  -4187419.45142  22753601.9124   22753598.5184
  -7320386.53547  -5680988.76144  21147886.5924   21147884.3144
    980912.61747    761303.53543  21687118.1704   21687115.9284
  -4012587.24649  -3115868.26546  20025001.4284   20024997.3974
  -6367716.75449  -4941973.75345  20979489.1394   20979486.7364
  -7547446.67648  -5857668.12746  19152472.0844   19152468.7014
